Temperatur und Luftfeuchte

Temperatur und Luftfeuchte

Nummer Datum und Zeit Sensor ID Temperatur in Celsius gef├╝hlte Temperatur Luftfeuchte in %
55416 2022-01-20 23:53:17 Terrasse 1.70 0.53 99.90
55415 2022-01-20 23:25:07 Terrasse 1.70 0.53 99.90
55414 2022-01-20 22:56:57 Terrasse 1.80 0.64 99.90
55413 2022-01-20 22:28:46 Terrasse 1.80 0.64 99.90
55412 2022-01-20 22:00:36 Terrasse 1.80 0.64 99.90
55411 2022-01-20 21:32:26 Terrasse 1.80 0.64 99.90
55410 2022-01-20 21:04:15 Terrasse 1.90 0.75 99.90
55409 2022-01-20 20:36:05 Terrasse 1.90 0.75 99.90
55408 2022-01-20 20:07:55 Terrasse 1.90 0.75 99.90
55407 2022-01-20 19:39:45 Terrasse 2.10 0.97 99.90
55406 2022-01-20 19:11:36 Terrasse 2.20 -1.50 1.00
55405 2022-01-20 18:43:26 Terrasse 2.30 -1.39 1.00
55404 2022-01-20 18:15:17 Terrasse 2.40 -1.28 1.00
55403 2022-01-20 17:47:07 Terrasse 2.50 -1.17 1.00
55402 2022-01-20 17:18:58 Terrasse 2.60 -1.06 1.00
55401 2022-01-20 16:50:49 Terrasse 2.80 1.74 99.90
55400 2022-01-20 16:22:40 Terrasse 3.20 -0.40 1.00
55399 2022-01-20 15:54:36 Terrasse 4.20 0.70 1.00
55398 2022-01-20 15:26:27 Terrasse 3.90 2.95 99.90
55397 2022-01-20 14:58:29 Terrasse 5.80 2.46 1.00
55396 2022-01-20 14:30:34 Terrasse 8.90 5.87 1.00
55395 2022-01-20 14:01:44 Terrasse 3.20 2.18 99.90
55394 2022-01-20 13:33:37 Terrasse 3.60 0.04 1.00
55393 2022-01-20 13:05:29 Terrasse 3.80 0.26 1.00
55392 2022-01-20 12:37:26 Terrasse 4.70 1.25 1.00
55391 2022-01-20 12:09:06 Terrasse 3.90 0.37 1.00
55390 2022-01-20 11:40:51 Terrasse 3.30 2.29 99.90
55389 2022-01-20 11:12:44 Terrasse 3.60 2.62 99.90
55388 2022-01-20 10:44:32 Terrasse 3.70 0.15 1.00
55387 2022-01-20 10:16:18 Terrasse 3.30 -0.29 1.00
55386 2022-01-20 09:48:06 Terrasse 2.90 -0.73 1.00
55385 2022-01-20 09:19:54 Terrasse 2.80 -0.84 1.00
55384 2022-01-20 08:51:46 Terrasse 2.90 -0.73 1.00
55383 2022-01-20 08:23:36 Terrasse 2.90 -0.73 1.00
55382 2022-01-20 07:55:25 Terrasse 3.00 -0.62 1.00
55381 2022-01-20 07:27:14 Terrasse 3.00 -0.62 1.00
55380 2022-01-20 06:59:03 Terrasse 2.90 -0.73 1.00
55379 2022-01-20 06:30:53 Terrasse 2.90 -0.73 1.00
55378 2022-01-20 06:02:41 Terrasse 2.90 -0.73 1.00
55377 2022-01-20 05:34:30 Terrasse 2.90 -0.73 1.00
55376 2022-01-20 05:06:20 Terrasse 3.00 -0.62 1.00
55375 2022-01-20 04:38:11 Terrasse 3.20 -0.40 1.00
55374 2022-01-20 04:10:01 Terrasse 3.40 -0.18 1.00
55373 2022-01-20 03:41:51 Terrasse 3.40 -0.18 1.00
55372 2022-01-20 03:13:40 Terrasse 3.40 -0.18 1.00
55371 2022-01-20 02:45:41 Terrasse 3.30 -0.29 1.00
55370 2022-01-20 02:17:26 Terrasse 3.30 -0.29 1.00
55369 2022-01-20 01:49:14 Terrasse 3.20 -0.40 1.00
55368 2022-01-20 01:21:05 Terrasse 3.10 -0.51 1.00
55367 2022-01-20 00:52:53 Terrasse 3.00 -0.62 1.00
55366 2022-01-20 00:24:41 Terrasse 2.80 -0.84 1.00
55365 2022-01-19 23:56:29 Terrasse 2.60 -1.06 1.00
55364 2022-01-19 23:28:17 Terrasse 2.50 -1.17 1.00
55363 2022-01-19 23:00:06 Terrasse 2.50 -1.17 1.00
55362 2022-01-19 22:31:55 Terrasse 2.50 -1.17 1.00
55361 2022-01-19 22:03:45 Terrasse 2.40 -1.28 1.00
55360 2022-01-19 21:35:34 Terrasse 2.40 -1.28 1.00
55359 2022-01-19 21:07:25 Terrasse 2.40 -1.28 1.00
55358 2022-01-19 20:39:15 Terrasse 2.40 -1.28 1.00
55357 2022-01-19 20:11:04 Terrasse 2.40 -1.28 1.00
55356 2022-01-19 19:42:53 Terrasse 2.40 -1.28 1.00
55355 2022-01-19 19:14:42 Terrasse 2.40 -1.28 1.00
55354 2022-01-19 18:46:31 Terrasse 2.30 -1.39 1.00
55353 2022-01-19 18:18:20 Terrasse 2.30 -1.39 1.00
55352 2022-01-19 17:50:09 Terrasse 2.30 -1.39 1.00
55351 2022-01-19 17:21:57 Terrasse 2.20 -1.50 1.00
55350 2022-01-19 16:53:46 Terrasse 2.30 -1.39 1.00
55349 2022-01-19 16:25:35 Terrasse 2.30 -1.39 1.00
55348 2022-01-19 15:57:25 Terrasse 2.30 -1.39 1.00
55347 2022-01-19 15:29:15 Terrasse 2.30 -1.39 1.00
55346 2022-01-19 15:01:04 Terrasse 2.50 -1.17 1.00
55345 2022-01-19 14:32:55 Terrasse 2.60 -1.06 1.00
55344 2022-01-19 14:04:46 Terrasse 2.80 -0.84 1.00
55343 2022-01-19 13:36:35 Terrasse 3.00 1.96 99.90
55342 2022-01-19 13:08:27 Terrasse 3.30 -0.23 3.40
55341 2022-01-19 12:42:26 Terrasse 3.60 0.04 1.00
55340 2022-01-19 12:10:49 Terrasse 3.70 0.15 1.00
55339 2022-01-19 11:37:27 Terrasse 4.00 3.06 99.90
55338 2022-01-19 11:09:40 Terrasse 4.40 0.92 1.00
55337 2022-01-19 10:41:22 Terrasse 4.00 0.48 1.00
55336 2022-01-19 10:13:50 Terrasse 3.80 2.84 99.90
55335 2022-01-19 09:46:11 Terrasse 3.30 -0.29 1.00
55334 2022-01-19 09:17:29 Terrasse 3.00 -0.62 1.00
55333 2022-01-19 08:49:19 Terrasse 3.10 -0.51 1.00
55332 2022-01-19 08:21:08 Terrasse 3.10 -0.51 1.00
55331 2022-01-19 07:52:57 Terrasse 3.30 1.79 80.50
55330 2022-01-19 07:24:47 Terrasse 3.40 2.40 99.90
55329 2022-01-19 06:56:36 Terrasse 3.50 2.47 98.20
55328 2022-01-19 06:28:26 Terrasse 3.50 0.24 12.80
55327 2022-01-19 06:00:17 Terrasse 3.80 2.84 99.90
55326 2022-01-19 05:32:07 Terrasse 3.90 1.39 40.00
55325 2022-01-19 05:03:56 Terrasse 4.00 0.48 1.00
55324 2022-01-19 04:35:47 Terrasse 4.00 2.22 67.60
55323 2022-01-19 04:07:36 Terrasse 4.10 0.59 1.00
55322 2022-01-19 03:39:27 Terrasse 4.20 0.70 1.00
55321 2022-01-19 03:11:18 Terrasse 4.30 3.39 99.90
55320 2022-01-19 02:43:08 Terrasse 4.30 3.22 93.30
55319 2022-01-19 02:14:57 Terrasse 4.40 1.41 19.60
55318 2022-01-19 01:46:47 Terrasse 4.50 1.03 1.00
55317 2022-01-19 01:18:36 Terrasse 4.60 2.96 70.50
55316 2022-01-19 00:50:26 Terrasse 4.70 1.25 1.00
55315 2022-01-19 00:22:15 Terrasse 4.80 3.94 99.90
55314 2022-01-18 23:54:14 Terrasse 4.90 4.05 99.90
55313 2022-01-18 23:26:01 Terrasse 5.00 4.16 99.90
55312 2022-01-18 22:57:49 Terrasse 5.10 4.27 99.90
55311 2022-01-18 22:29:39 Terrasse 5.10 4.27 99.90
55310 2022-01-18 22:01:30 Terrasse 5.20 4.38 99.90
55309 2022-01-18 21:33:19 Terrasse 5.20 4.38 99.90
55308 2022-01-18 21:05:09 Terrasse 5.20 4.38 99.90
55307 2022-01-18 20:36:58 Terrasse 5.30 4.49 99.90
55306 2022-01-18 20:08:47 Terrasse 5.30 4.49 99.90
55305 2022-01-18 19:40:36 Terrasse 5.30 4.49 99.90
55304 2022-01-18 19:12:27 Terrasse 5.40 4.60 99.90
55303 2022-01-18 18:44:16 Terrasse 5.50 4.71 99.90
55302 2022-01-18 18:16:07 Terrasse 5.60 4.82 99.90
55301 2022-01-18 17:47:57 Terrasse 5.70 2.35 1.00
55300 2022-01-18 17:19:46 Terrasse 5.80 5.04 99.90
55299 2022-01-18 16:51:37 Terrasse 5.80 5.04 99.90
55298 2022-01-18 16:23:26 Terrasse 5.90 5.15 99.90
55297 2022-01-18 15:55:15 Terrasse 6.10 5.37 99.90
55296 2022-01-18 15:27:04 Terrasse 6.20 5.48 99.90
55295 2022-01-18 14:58:53 Terrasse 6.30 5.59 99.90
55294 2022-01-18 14:30:41 Terrasse 6.30 5.59 99.90
55293 2022-01-18 14:02:30 Terrasse 6.30 5.59 99.90
55292 2022-01-18 13:34:20 Terrasse 6.50 5.81 99.90
55291 2022-01-18 13:06:10 Terrasse 6.50 5.81 99.90
55290 2022-01-18 12:37:58 Terrasse 6.20 2.90 1.00
55289 2022-01-18 12:09:47 Terrasse 6.00 2.68 1.00
55288 2022-01-18 11:41:36 Terrasse 6.00 2.68 1.00
55287 2022-01-18 11:13:23 Terrasse 5.70 2.35 1.00
55286 2022-01-18 10:45:10 Terrasse 5.50 2.13 1.00
55285 2022-01-18 10:16:57 Terrasse 5.20 1.80 1.00
55284 2022-01-18 09:48:45 Terrasse 4.70 1.25 1.00
55283 2022-01-18 09:20:33 Terrasse 4.50 1.03 1.00
55282 2022-01-18 08:52:21 Terrasse 4.40 0.92 1.00
55281 2022-01-18 08:24:12 Terrasse 4.30 0.81 1.00
55280 2022-01-18 07:56:01 Terrasse 4.30 0.81 1.00
55279 2022-01-18 07:27:50 Terrasse 4.30 0.81 1.00
55278 2022-01-18 06:59:41 Terrasse 4.30 0.81 1.00
55277 2022-01-18 06:31:30 Terrasse 4.40 0.92 1.00
55276 2022-01-18 06:03:20 Terrasse 4.50 1.03 1.00
55275 2022-01-18 05:35:09 Terrasse 4.50 1.03 1.00
55274 2022-01-18 05:07:00 Terrasse 4.60 1.14 1.00
55273 2022-01-18 04:38:49 Terrasse 4.60 1.14 1.00
55272 2022-01-18 04:10:38 Terrasse 4.70 1.25 1.00
55271 2022-01-18 03:42:26 Terrasse 4.70 1.25 1.00
55270 2022-01-18 03:14:17 Terrasse 4.70 1.25 1.00
55269 2022-01-18 02:46:07 Terrasse 4.70 1.25 1.00
55268 2022-01-18 02:17:56 Terrasse 4.70 1.25 1.00
55267 2022-01-18 01:49:45 Terrasse 4.80 1.36 1.00
55266 2022-01-18 01:21:34 Terrasse 4.70 1.25 1.00
55265 2022-01-18 00:53:24 Terrasse 4.80 1.36 1.00
55264 2022-01-18 00:25:13 Terrasse 4.80 1.36 1.00
55263 2022-01-17 23:57:01 Terrasse 4.80 1.36 1.00
55262 2022-01-17 23:28:52 Terrasse 4.90 1.47 1.00
55261 2022-01-17 23:00:42 Terrasse 5.10 1.69 1.00
55260 2022-01-17 22:32:31 Terrasse 5.30 1.91 1.00
55259 2022-01-17 22:04:21 Terrasse 5.20 1.80 1.00
55258 2022-01-17 21:36:09 Terrasse 5.20 1.80 1.00
55257 2022-01-17 21:07:59 Terrasse 5.20 1.80 1.00
55256 2022-01-17 20:39:48 Terrasse 5.10 1.69 1.00
55255 2022-01-17 20:11:38 Terrasse 5.10 1.69 1.00
55254 2022-01-17 19:43:27 Terrasse 5.00 1.58 1.00
55253 2022-01-17 19:15:16 Terrasse 5.00 1.58 1.00
55252 2022-01-17 18:47:04 Terrasse 4.90 1.47 1.00
55251 2022-01-17 18:18:53 Terrasse 4.90 1.47 1.00
55250 2022-01-17 17:50:42 Terrasse 4.80 1.36 1.00
55249 2022-01-17 17:22:30 Terrasse 4.70 1.25 1.00
55248 2022-01-17 16:54:19 Terrasse 4.70 1.25 1.00
55247 2022-01-17 16:26:08 Terrasse 4.60 1.14 1.00
55246 2022-01-17 15:57:57 Terrasse 4.50 1.03 1.00
55245 2022-01-17 15:29:45 Terrasse 4.50 1.03 1.00
55244 2022-01-17 15:01:34 Terrasse 4.50 1.03 1.00
55243 2022-01-17 14:33:24 Terrasse 4.60 1.14 1.00
55242 2022-01-17 14:05:13 Terrasse 4.80 1.36 1.00
55241 2022-01-17 13:37:01 Terrasse 4.80 1.36 1.00
55240 2022-01-17 13:08:50 Terrasse 4.70 3.83 99.90
55239 2022-01-17 12:40:39 Terrasse 4.60 3.72 99.90
55238 2022-01-17 12:12:26 Terrasse 4.40 3.50 99.90
55237 2022-01-17 11:44:15 Terrasse 4.20 0.70 1.00
55236 2022-01-17 11:16:04 Terrasse 4.20 0.70 1.00
55235 2022-01-17 10:47:53 Terrasse 4.00 0.48 1.00
55234 2022-01-17 10:19:41 Terrasse 3.70 0.15 1.00
55233 2022-01-17 09:51:32 Terrasse 3.80 0.26 1.00
55232 2022-01-17 08:46:38 Terrasse 3.30 -0.29 1.00
55231 2022-01-17 08:18:25 Terrasse 3.10 -0.51 1.00
55230 2022-01-17 07:50:14 Terrasse 3.10 -0.51 1.00
55229 2022-01-17 07:22:02 Terrasse 3.00 -0.62 1.00
55228 2022-01-17 06:53:53 Terrasse 2.90 -0.73 1.00
55227 2022-01-17 06:25:43 Terrasse 2.80 -0.84 1.00
55226 2022-01-17 05:57:33 Terrasse 2.70 -0.95 1.00
55225 2022-01-17 05:29:33 Terrasse 2.70 -0.95 1.00
55224 2022-01-17 05:01:18 Terrasse 2.50 -1.17 1.00
55223 2022-01-17 04:33:06 Terrasse 2.40 -1.28 1.00
55222 2022-01-17 04:04:56 Terrasse 2.40 -1.28 1.00
55221 2022-01-17 03:36:50 Terrasse 2.40 -1.28 1.00
55220 2022-01-17 03:08:39 Terrasse 2.30 -1.39 1.00
55219 2022-01-17 02:40:28 Terrasse 2.30 -1.39 1.00
55218 2022-01-17 02:12:18 Terrasse 2.20 -1.50 1.00
55217 2022-01-17 01:44:08 Terrasse 2.20 -1.50 1.00
55216 2022-01-17 01:15:59 Terrasse 2.20 -1.50 1.00
55215 2022-01-17 00:47:49 Terrasse 2.20 -1.50 1.00
55214 2022-01-17 00:19:43 Terrasse 2.10 -1.61 1.00
55213 2022-01-16 23:51:34 Terrasse 2.10 -1.61 1.00
55212 2022-01-16 23:23:36 Terrasse 2.10 -1.61 1.00
55211 2022-01-16 22:55:22 Terrasse 2.10 -1.61 1.00
55210 2022-01-16 22:27:13 Terrasse 2.00 -1.72 1.00
55209 2022-01-16 21:59:05 Terrasse 2.00 -1.72 1.00
55208 2022-01-16 21:30:53 Terrasse 2.00 -1.72 1.00
55207 2022-01-16 21:02:46 Terrasse 2.00 -1.72 1.00
55206 2022-01-16 20:34:36 Terrasse 1.90 -1.83 1.00
55205 2022-01-16 20:06:27 Terrasse 1.90 -1.83 1.00
55204 2022-01-16 19:38:17 Terrasse 1.90 -1.83 1.00
55203 2022-01-16 19:10:07 Terrasse 1.90 -1.83 1.00
55202 2022-01-16 18:41:58 Terrasse 1.90 -1.83 1.00
55201 2022-01-16 18:13:48 Terrasse 2.00 -1.72 1.00
55200 2022-01-16 17:45:38 Terrasse 2.00 -1.72 1.00
55199 2022-01-16 17:17:29 Terrasse 2.00 -1.72 1.00
55198 2022-01-16 16:49:17 Terrasse 1.90 -1.83 1.00
55197 2022-01-16 16:21:07 Terrasse 1.90 -1.83 1.00
55196 2022-01-16 15:52:57 Terrasse 1.90 -1.83 1.00
55195 2022-01-16 15:25:07 Terrasse 1.90 -1.83 1.00
55194 2022-01-16 14:56:50 Terrasse 1.90 -1.83 1.00
55193 2022-01-16 14:28:41 Terrasse 1.90 -1.83 1.00
55192 2022-01-16 14:00:30 Terrasse 1.80 -1.94 1.00
55191 2022-01-16 13:32:19 Terrasse 1.70 -2.05 1.00
55190 2022-01-16 13:04:12 Terrasse 1.50 -2.27 1.00
55189 2022-01-16 12:36:03 Terrasse 1.40 -2.38 1.00
55188 2022-01-16 12:07:55 Terrasse 1.40 -2.38 1.00
55187 2022-01-16 11:39:45 Terrasse 1.30 -2.49 1.00
55186 2022-01-16 11:11:34 Terrasse 1.30 -2.49 1.00
55185 2022-01-16 10:43:24 Terrasse 1.20 -2.60 1.00
55184 2022-01-16 10:15:44 Terrasse 1.10 -2.71 1.00
55183 2022-01-16 09:47:21 Terrasse 0.90 -2.93 1.00
55182 2022-01-16 09:19:14 Terrasse 1.00 -2.82 1.00
55181 2022-01-16 08:02:03 Terrasse 0.90 -2.93 1.00
55180 2022-01-16 07:33:54 Terrasse 0.80 -3.04 1.00
55179 2022-01-16 07:05:44 Terrasse 0.70 -3.15 1.00
55178 2022-01-16 06:37:34 Terrasse 0.80 -3.04 1.00
55177 2022-01-16 06:09:25 Terrasse 0.90 -2.93 1.00
55176 2022-01-16 05:41:14 Terrasse 1.00 -2.82 1.00
55175 2022-01-16 05:13:04 Terrasse 1.00 -2.82 1.00
55174 2022-01-16 04:44:56 Terrasse 1.10 -2.71 1.00
55173 2022-01-16 04:16:48 Terrasse 1.20 -2.60 1.00
55172 2022-01-16 03:48:39 Terrasse 1.20 -2.60 1.00
55171 2022-01-16 03:20:29 Terrasse 1.30 -2.49 1.00
55170 2022-01-16 02:52:20 Terrasse 1.50 -2.27 1.00
55169 2022-01-16 02:24:10 Terrasse 1.50 -2.27 1.00
55168 2022-01-16 01:55:59 Terrasse 1.60 -2.16 1.00
55167 2022-01-16 01:27:51 Terrasse 1.70 -2.05 1.00
55166 2022-01-16 00:59:41 Terrasse 1.70 -2.05 1.00
55165 2022-01-16 00:31:31 Terrasse 1.80 -1.94 1.00
55164 2022-01-16 00:03:22 Terrasse 1.80 -1.94 1.00
55163 2022-01-15 23:35:12 Terrasse 1.80 -1.94 1.00
55162 2022-01-15 23:07:03 Terrasse 1.70 -2.05 1.00
55161 2022-01-15 22:38:53 Terrasse 1.80 -1.94 1.00
55160 2022-01-15 22:10:43 Terrasse 1.90 -1.83 1.00
55159 2022-01-15 21:42:33 Terrasse 1.90 -1.83 1.00
55158 2022-01-15 21:14:22 Terrasse 1.90 -1.83 1.00
55157 2022-01-15 20:46:13 Terrasse 1.90 -1.83 1.00
55156 2022-01-15 20:18:03 Terrasse 1.80 -1.94 1.00
55155 2022-01-15 19:49:52 Terrasse 1.80 -1.94 1.00
55154 2022-01-15 19:21:43 Terrasse 1.80 -1.94 1.00
55153 2022-01-15 18:53:32 Terrasse 1.80 -1.94 1.00
55152 2022-01-15 18:25:23 Terrasse 1.90 -1.83 1.00
55151 2022-01-15 17:57:14 Terrasse 1.90 -1.83 1.00
55150 2022-01-15 17:29:03 Terrasse 1.90 -1.83 1.00
55149 2022-01-15 17:00:55 Terrasse 1.90 -1.83 1.00
55148 2022-01-15 16:32:45 Terrasse 1.90 -1.83 1.00
55147 2022-01-15 16:04:35 Terrasse 1.90 -1.83 1.00
55146 2022-01-15 15:36:26 Terrasse 2.00 -1.72 1.00
55145 2022-01-15 15:08:16 Terrasse 2.00 -1.72 1.00
55144 2022-01-15 14:40:07 Terrasse 2.10 -1.61 1.00
55143 2022-01-15 14:11:56 Terrasse 2.10 -1.61 1.00
55142 2022-01-15 13:43:47 Terrasse 2.10 -1.61 1.00
55141 2022-01-15 13:15:36 Terrasse 2.00 -1.72 1.00
55140 2022-01-15 12:47:26 Terrasse 2.00 -1.72 1.00
55139 2022-01-15 12:19:20 Terrasse 1.90 -1.83 1.00
55138 2022-01-15 11:51:07 Terrasse 1.80 -1.94 1.00
55137 2022-01-15 11:22:57 Terrasse 1.70 -2.05 1.00
55136 2022-01-15 10:54:46 Terrasse 1.60 -2.16 1.00
55135 2022-01-15 10:26:42 Terrasse 1.50 -2.27 1.00
55134 2022-01-15 09:58:29 Terrasse 1.40 -2.38 1.00
55133 2022-01-15 09:30:18 Terrasse 1.30 -2.49 1.00
55132 2022-01-15 09:02:08 Terrasse 1.20 -2.60 1.00
55131 2022-01-15 08:33:57 Terrasse 1.20 -2.60 1.00
55130 2022-01-15 08:05:46 Terrasse 1.20 -2.60 1.00
55129 2022-01-15 07:37:37 Terrasse 1.20 -2.60 1.00
55128 2022-01-15 07:09:28 Terrasse 1.10 -2.71 1.00
55127 2022-01-15 06:41:18 Terrasse 1.10 -2.71 1.00
55126 2022-01-15 06:13:10 Terrasse 1.10 -2.71 1.00
55125 2022-01-15 05:45:00 Terrasse 1.10 -2.71 1.00
55124 2022-01-15 05:16:51 Terrasse 1.00 -2.82 1.00
55123 2022-01-15 04:48:41 Terrasse 1.00 -2.82 1.00
55122 2022-01-15 04:20:32 Terrasse 0.90 -2.93 1.00
55121 2022-01-15 03:21:59 Terrasse 0.60 -3.26 1.00
55120 2022-01-15 02:53:48 Terrasse 0.30 -3.59 1.00
55119 2022-01-15 02:25:39 Terrasse 0.20 -3.70 1.00
55118 2022-01-15 01:27:09 Terrasse 0.20 -3.70 1.00
55117 2022-01-15 00:59:00 Terrasse 0.20 -3.70 1.00
55116 2022-01-15 00:00:32 Terrasse 0.00 -3.92 1.00
55115 2022-01-14 23:32:24 Terrasse 0.10 -3.81 1.00
55114 2022-01-14 23:04:16 Terrasse 0.20 -3.70 1.00
55113 2022-01-14 22:36:09 Terrasse 0.30 -1.01 99.90
55112 2022-01-14 22:08:01 Terrasse 0.40 -0.90 99.90
55111 2022-01-14 21:39:54 Terrasse 0.40 -3.48 1.00
55110 2022-01-14 21:11:46 Terrasse 0.60 -3.26 1.00
55109 2022-01-14 20:43:38 Terrasse 0.60 -3.26 1.00
55108 2022-01-14 20:15:32 Terrasse 0.90 -2.93 1.00
55107 2022-01-14 19:47:23 Terrasse 1.10 -0.13 99.90
55106 2022-01-14 19:19:15 Terrasse 1.20 -2.60 1.00
55105 2022-01-14 18:51:07 Terrasse 1.30 -2.49 1.00
55104 2022-01-14 18:23:01 Terrasse 1.40 -2.38 1.00
55103 2022-01-14 17:54:55 Terrasse 1.70 -2.05 1.00
55102 2022-01-14 17:26:48 Terrasse 1.90 -1.83 1.00
55101 2022-01-14 16:58:40 Terrasse 1.70 -2.05 1.00
55100 2022-01-14 16:30:34 Terrasse 2.30 1.19 99.90
55099 2022-01-14 16:02:32 Terrasse 3.00 1.96 99.90
55098 2022-01-14 15:34:31 Terrasse 4.20 0.70 1.00
55097 2022-01-14 15:06:41 Terrasse 6.80 6.14 99.90
55096 2022-01-14 14:38:55 Terrasse 11.70 11.53 99.90
55095 2022-01-14 14:10:22 Terrasse 10.70 10.43 99.90
55094 2022-01-14 13:41:56 Terrasse 5.30 1.91 1.00
55093 2022-01-14 13:13:41 Terrasse 4.30 1.73 36.30
55092 2022-01-14 12:45:29 Terrasse 3.50 2.51 99.90
55091 2022-01-14 12:17:26 Terrasse 4.60 3.72 99.90
55090 2022-01-14 11:49:39 Terrasse 7.60 4.44 1.00
55089 2022-01-14 11:20:34 Terrasse 2.30 -1.39 1.00
55088 2022-01-14 10:52:19 Terrasse 1.10 -2.71 1.00
55087 2022-01-14 10:24:06 Terrasse 0.40 -3.48 1.00
55086 2022-01-14 09:55:52 Terrasse -0.30 -4.25 1.00
55085 2022-01-14 09:27:43 Terrasse -0.90 -4.91 1.00
55084 2022-01-14 08:59:34 Terrasse -1.00 -5.02 1.00
55083 2022-01-14 08:31:26 Terrasse -1.00 -5.02 1.00
55082 2022-01-14 08:03:21 Terrasse -0.90 -4.91 1.00
55081 2022-01-14 07:35:14 Terrasse -0.70 -4.69 1.00
55080 2022-01-14 07:07:06 Terrasse -0.60 -4.58 1.00
55079 2022-01-14 06:38:57 Terrasse -0.60 -4.58 1.00
55078 2022-01-14 06:10:49 Terrasse -0.70 -4.69 1.00
55077 2022-01-14 05:42:42 Terrasse -0.50 -4.47 1.00
55076 2022-01-14 05:14:34 Terrasse -0.40 -4.36 1.00
55075 2022-01-14 04:46:26 Terrasse -0.30 -4.25 1.00
55074 2022-01-14 04:18:18 Terrasse -0.10 -4.03 1.00
55073 2022-01-14 03:50:12 Terrasse 0.00 -3.92 1.00
55072 2022-01-14 03:22:04 Terrasse 0.10 -3.81 1.00
55071 2022-01-14 02:53:54 Terrasse 0.00 -3.92 1.00
55070 2022-01-14 02:25:46 Terrasse -0.10 -4.03 1.00
55069 2022-01-14 01:57:41 Terrasse 0.20 -3.70 1.00
55068 2022-01-14 01:29:33 Terrasse 0.20 -3.70 1.00
55067 2022-01-14 01:01:25 Terrasse 0.30 -3.59 1.00
55066 2022-01-14 00:33:18 Terrasse 0.40 -3.48 1.00
55065 2022-01-14 00:05:11 Terrasse 0.60 -3.26 1.00
55064 2022-01-13 23:37:04 Terrasse 0.70 -3.15 1.00
55063 2022-01-13 23:08:53 Terrasse 0.60 -3.26 1.00
55062 2022-01-13 22:40:44 Terrasse 0.70 -3.15 1.00
55061 2022-01-13 22:12:35 Terrasse 0.70 -3.15 1.00
55060 2022-01-13 21:44:26 Terrasse 0.80 -3.04 1.00
55059 2022-01-13 21:16:17 Terrasse 0.90 -2.93 1.00
55058 2022-01-13 20:48:10 Terrasse 1.00 -2.82 1.00
55057 2022-01-13 20:20:03 Terrasse 1.30 -2.49 1.00
55056 2022-01-13 19:51:54 Terrasse 1.30 -2.49 1.00
55055 2022-01-13 19:23:45 Terrasse 1.30 -2.49 1.00
55054 2022-01-13 18:55:37 Terrasse 1.40 -2.38 1.00
55053 2022-01-13 18:27:29 Terrasse 1.60 -2.16 1.00
55052 2022-01-13 17:59:20 Terrasse 1.60 -2.16 1.00
55051 2022-01-13 17:31:13 Terrasse 1.80 -1.94 1.00
55050 2022-01-13 17:03:05 Terrasse 1.90 -1.83 1.00
55049 2022-01-13 16:35:05 Terrasse 2.00 -1.72 1.00
55048 2022-01-13 16:07:09 Terrasse 2.20 -1.50 1.00
55047 2022-01-13 15:38:57 Terrasse 2.20 -1.50 1.00
55046 2022-01-13 15:10:49 Terrasse 2.20 -1.50 1.00
55045 2022-01-13 14:42:40 Terrasse 2.30 -1.39 1.00
55044 2022-01-13 14:14:31 Terrasse 2.40 1.30 99.90
55043 2022-01-13 13:46:22 Terrasse 2.50 1.41 99.90
55042 2022-01-13 13:18:13 Terrasse 2.10 0.97 99.90
55041 2022-01-13 12:52:05 Terrasse 1.90 -1.83 1.00
55040 2022-01-13 12:19:22 Terrasse 1.80 0.64 99.90
55039 2022-01-13 11:51:12 Terrasse 1.80 0.64 99.90
55038 2022-01-13 11:23:02 Terrasse 1.50 0.31 99.90
55037 2022-01-13 10:54:54 Terrasse 1.60 0.42 99.90
55036 2022-01-13 10:26:43 Terrasse 1.20 -2.60 1.00
55035 2022-01-13 09:58:35 Terrasse 0.90 -2.93 1.00
55034 2022-01-13 09:32:57 Terrasse 1.00 -0.24 99.90
55033 2022-01-13 08:36:05 Terrasse 0.60 -3.26 1.00
55032 2022-01-13 08:07:58 Terrasse 0.60 -3.26 1.00
55031 2022-01-13 07:39:51 Terrasse 0.70 -3.15 1.00
55030 2022-01-13 07:11:42 Terrasse 0.60 -3.26 1.00
55029 2022-01-13 06:43:34 Terrasse 0.70 -3.15 1.00
55028 2022-01-13 06:15:26 Terrasse 0.80 -3.04 1.00
55027 2022-01-13 05:47:19 Terrasse 0.90 -2.93 1.00
55026 2022-01-13 05:19:12 Terrasse 1.10 -2.71 1.00
55025 2022-01-13 04:51:05 Terrasse 1.10 -2.71 1.00
55024 2022-01-13 04:22:56 Terrasse 1.00 -2.82 1.00
55023 2022-01-13 03:54:46 Terrasse 0.80 -3.04 1.00
55022 2022-01-13 03:26:37 Terrasse 0.60 -0.68 99.90
55021 2022-01-13 02:58:28 Terrasse 0.30 -1.01 99.90
55020 2022-01-13 02:30:20 Terrasse 0.20 -1.12 99.90
55019 2022-01-13 02:02:13 Terrasse 0.40 -0.90 99.90
55018 2022-01-13 01:34:06 Terrasse 0.40 -0.90 99.90
55017 2022-01-13 01:05:59 Terrasse 0.60 -0.68 99.90
55016 2022-01-13 00:37:52 Terrasse 0.60 -0.68 99.90
55015 2022-01-13 00:09:45 Terrasse 0.80 -0.46 99.90
55014 2022-01-12 23:41:38 Terrasse 1.00 -0.24 99.90
55013 2022-01-12 23:13:31 Terrasse 1.10 -0.13 99.90
55012 2022-01-12 22:45:27 Terrasse 1.20 -0.02 99.90
55011 2022-01-12 22:17:23 Terrasse 1.50 0.31 99.90
55010 2022-01-12 21:49:16 Terrasse 1.60 -0.39 68.90
55009 2022-01-12 21:21:10 Terrasse 1.70 -0.23 70.70
55008 2022-01-12 20:53:01 Terrasse 1.90 -0.50 51.70
55007 2022-01-12 20:24:58 Terrasse 2.20 -0.45 41.10
55006 2022-01-12 19:57:05 Terrasse 2.40 -1.28 1.00
55005 2022-01-12 19:29:10 Terrasse 2.80 -0.84 1.00
55004 2022-01-12 19:01:04 Terrasse 3.20 -0.40 1.00
55003 2022-01-12 18:32:57 Terrasse 3.60 0.04 1.00
55002 2022-01-12 18:04:51 Terrasse 4.10 2.34 67.80
55001 2022-01-12 17:36:48 Terrasse 4.30 0.81 1.00
55000 2022-01-12 17:08:40 Terrasse 4.50 1.03 1.00
54999 2022-01-12 16:40:35 Terrasse 4.80 1.36 1.00
54998 2022-01-12 16:12:27 Terrasse 5.00 1.58 1.00
54997 2022-01-12 15:44:23 Terrasse 5.40 4.60 99.90
54996 2022-01-12 15:16:17 Terrasse 6.00 5.26 99.90
54995 2022-01-12 14:48:11 Terrasse 6.10 5.37 99.90
54994 2022-01-12 14:20:04 Terrasse 6.20 5.48 99.90
54993 2022-01-12 13:52:03 Terrasse 7.30 6.69 99.90
54992 2022-01-12 13:23:49 Terrasse 7.00 6.36 99.90
54991 2022-01-12 12:55:36 Terrasse 6.20 5.48 99.90
54990 2022-01-12 12:27:23 Terrasse 5.30 1.91 1.00
54989 2022-01-12 11:59:22 Terrasse 5.70 4.93 99.90
54988 2022-01-12 11:31:21 Terrasse 6.40 3.12 1.00
54987 2022-01-12 11:02:59 Terrasse 3.30 -0.29 1.00
54986 2022-01-12 10:34:52 Terrasse 2.90 1.85 99.90
54985 2022-01-12 10:07:03 Terrasse 2.40 0.22 58.30
54984 2022-01-12 09:08:38 Terrasse 1.50 -1.16 43.50
54983 2022-01-12 08:40:35 Terrasse 1.60 0.42 99.90
54982 2022-01-12 08:12:32 Terrasse 1.70 0.53 99.90
54981 2022-01-12 07:44:21 Terrasse 1.80 0.64 99.90
54980 2022-01-12 07:16:14 Terrasse 1.80 0.64 99.90
54979 2022-01-12 06:48:06 Terrasse 1.80 -0.32 63.00
54978 2022-01-12 06:20:16 Terrasse 1.80 0.64 99.90
54977 2022-01-12 05:52:05 Terrasse 1.80 0.46 92.90
54976 2022-01-12 05:23:57 Terrasse 1.80 -1.28 26.10
54975 2022-01-12 04:56:05 Terrasse 1.60 -2.16 1.00
54974 2022-01-12 04:28:38 Terrasse 1.80 -1.94 1.00
54973 2022-01-12 04:00:28 Terrasse 1.90 -1.83 1.00
54972 2022-01-12 03:32:21 Terrasse 2.30 -1.39 1.00
54971 2022-01-12 03:04:12 Terrasse 2.30 -1.39 1.00
54970 2022-01-12 02:36:10 Terrasse 2.60 -1.06 1.00
54969 2022-01-12 02:08:03 Terrasse 2.80 -0.84 1.00
54968 2022-01-12 01:39:56 Terrasse 3.00 -0.62 1.00
54967 2022-01-12 01:11:50 Terrasse 3.00 -0.62 1.00
54966 2022-01-12 00:43:42 Terrasse 3.00 -0.62 1.00
54965 2022-01-12 00:15:36 Terrasse 3.20 -0.40 1.00
54964 2022-01-11 23:47:32 Terrasse 3.20 -0.40 1.00
54963 2022-01-11 23:19:23 Terrasse 3.30 -0.29 1.00
54962 2022-01-11 22:51:16 Terrasse 3.30 -0.29 1.00
54961 2022-01-11 22:23:22 Terrasse 3.40 -0.18 1.00
54960 2022-01-11 21:55:11 Terrasse 3.40 -0.18 1.00
54959 2022-01-11 21:27:11 Terrasse 3.50 2.51 99.90
54958 2022-01-11 20:59:01 Terrasse 3.60 2.15 81.80
54957 2022-01-11 20:31:02 Terrasse 3.60 2.62 99.90
54956 2022-01-11 20:02:57 Terrasse 3.60 0.04 1.00
54955 2022-01-11 19:35:22 Terrasse 3.70 0.15 1.00
54954 2022-01-11 19:07:02 Terrasse 3.70 2.73 99.90
54953 2022-01-11 18:39:15 Terrasse 3.70 2.73 99.90
54952 2022-01-11 18:11:00 Terrasse 3.80 0.26 1.00
54951 2022-01-11 17:42:52 Terrasse 3.90 0.37 1.00
54950 2022-01-11 17:14:47 Terrasse 4.00 0.48 1.00
54949 2022-01-11 16:46:42 Terrasse 4.30 0.81 1.00
54948 2022-01-11 16:19:07 Terrasse 4.60 3.72 99.90
54947 2022-01-11 15:50:48 Terrasse 4.90 1.47 1.00
54946 2022-01-11 15:22:43 Terrasse 5.30 1.91 1.00
54945 2022-01-11 14:54:38 Terrasse 6.10 5.37 99.90
54944 2022-01-11 14:26:29 Terrasse 5.80 5.04 99.90
54943 2022-01-11 13:58:22 Terrasse 5.80 5.04 99.90
54942 2022-01-11 13:30:19 Terrasse 6.00 4.17 58.00
54941 2022-01-11 13:02:21 Terrasse 6.50 4.24 39.50
54940 2022-01-11 12:34:48 Terrasse 11.10 10.10 70.10
54939 2022-01-11 12:07:38 Terrasse 20.70 20.48 63.30
54938 2022-01-11 12:06:45 Terrasse 20.70 21.43 99.90
54937 2022-01-09 01:41:06 Terrasse 2.40 -1.28 1.00
54936 2022-01-09 00:23:52 Terrasse 2.10 -1.61 1.00
54935 2022-01-08 18:34:49 Terrasse 1.90 -1.83 1.00
54934 2022-01-08 16:25:27 Terrasse 2.10 -1.61 1.00
54933 2022-01-08 15:50:05 Terrasse 2.10 -1.61 1.00
54932 2022-01-08 15:12:31 Terrasse 2.10 -1.61 1.00
54931 2022-01-08 14:02:41 Terrasse 2.80 1.74 99.90
54930 2022-01-08 13:36:36 Terrasse 2.80 -0.84 1.00
54929 2022-01-08 11:20:08 Terrasse 1.90 -1.83 1.00
54928 2022-01-08 10:51:59 Terrasse 1.70 -2.05 1.00
54927 2022-01-08 10:25:45 Terrasse 1.60 -2.16 1.00
54926 2022-01-08 09:54:28 Terrasse 1.60 -2.16 1.00
54925 2022-01-08 09:18:23 Terrasse 1.40 -2.38 1.00
54924 2022-01-08 08:50:10 Terrasse 1.50 -2.27 1.00
54923 2022-01-08 08:21:58 Terrasse 1.50 -2.27 1.00
54922 2022-01-08 07:53:44 Terrasse 1.50 -2.27 1.00
54921 2022-01-08 07:25:32 Terrasse 1.50 -2.27 1.00
54920 2022-01-08 06:57:20 Terrasse 1.50 -2.27 1.00
54919 2022-01-08 06:29:06 Terrasse 1.60 -2.16 1.00
54918 2022-01-08 06:01:24 Terrasse 1.60 -2.16 1.00
54917 2022-01-08 05:33:44 Terrasse 1.60 -2.16 1.00
54916 2022-01-08 05:05:37 Terrasse 1.80 -1.94 1.00
54915 2022-01-08 04:37:34 Terrasse 1.70 -2.05 1.00
54914 2022-01-08 04:10:09 Terrasse 1.70 -2.05 1.00
54913 2022-01-08 03:41:48 Terrasse 1.70 -2.05 1.00
54912 2022-01-08 03:13:48 Terrasse 1.70 -2.05 1.00
54911 2022-01-08 02:46:09 Terrasse 1.70 -2.05 1.00
54910 2022-01-08 02:18:01 Terrasse 1.60 -2.16 1.00
54909 2022-01-08 01:50:17 Terrasse 1.70 -2.05 1.00
54908 2022-01-08 01:22:15 Terrasse 1.70 -2.05 1.00
54907 2022-01-08 00:54:24 Terrasse 1.50 -2.27 1.00
54906 2022-01-08 00:26:32 Terrasse 1.70 -2.05 1.00
54905 2022-01-07 23:58:01 Terrasse 1.90 -1.83 1.00
54904 2022-01-07 23:29:50 Terrasse 1.90 -1.83 1.00
54903 2022-01-07 23:01:37 Terrasse 1.90 -1.83 1.00
54902 2022-01-07 22:33:24 Terrasse 1.80 -1.94 1.00
54901 2022-01-07 22:05:12 Terrasse 1.70 -2.05 1.00
54900 2022-01-07 21:36:59 Terrasse 1.70 -2.05 1.00
54899 2022-01-07 21:08:45 Terrasse 1.60 -2.16 1.00
54898 2022-01-07 20:40:32 Terrasse 1.60 -2.16 1.00
54897 2022-01-07 20:12:18 Terrasse 1.60 -2.16 1.00
54896 2022-01-07 19:44:05 Terrasse 1.60 -2.16 1.00
54895 2022-01-07 19:15:52 Terrasse 1.60 -2.16 1.00
54894 2022-01-07 18:47:39 Terrasse 1.60 -2.16 1.00
54893 2022-01-07 18:19:27 Terrasse 1.60 -2.16 1.00
54892 2022-01-07 17:51:14 Terrasse 1.60 -2.16 1.00
54891 2022-01-07 17:23:02 Terrasse 1.60 -2.16 1.00
54890 2022-01-07 16:54:48 Terrasse 1.60 -2.16 1.00
54889 2022-01-07 16:26:36 Terrasse 1.70 -2.05 1.00
54888 2022-01-07 15:58:23 Terrasse 1.70 -2.05 1.00
54887 2022-01-07 15:30:10 Terrasse 1.70 -2.05 1.00
54886 2022-01-07 15:01:57 Terrasse 1.60 -2.16 1.00
54885 2022-01-07 14:33:43 Terrasse 1.50 -2.27 1.00
54884 2022-01-07 14:05:29 Terrasse 1.40 -2.38 1.00
54883 2022-01-07 13:37:16 Terrasse 1.40 -2.38 1.00
54882 2022-01-07 13:09:02 Terrasse 1.30 -2.49 1.00
54881 2022-01-07 12:40:49 Terrasse 1.40 -2.38 1.00
54880 2022-01-07 12:12:37 Terrasse 1.30 -2.49 1.00
54879 2022-01-07 11:44:24 Terrasse 1.20 -2.60 1.00
54878 2022-01-07 11:16:10 Terrasse 1.10 -2.71 1.00
54877 2022-01-07 10:47:56 Terrasse 1.10 -2.71 1.00
54876 2022-01-07 10:19:43 Terrasse 1.00 -2.82 1.00
54875 2022-01-07 09:51:30 Terrasse 1.00 -2.82 1.00
54874 2022-01-07 09:23:17 Terrasse 1.00 -2.82 1.00
54873 2022-01-07 08:55:04 Terrasse 1.00 -2.82 1.00
54872 2022-01-07 08:26:52 Terrasse 1.00 -2.82 1.00
54871 2022-01-07 07:58:39 Terrasse 1.10 -2.71 1.00
54870 2022-01-07 07:30:26 Terrasse 1.10 -2.71 1.00
54869 2022-01-07 07:02:12 Terrasse 1.10 -2.71 1.00
54868 2022-01-07 06:34:01 Terrasse 1.10 -2.71 1.00
54867 2022-01-07 06:05:49 Terrasse 1.20 -2.60 1.00
54866 2022-01-07 05:37:35 Terrasse 1.20 -2.60 1.00
54865 2022-01-07 05:09:22 Terrasse 1.20 -2.60 1.00
54864 2022-01-07 04:41:09 Terrasse 1.20 -2.60 1.00
54863 2022-01-07 04:12:57 Terrasse 1.20 -2.60 1.00
54862 2022-01-07 03:44:44 Terrasse 1.20 -2.60 1.00
54861 2022-01-07 03:16:32 Terrasse 1.20 -2.60 1.00
54860 2022-01-07 02:48:19 Terrasse 1.20 -2.60 1.00
54859 2022-01-07 02:20:07 Terrasse 1.30 -2.49 1.00
54858 2022-01-07 01:51:54 Terrasse 1.30 -2.49 1.00
54857 2022-01-07 01:23:41 Terrasse 1.30 -2.49 1.00
54856 2022-01-07 00:55:27 Terrasse 0.90 -0.35 99.90
54855 2022-01-07 00:27:15 Terrasse 1.00 -0.24 99.90
54854 2022-01-06 23:59:22 Terrasse 1.10 -0.13 99.90
54853 2022-01-06 23:31:03 Terrasse 1.30 0.09 99.90
54852 2022-01-06 23:02:51 Terrasse 1.30 0.09 99.90
54851 2022-01-06 22:34:38 Terrasse 1.60 0.42 99.90
54850 2022-01-06 22:06:25 Terrasse 1.70 0.53 99.90
54849 2022-01-06 21:38:12 Terrasse 1.80 0.64 99.90
54848 2022-01-06 21:10:01 Terrasse 1.90 0.75 99.90
54847 2022-01-06 20:41:49 Terrasse 2.10 0.97 99.90
54846 2022-01-06 20:13:38 Terrasse 2.20 0.61 81.60
54845 2022-01-06 19:45:25 Terrasse 2.50 -0.45 28.60
54844 2022-01-06 19:17:14 Terrasse 2.70 -0.95 1.00
54843 2022-01-06 18:49:01 Terrasse 2.90 -0.73 1.00
54842 2022-01-06 18:20:48 Terrasse 3.30 -0.29 1.00
54841 2022-01-06 17:54:05 Terrasse 3.60 2.62 99.90
54840 2022-01-06 15:57:42 Terrasse 7.10 6.47 99.90
54839 2022-01-06 15:00:34 Terrasse 12.50 10.13 12.30
54838 2022-01-06 14:29:33 Terrasse 16.00 14.25 22.70
54837 2022-01-06 13:22:01 Terrasse 6.00 2.68 1.00
54836 2022-01-06 12:43:01 Terrasse 6.00 2.68 1.00
54835 2022-01-06 12:14:45 Terrasse 5.70 4.93 99.90
54834 2022-01-06 11:06:17 Terrasse 3.80 2.84 99.90
54833 2022-01-06 07:10:58 Terrasse 3.40 2.40 99.90
54832 2022-01-06 06:45:12 Terrasse 3.70 2.73 99.90
54831 2022-01-06 04:50:34 Terrasse 3.40 -0.18 1.00
54830 2022-01-06 04:18:56 Terrasse 3.60 0.04 1.00
54829 2022-01-06 03:47:14 Terrasse 3.70 0.15 1.00
54828 2022-01-06 03:15:56 Terrasse 4.00 0.48 1.00
54827 2022-01-06 02:45:38 Terrasse 4.40 0.92 1.00
54826 2022-01-05 23:35:13 Terrasse 3.40 -0.18 1.00
54825 2022-01-05 23:06:59 Terrasse 3.40 -0.18 1.00
54824 2022-01-05 22:38:45 Terrasse 3.30 -0.29 1.00
54823 2022-01-05 22:10:32 Terrasse 3.40 -0.18 1.00
54822 2022-01-05 21:42:19 Terrasse 3.50 -0.07 1.00
54821 2022-01-05 21:14:06 Terrasse 3.40 -0.18 1.00
54820 2022-01-05 20:45:54 Terrasse 3.40 2.40 99.90
54819 2022-01-05 20:17:41 Terrasse 3.30 -0.29 1.00
54818 2022-01-05 19:49:28 Terrasse 3.30 2.29 99.90
54817 2022-01-05 19:21:47 Terrasse 3.30 2.29 99.90
54816 2022-01-05 18:52:53 Terrasse 3.30 2.29 99.90
54815 2022-01-05 18:24:10 Terrasse 3.30 2.29 99.90
54814 2022-01-05 17:56:32 Terrasse 3.20 2.18 99.90
54813 2022-01-05 17:27:48 Terrasse 3.20 2.18 99.90
54812 2022-01-05 16:59:35 Terrasse 3.30 -0.29 1.00
54811 2022-01-05 16:31:23 Terrasse 3.30 -0.29 1.00
54810 2022-01-05 16:03:11 Terrasse 3.40 -0.18 1.00
54809 2022-01-05 15:35:02 Terrasse 3.40 -0.18 1.00
54808 2022-01-05 15:07:08 Terrasse 3.50 2.51 99.90
54807 2022-01-05 14:38:42 Terrasse 3.50 2.51 99.90
54806 2022-01-05 14:10:03 Terrasse 3.40 0.32 20.20
54805 2022-01-05 13:41:48 Terrasse 3.40 2.40 99.90
54804 2022-01-05 13:13:50 Terrasse 3.70 2.73 99.90
54803 2022-01-05 12:45:27 Terrasse 3.10 -0.51 1.00
54802 2022-01-05 12:17:13 Terrasse 2.90 -0.73 1.00
54801 2022-01-05 11:49:00 Terrasse 2.60 -1.06 1.00
54800 2022-01-05 11:20:47 Terrasse 2.50 -0.93 10.30
54799 2022-01-05 10:52:40 Terrasse 2.50 -1.17 1.00
54798 2022-01-05 10:24:27 Terrasse 2.50 -0.97 8.50
54797 2022-01-05 09:56:12 Terrasse 2.20 -1.50 1.00
54796 2022-01-05 09:28:00 Terrasse 2.20 1.08 99.90
54795 2022-01-05 08:59:48 Terrasse 2.10 -1.61 1.00
54794 2022-01-05 08:31:36 Terrasse 2.20 1.08 99.90
54793 2022-01-05 08:03:28 Terrasse 2.30 -1.39 1.00
54792 2022-01-05 07:35:14 Terrasse 2.40 -0.23 41.00
54791 2022-01-05 07:07:04 Terrasse 2.70 1.63 99.90
54790 2022-01-05 06:38:52 Terrasse 2.90 1.85 99.90
54789 2022-01-05 06:10:40 Terrasse 3.00 -0.62 1.00
54788 2022-01-05 05:42:29 Terrasse 3.20 -0.40 1.00
54787 2022-01-05 05:14:30 Terrasse 3.50 -0.07 1.00
54786 2022-01-05 04:46:15 Terrasse 3.70 0.15 1.00
54785 2022-01-05 04:18:15 Terrasse 4.00 0.48 1.00
54784 2022-01-05 03:50:00 Terrasse 4.30 0.81 1.00
54783 2022-01-05 03:21:51 Terrasse 5.00 1.58 1.00
54782 2022-01-05 02:53:42 Terrasse 5.80 2.46 1.00
54781 2022-01-05 02:25:41 Terrasse 5.90 2.57 1.00
54780 2022-01-05 01:57:24 Terrasse 5.90 2.57 1.00
54779 2022-01-05 01:29:10 Terrasse 5.90 2.57 1.00
54778 2022-01-05 01:00:57 Terrasse 5.90 2.57 1.00
54777 2022-01-05 00:32:42 Terrasse 5.90 2.57 1.00
54776 2022-01-05 00:04:28 Terrasse 5.90 2.57 1.00
54775 2022-01-04 23:36:15 Terrasse 5.90 2.57 1.00
54774 2022-01-04 23:08:02 Terrasse 5.90 2.57 1.00
54773 2022-01-04 22:39:49 Terrasse 5.90 2.57 1.00
54772 2022-01-04 22:11:37 Terrasse 6.00 2.68 1.00
54771 2022-01-04 21:43:23 Terrasse 6.00 2.68 1.00
54770 2022-01-04 21:15:11 Terrasse 6.00 2.68 1.00
54769 2022-01-04 20:46:58 Terrasse 6.00 2.68 1.00
54768 2022-01-04 20:18:45 Terrasse 6.00 2.68 1.00
54767 2022-01-04 19:50:33 Terrasse 6.00 2.68 1.00
54766 2022-01-04 19:22:19 Terrasse 6.10 2.79 1.00
54765 2022-01-04 18:54:06 Terrasse 6.10 2.79 1.00
54764 2022-01-04 18:25:54 Terrasse 6.10 2.79 1.00
54763 2022-01-04 17:57:41 Terrasse 6.20 2.90 1.00
54762 2022-01-04 17:29:28 Terrasse 6.30 3.01 1.00
54761 2022-01-04 17:01:16 Terrasse 6.30 3.01 1.00
54760 2022-01-04 16:33:03 Terrasse 6.40 3.12 1.00
54759 2022-01-04 16:04:51 Terrasse 6.50 3.23 1.00
54758 2022-01-04 15:36:39 Terrasse 6.60 3.34 1.00
54757 2022-01-04 15:08:26 Terrasse 6.70 3.45 1.00
54756 2022-01-04 14:40:15 Terrasse 6.70 3.45 1.00
54755 2022-01-04 14:12:01 Terrasse 6.80 3.56 1.00
54754 2022-01-04 13:43:49 Terrasse 7.00 3.78 1.00
54753 2022-01-04 13:15:36 Terrasse 7.00 3.78 1.00
54752 2022-01-04 12:47:23 Terrasse 7.10 3.89 1.00
54751 2022-01-04 12:19:11 Terrasse 7.10 3.89 1.00
54750 2022-01-04 11:50:59 Terrasse 7.40 4.22 1.00
54749 2022-01-04 11:22:48 Terrasse 7.60 4.44 1.00
54748 2022-01-04 10:54:36 Terrasse 7.70 4.55 1.00
54747 2022-01-04 10:26:23 Terrasse 7.80 4.66 1.00
54746 2022-01-04 09:58:16 Terrasse 7.90 4.77 1.00
54745 2022-01-04 09:31:31 Terrasse 7.90 4.77 1.00
54744 2022-01-04 09:01:41 Terrasse 7.90 4.77 1.00
54743 2022-01-04 08:33:29 Terrasse 7.90 4.77 1.00
54742 2022-01-04 08:05:15 Terrasse 8.00 4.88 1.00
54741 2022-01-04 07:37:01 Terrasse 8.10 4.99 1.00
54740 2022-01-04 07:08:48 Terrasse 8.20 5.10 1.00
54739 2022-01-04 06:40:35 Terrasse 8.40 5.32 1.00
54738 2022-01-04 06:12:23 Terrasse 8.40 5.32 1.00
54737 2022-01-04 05:44:10 Terrasse 8.40 5.61 12.00
54736 2022-01-04 05:15:56 Terrasse 8.40 5.55 9.70
54735 2022-01-04 04:47:43 Terrasse 8.30 5.24 2.00
54734 2022-01-04 04:19:30 Terrasse 8.20 5.10 1.00
54733 2022-01-04 03:51:17 Terrasse 8.20 5.10 1.00
54732 2022-01-04 03:23:04 Terrasse 8.20 5.10 1.00
54731 2022-01-04 02:54:50 Terrasse 8.20 5.10 1.00
54730 2022-01-04 02:26:36 Terrasse 8.20 5.10 1.00
54729 2022-01-04 01:58:22 Terrasse 8.20 5.10 1.00
54728 2022-01-04 01:30:09 Terrasse 8.30 5.21 1.00
54727 2022-01-04 01:01:56 Terrasse 8.30 5.21 1.00
54726 2022-01-04 00:33:42 Terrasse 8.30 5.21 1.00
54725 2022-01-04 00:05:28 Terrasse 8.20 5.10 1.00
54724 2022-01-03 23:37:15 Terrasse 8.20 5.10 1.00
54723 2022-01-03 23:09:00 Terrasse 8.30 5.21 1.00
54722 2022-01-03 22:40:48 Terrasse 8.30 5.21 1.00
54721 2022-01-03 22:12:34 Terrasse 8.20 5.10 1.00
54720 2022-01-03 21:44:21 Terrasse 8.30 5.21 1.00
54719 2022-01-03 21:16:08 Terrasse 8.30 5.21 1.00
54718 2022-01-03 20:47:55 Terrasse 8.30 5.21 1.00
54717 2022-01-03 20:19:44 Terrasse 8.40 5.32 1.00
54716 2022-01-03 19:51:31 Terrasse 8.40 5.32 1.00
54715 2022-01-03 19:23:16 Terrasse 8.40 5.32 1.00
54714 2022-01-03 18:55:03 Terrasse 8.50 5.43 1.00
54713 2022-01-03 18:26:52 Terrasse 8.50 5.43 1.00
54712 2022-01-03 17:58:39 Terrasse 8.60 5.54 1.00
54711 2022-01-03 17:30:26 Terrasse 8.70 5.65 1.00
54710 2022-01-03 17:02:13 Terrasse 8.70 5.65 1.00
54709 2022-01-03 16:34:00 Terrasse 8.80 5.76 1.00
54708 2022-01-03 16:05:47 Terrasse 9.00 5.98 1.00
54707 2022-01-03 15:37:36 Terrasse 9.30 8.89 99.90
54706 2022-01-03 15:09:22 Terrasse 9.10 8.67 99.90
54705 2022-01-03 14:41:09 Terrasse 9.10 6.09 1.00
54704 2022-01-03 14:12:57 Terrasse 9.40 6.42 1.00
54703 2022-01-03 13:44:41 Terrasse 8.60 5.54 1.00
54702 2022-01-03 13:16:26 Terrasse 8.40 5.32 1.00
54701 2022-01-03 12:48:12 Terrasse 8.40 5.32 1.00
54700 2022-01-03 12:19:59 Terrasse 8.30 5.21 1.00
54699 2022-01-03 11:51:46 Terrasse 8.50 5.43 1.00
54698 2022-01-03 11:23:33 Terrasse 8.70 5.65 1.00
54697 2022-01-03 10:55:19 Terrasse 8.70 5.65 1.00
54696 2022-01-03 10:27:01 Terrasse 8.00 4.88 1.00
54695 2022-01-03 09:58:46 Terrasse 7.80 4.66 1.00
54694 2022-01-03 09:30:31 Terrasse 7.60 4.44 1.00
54693 2022-01-03 09:02:19 Terrasse 7.50 4.33 1.00
54692 2022-01-03 08:34:05 Terrasse 7.50 4.33 1.00
54691 2022-01-03 08:05:53 Terrasse 7.50 4.33 1.00
54690 2022-01-03 07:37:39 Terrasse 7.50 4.33 1.00
54689 2022-01-03 07:09:27 Terrasse 7.60 4.44 1.00
54688 2022-01-03 06:41:16 Terrasse 7.70 4.55 1.00
54687 2022-01-03 06:13:03 Terrasse 7.90 4.77 1.00
54686 2022-01-03 05:44:50 Terrasse 8.00 4.88 1.00
54685 2022-01-03 05:16:38 Terrasse 8.20 5.10 1.00
54684 2022-01-03 04:48:26 Terrasse 8.30 5.21 1.00
54683 2022-01-03 04:20:15 Terrasse 8.20 5.10 1.00
54682 2022-01-03 03:52:03 Terrasse 8.30 5.21 1.00
54681 2022-01-03 03:23:50 Terrasse 8.40 5.32 1.00
54680 2022-01-03 02:55:37 Terrasse 8.50 5.43 1.00
54679 2022-01-03 02:27:25 Terrasse 8.70 5.65 1.00
54678 2022-01-03 01:59:12 Terrasse 8.70 5.65 1.00
54677 2022-01-03 01:30:59 Terrasse 8.70 5.65 1.00
54676 2022-01-03 01:02:48 Terrasse 8.60 5.54 1.00
54675 2022-01-03 00:34:36 Terrasse 8.60 5.54 1.00
54674 2022-01-03 00:06:23 Terrasse 8.70 5.65 1.00
54673 2022-01-02 23:38:16 Terrasse 9.60 6.64 1.00
54672 2022-01-02 23:10:02 Terrasse 9.70 6.75 1.00
54671 2022-01-02 22:41:48 Terrasse 9.50 6.53 1.00
54670 2022-01-02 22:13:32 Terrasse 9.40 6.42 1.00
54669 2022-01-02 21:45:19 Terrasse 9.30 6.31 1.00
54668 2022-01-02 21:17:06 Terrasse 9.30 6.31 1.00
54667 2022-01-02 20:48:53 Terrasse 9.30 6.31 1.00
54666 2022-01-02 20:20:45 Terrasse 9.40 6.42 1.00
54665 2022-01-02 19:52:39 Terrasse 9.40 6.42 1.00
54664 2022-01-02 19:24:33 Terrasse 9.40 6.42 1.00
54663 2022-01-02 18:56:26 Terrasse 9.40 6.42 1.00
54662 2022-01-02 18:28:19 Terrasse 9.30 6.31 1.00
54661 2022-01-02 18:00:21 Terrasse 9.30 6.31 1.00
54660 2022-01-02 17:32:00 Terrasse 9.30 6.31 1.00
54659 2022-01-02 17:03:47 Terrasse 9.40 6.42 1.00
54658 2022-01-02 16:35:34 Terrasse 9.50 6.53 1.00
54657 2022-01-02 16:07:22 Terrasse 9.80 9.44 99.90
54656 2022-01-02 15:39:14 Terrasse 10.60 10.32 99.90
54655 2022-01-02 15:11:03 Terrasse 11.20 10.64 86.80
54654 2022-01-02 14:43:18 Terrasse 14.30 14.39 99.90
54653 2022-01-02 14:14:49 Terrasse 15.40 13.02 1.00
54652 2022-01-02 13:46:14 Terrasse 10.00 9.66 99.90
54651 2022-01-02 13:18:03 Terrasse 9.10 6.09 1.00
54650 2022-01-02 12:49:51 Terrasse 8.10 4.99 1.00
54649 2022-01-02 12:21:34 Terrasse 8.10 4.99 1.00
54648 2022-01-02 11:53:20 Terrasse 8.00 4.88 1.00
54647 2022-01-02 11:25:07 Terrasse 7.90 4.77 1.00
54646 2022-01-02 10:56:54 Terrasse 8.10 4.99 1.00
54645 2022-01-02 10:28:39 Terrasse 7.90 4.77 1.00
54644 2022-01-02 10:00:25 Terrasse 7.80 4.66 1.00
54643 2022-01-02 09:32:14 Terrasse 7.70 4.55 1.00
54642 2022-01-02 09:04:00 Terrasse 7.70 4.55 1.00
54641 2022-01-02 08:35:48 Terrasse 7.80 4.66 1.00
54640 2022-01-02 08:07:34 Terrasse 7.90 4.77 1.00
54639 2022-01-02 07:39:22 Terrasse 7.80 4.66 1.00
54638 2022-01-02 07:11:15 Terrasse 7.80 4.66 1.00
54637 2022-01-02 06:43:06 Terrasse 7.80 4.66 1.00
54636 2022-01-02 06:14:59 Terrasse 7.70 4.55 1.00
54635 2022-01-02 05:46:43 Terrasse 7.70 4.55 1.00
54634 2022-01-02 05:18:31 Terrasse 7.70 4.55 1.00
54633 2022-01-02 04:50:17 Terrasse 7.70 4.55 1.00
54632 2022-01-02 04:22:03 Terrasse 7.60 4.44 1.00
54631 2022-01-02 03:53:49 Terrasse 7.60 4.44 1.00
54630 2022-01-02 03:25:36 Terrasse 7.70 4.55 1.00
54629 2022-01-02 02:57:23 Terrasse 7.80 4.66 1.00
54628 2022-01-02 02:29:11 Terrasse 8.00 4.88 1.00
54627 2022-01-02 02:00:57 Terrasse 8.10 4.99 1.00
54626 2022-01-02 01:32:46 Terrasse 8.30 5.21 1.00
54625 2022-01-02 01:04:33 Terrasse 8.50 5.43 1.00
54624 2022-01-02 00:36:20 Terrasse 8.60 5.54 1.00
54623 2022-01-02 00:08:06 Terrasse 8.50 5.43 1.00
54622 2022-01-01 23:39:53 Terrasse 8.60 5.54 1.00
54621 2022-01-01 23:11:41 Terrasse 8.70 5.65 1.00
54620 2022-01-01 22:43:28 Terrasse 8.80 5.76 1.00
54619 2022-01-01 22:15:14 Terrasse 8.90 5.87 1.00
54618 2022-01-01 21:47:01 Terrasse 9.10 6.09 1.00
54617 2022-01-01 21:18:48 Terrasse 9.20 6.20 1.00
54616 2022-01-01 20:50:36 Terrasse 9.20 6.20 1.00
54615 2022-01-01 20:22:23 Terrasse 9.40 6.42 1.00
54614 2022-01-01 19:54:11 Terrasse 9.70 6.75 1.00
54613 2022-01-01 19:25:58 Terrasse 10.00 7.08 1.00
54612 2022-01-01 18:57:44 Terrasse 10.10 7.19 1.00
54611 2022-01-01 18:29:31 Terrasse 10.10 7.19 1.00
54610 2022-01-01 18:01:17 Terrasse 10.20 7.30 1.00
54609 2022-01-01 17:33:03 Terrasse 10.20 7.30 1.00
54608 2022-01-01 17:04:50 Terrasse 10.20 7.30 1.00
54607 2022-01-01 16:36:36 Terrasse 10.30 7.41 1.00
54606 2022-01-01 16:08:23 Terrasse 10.40 7.52 1.00
54605 2022-01-01 15:40:08 Terrasse 10.40 7.52 1.00
54604 2022-01-01 15:11:55 Terrasse 10.40 7.52 1.00
54603 2022-01-01 14:43:41 Terrasse 10.50 7.63 1.00
54602 2022-01-01 14:15:27 Terrasse 10.50 7.63 1.00
54601 2022-01-01 13:47:15 Terrasse 10.50 7.63 1.00
54600 2022-01-01 13:18:59 Terrasse 10.50 7.63 1.00
54599 2022-01-01 12:50:45 Terrasse 10.50 7.63 1.00
54598 2022-01-01 12:22:31 Terrasse 10.40 7.52 1.00
54597 2022-01-01 11:54:22 Terrasse 10.30 7.41 1.00
54596 2022-01-01 11:26:08 Terrasse 10.30 7.41 1.00
54595 2022-01-01 10:25:53 Terrasse 10.10 7.19 1.00
54594 2022-01-01 09:55:17 Terrasse 10.00 7.08 1.00
54593 2022-01-01 09:22:11 Terrasse 9.70 6.75 1.00
54592 2022-01-01 08:53:58 Terrasse 9.60 6.64 1.00
54591 2022-01-01 08:25:45 Terrasse 9.60 6.64 1.00
54590 2022-01-01 07:57:33 Terrasse 9.70 6.75 1.00
54589 2022-01-01 07:29:21 Terrasse 9.80 6.86 1.00
54588 2022-01-01 07:01:09 Terrasse 10.00 7.08 1.00
54587 2022-01-01 06:32:56 Terrasse 10.00 7.08 1.00
54586 2022-01-01 06:04:42 Terrasse 10.00 7.08 1.00
54585 2022-01-01 05:36:28 Terrasse 10.00 7.08 1.00
54584 2022-01-01 05:08:15 Terrasse 10.00 7.08 1.00
54583 2022-01-01 04:40:02 Terrasse 10.10 7.19 1.00
54582 2022-01-01 04:11:51 Terrasse 10.10 7.19 1.00
54581 2022-01-01 03:43:37 Terrasse 10.00 7.08 1.00
54580 2022-01-01 03:15:23 Terrasse 10.00 7.08 1.00
54579 2022-01-01 02:47:09 Terrasse 10.00 7.08 1.00
54578 2022-01-01 02:18:57 Terrasse 10.00 7.08 1.00
54577 2022-01-01 01:50:45 Terrasse 10.00 7.08 1.00
54576 2022-01-01 01:22:32 Terrasse 10.00 7.08 1.00
54575 2022-01-01 00:54:18 Terrasse 10.00 7.08 1.00
54574 2022-01-01 00:26:04 Terrasse 10.00 7.08 1.00
54573 2021-12-31 23:57:51 Terrasse 9.90 6.97 1.00
54572 2021-12-31 23:29:38 Terrasse 9.90 6.97 1.00
54571 2021-12-31 23:01:25 Terrasse 9.80 6.86 1.00
54570 2021-12-31 22:33:12 Terrasse 9.80 6.86 1.00
54569 2021-12-31 22:04:58 Terrasse 9.70 6.75 1.00
54568 2021-12-31 21:36:44 Terrasse 9.70 6.75 1.00
54567 2021-12-31 21:08:32 Terrasse 9.70 6.75 1.00
54566 2021-12-31 20:40:19 Terrasse 9.70 6.75 1.00
54565 2021-12-31 20:12:07 Terrasse 9.80 6.86 1.00
54564 2021-12-31 19:43:55 Terrasse 9.90 6.97 1.00
54563 2021-12-31 19:15:41 Terrasse 9.80 6.86 1.00
54562 2021-12-31 18:47:28 Terrasse 9.70 6.75 1.00
54561 2021-12-31 18:19:16 Terrasse 9.80 6.86 1.00
54560 2021-12-31 17:51:06 Terrasse 10.10 7.19 1.00
54559 2021-12-31 17:22:54 Terrasse 10.40 7.52 1.00
54558 2021-12-31 16:54:43 Terrasse 10.80 7.96 1.00
54557 2021-12-31 16:26:32 Terrasse 11.30 8.51 1.00
54556 2021-12-31 15:58:20 Terrasse 11.60 8.84 1.00
54555 2021-12-31 15:30:08 Terrasse 12.00 9.28 1.00
54554 2021-12-31 15:01:56 Terrasse 11.60 8.84 1.00
54553 2021-12-31 14:33:40 Terrasse 11.10 8.29 1.00
54552 2021-12-31 14:05:29 Terrasse 11.20 8.40 1.00
54551 2021-12-31 13:37:15 Terrasse 11.40 8.62 1.00
54550 2021-12-31 13:09:00 Terrasse 11.20 8.40 1.00
54549 2021-12-31 12:40:48 Terrasse 11.10 8.29 1.00
54548 2021-12-31 12:12:34 Terrasse 11.10 8.29 1.00
54547 2021-12-31 11:44:22 Terrasse 11.10 8.29 1.00
54546 2021-12-31 11:16:04 Terrasse 10.70 7.85 1.00
54545 2021-12-31 10:47:48 Terrasse 10.30 7.41 1.00
54544 2021-12-31 10:19:34 Terrasse 10.30 7.41 1.00
54543 2021-12-31 09:51:20 Terrasse 10.20 7.30 1.00
54542 2021-12-31 09:23:07 Terrasse 10.10 7.19 1.00
54541 2021-12-31 08:54:53 Terrasse 10.00 7.08 1.00
54540 2021-12-31 08:26:40 Terrasse 9.90 6.97 1.00
54539 2021-12-31 07:58:25 Terrasse 10.00 7.08 1.00
54538 2021-12-31 07:30:14 Terrasse 10.30 7.41 1.00
54537 2021-12-31 07:02:00 Terrasse 10.40 7.52 1.00
54536 2021-12-31 06:33:46 Terrasse 10.40 7.52 1.00
54535 2021-12-31 06:05:33 Terrasse 10.50 7.63 1.00
54534 2021-12-31 05:37:20 Terrasse 10.70 7.85 1.00
54533 2021-12-31 05:09:07 Terrasse 10.90 8.07 1.00
54532 2021-12-31 04:40:54 Terrasse 11.10 8.29 1.00
54531 2021-12-31 04:12:39 Terrasse 11.10 8.29 1.00
54530 2021-12-31 03:44:25 Terrasse 11.10 8.29 1.00
54529 2021-12-31 03:16:12 Terrasse 11.20 8.40 1.00
54528 2021-12-31 02:47:58 Terrasse 11.30 8.51 1.00
54527 2021-12-31 02:19:45 Terrasse 11.40 8.62 1.00
54526 2021-12-31 01:51:30 Terrasse 11.40 8.62 1.00
54525 2021-12-31 01:23:16 Terrasse 11.30 8.51 1.00
54524 2021-12-31 00:55:03 Terrasse 11.40 8.62 1.00
54523 2021-12-31 00:26:48 Terrasse 11.30 8.51 1.00
54522 2021-12-30 23:58:34 Terrasse 11.30 8.51 1.00
54521 2021-12-30 23:30:20 Terrasse 11.30 8.79 11.50
54520 2021-12-30 23:02:08 Terrasse 11.30 8.63 5.70
54519 2021-12-30 22:33:54 Terrasse 11.30 8.51 1.00
54518 2021-12-30 22:05:40 Terrasse 11.40 8.62 1.00
54517 2021-12-30 21:37:29 Terrasse 11.50 8.73 1.00
54516 2021-12-30 21:09:16 Terrasse 11.50 8.73 1.00
54515 2021-12-30 20:41:03 Terrasse 11.50 8.73 1.00
54514 2021-12-30 20:12:50 Terrasse 11.60 8.84 1.00
54513 2021-12-30 19:44:35 Terrasse 11.70 8.95 1.00
54512 2021-12-30 19:16:21 Terrasse 11.80 9.06 1.00
54511 2021-12-30 18:48:07 Terrasse 11.80 9.06 1.00
54510 2021-12-30 18:19:53 Terrasse 11.80 9.06 1.00
54509 2021-12-30 17:51:39 Terrasse 11.90 9.17 1.00
54508 2021-12-30 17:23:28 Terrasse 12.20 9.69 8.10
54507 2021-12-30 16:55:16 Terrasse 12.40 9.79 3.50
54506 2021-12-30 16:27:03 Terrasse 12.60 9.94 1.00
54505 2021-12-30 15:58:52 Terrasse 12.90 10.27 1.00
54504 2021-12-30 15:30:40 Terrasse 13.20 10.60 1.00
54503 2021-12-30 15:02:29 Terrasse 13.60 11.04 1.00
54502 2021-12-30 14:34:20 Terrasse 14.20 11.70 1.00
54501 2021-12-30 14:05:49 Terrasse 13.30 11.17 18.60
54500 2021-12-30 13:37:41 Terrasse 13.60 11.04 1.00
54499 2021-12-30 13:09:26 Terrasse 13.70 11.16 1.40
54498 2021-12-30 12:41:03 Terrasse 12.80 11.51 52.80
54497 2021-12-30 12:12:47 Terrasse 12.30 11.35 67.50
54496 2021-12-30 11:44:29 Terrasse 11.90 11.38 85.50
54495 2021-12-30 11:16:15 Terrasse 11.70 11.31 91.50
54494 2021-12-30 10:47:59 Terrasse 11.20 10.75 90.80
54493 2021-12-30 10:19:43 Terrasse 11.00 10.51 90.10
54492 2021-12-30 09:51:29 Terrasse 10.90 10.36 88.60
54491 2021-12-30 09:23:14 Terrasse 10.60 9.96 85.90
54490 2021-12-30 08:55:00 Terrasse 10.40 9.69 83.90
54489 2021-12-30 08:26:45 Terrasse 10.20 9.36 80.00
54488 2021-12-30 07:58:31 Terrasse 10.00 8.92 71.50
54487 2021-12-30 07:30:17 Terrasse 9.90 8.63 64.50
54486 2021-12-30 07:02:02 Terrasse 9.80 8.22 53.00
54485 2021-12-30 06:33:48 Terrasse 9.70 7.70 37.50
54484 2021-12-30 06:05:35 Terrasse 9.70 7.52 30.30
54483 2021-12-30 05:37:21 Terrasse 9.60 7.04 16.20
54482 2021-12-30 05:09:08 Terrasse 9.50 6.53 1.00
54481 2021-12-30 04:40:54 Terrasse 9.40 6.42 1.00
54480 2021-12-30 04:12:40 Terrasse 9.40 6.42 1.00
54479 2021-12-30 03:44:28 Terrasse 9.40 6.42 1.00
54478 2021-12-30 03:16:15 Terrasse 9.40 6.42 1.00
54477 2021-12-30 02:48:02 Terrasse 9.40 6.42 1.00
54476 2021-12-30 02:19:50 Terrasse 9.40 6.45 2.10
54475 2021-12-30 01:51:37 Terrasse 9.40 7.53 43.30
54474 2021-12-30 01:23:23 Terrasse 9.40 8.14 66.80
54473 2021-12-30 00:55:09 Terrasse 9.20 8.19 77.20
54472 2021-12-30 00:26:55 Terrasse 8.90 7.78 74.00
54471 2021-12-29 23:58:40 Terrasse 8.50 6.94 58.80
54470 2021-12-29 23:30:24 Terrasse 8.30 6.35 44.60
54469 2021-12-29 23:02:11 Terrasse 8.10 6.06 42.00
54468 2021-12-29 22:35:01 Terrasse 8.00 5.84 37.70
54467 2021-12-29 22:06:05 Terrasse 8.00 5.63 29.60
54466 2021-12-29 21:37:56 Terrasse 8.00 5.56 27.10
54465 2021-12-29 21:09:42 Terrasse 8.00 5.51 24.90
54464 2021-12-29 20:41:29 Terrasse 8.00 5.38 20.10
54463 2021-12-29 20:13:16 Terrasse 8.00 5.28 16.40
54462 2021-12-29 19:45:03 Terrasse 8.00 5.25 15.00
54461 2021-12-29 19:16:51 Terrasse 8.00 5.17 12.20
54460 2021-12-29 18:48:39 Terrasse 8.00 5.09 8.80
54459 2021-12-29 18:20:25 Terrasse 7.90 4.87 4.80
54458 2021-12-29 17:52:12 Terrasse 8.00 4.88 1.00
54457 2021-12-29 17:23:59 Terrasse 8.00 4.88 1.00
54456 2021-12-29 16:55:45 Terrasse 8.10 4.99 1.00
54455 2021-12-29 16:27:34 Terrasse 8.10 4.99 1.00
54454 2021-12-29 15:59:21 Terrasse 8.20 5.10 1.00
54453 2021-12-29 15:31:08 Terrasse 8.20 5.10 1.00
54452 2021-12-29 15:02:56 Terrasse 8.30 5.21 1.00
54451 2021-12-29 14:34:44 Terrasse 8.40 5.32 1.00
54450 2021-12-29 14:06:33 Terrasse 8.70 5.65 1.00
54449 2021-12-29 13:38:21 Terrasse 8.80 5.76 1.00
54448 2021-12-29 13:10:09 Terrasse 9.10 6.09 1.00
54447 2021-12-29 12:41:58 Terrasse 9.00 5.98 1.00
54446 2021-12-29 12:13:38 Terrasse 8.50 5.43 1.00
54445 2021-12-29 11:45:20 Terrasse 8.10 4.99 1.00
54444 2021-12-29 11:17:07 Terrasse 7.90 4.77 1.00
54443 2021-12-29 10:48:52 Terrasse 7.70 4.55 1.00
54442 2021-12-29 10:20:38 Terrasse 7.50 4.33 1.00
54441 2021-12-29 09:52:25 Terrasse 7.50 4.33 1.00
54440 2021-12-29 09:24:12 Terrasse 7.40 4.22 1.00
54439 2021-12-29 08:56:01 Terrasse 7.50 4.33 1.00
54438 2021-12-29 08:27:48 Terrasse 7.30 4.11 1.00
54437 2021-12-29 07:59:35 Terrasse 7.30 4.11 1.00
54436 2021-12-29 07:31:23 Terrasse 7.40 4.22 1.00
54435 2021-12-29 07:03:11 Terrasse 7.50 4.33 1.00
54434 2021-12-29 06:34:59 Terrasse 7.50 4.33 1.00
54433 2021-12-29 06:06:47 Terrasse 7.60 4.44 1.00
54432 2021-12-29 05:38:34 Terrasse 7.60 4.44 1.00
54431 2021-12-29 05:10:23 Terrasse 7.60 4.44 1.00
54430 2021-12-29 04:42:10 Terrasse 7.60 4.69 10.60
54429 2021-12-29 04:13:57 Terrasse 7.60 4.80 14.70
54428 2021-12-29 03:45:44 Terrasse 7.60 4.69 10.60
54427 2021-12-29 03:17:32 Terrasse 7.70 4.63 4.00
54426 2021-12-29 02:49:20 Terrasse 7.70 4.59 2.50
54425 2021-12-29 02:21:07 Terrasse 7.70 4.62 3.60
54424 2021-12-29 01:53:13 Terrasse 7.70 4.91 14.90
54423 2021-12-29 01:24:52 Terrasse 7.60 4.87 17.40
54422 2021-12-29 00:56:40 Terrasse 7.50 4.77 17.60
54421 2021-12-29 00:28:28 Terrasse 7.50 4.83 20.20
54420 2021-12-29 00:00:14 Terrasse 7.30 4.56 18.00
54419 2021-12-28 23:32:00 Terrasse 7.10 4.35 18.40
54418 2021-12-28 23:03:46 Terrasse 7.00 4.17 15.80
54417 2021-12-28 22:35:33 Terrasse 6.80 3.64 4.10
54416 2021-12-28 22:07:20 Terrasse 6.80 3.56 1.00
54415 2021-12-28 21:39:07 Terrasse 6.70 3.45 1.00
54414 2021-12-28 21:10:55 Terrasse 6.60 3.34 1.00
54413 2021-12-28 20:42:42 Terrasse 6.60 3.34 1.00
54412 2021-12-28 20:14:30 Terrasse 6.70 3.45 1.00
54411 2021-12-28 19:46:18 Terrasse 6.70 3.45 1.00
54410 2021-12-28 19:18:07 Terrasse 6.90 3.67 1.00
54409 2021-12-28 18:49:55 Terrasse 7.00 3.78 1.00
54408 2021-12-28 18:21:44 Terrasse 7.10 3.89 1.00
54407 2021-12-28 17:53:32 Terrasse 7.30 4.11 1.00
54406 2021-12-28 17:25:20 Terrasse 7.60 4.44 1.00
54405 2021-12-28 16:57:08 Terrasse 7.90 4.77 1.00
54404 2021-12-28 16:28:56 Terrasse 8.10 4.99 1.00
54403 2021-12-28 16:00:45 Terrasse 8.40 5.32 1.00
54402 2021-12-28 15:32:32 Terrasse 8.30 6.83 63.00
54401 2021-12-28 15:04:18 Terrasse 8.30 6.99 69.20
54400 2021-12-28 14:36:04 Terrasse 8.10 6.67 65.10
54399 2021-12-28 14:07:49 Terrasse 7.80 5.93 49.50
54398 2021-12-28 13:39:35 Terrasse 7.70 5.54 38.70
54397 2021-12-28 13:11:22 Terrasse 7.90 5.60 32.70
54396 2021-12-28 12:43:07 Terrasse 7.70 5.69 44.50
54395 2021-12-28 12:14:53 Terrasse 7.40 5.38 45.50
54394 2021-12-28 11:46:41 Terrasse 7.30 5.18 42.10
54393 2021-12-28 11:18:27 Terrasse 7.20 5.15 44.90
54392 2021-12-28 10:50:14 Terrasse 7.10 5.00 43.60
54391 2021-12-28 10:21:59 Terrasse 7.00 4.67 35.10
54390 2021-12-28 09:53:46 Terrasse 7.00 4.66 34.60
54389 2021-12-28 09:25:32 Terrasse 6.90 4.61 37.10
54388 2021-12-28 08:57:18 Terrasse 6.90 4.81 44.70
54387 2021-12-28 08:29:04 Terrasse 6.80 4.70 44.60
54386 2021-12-28 08:00:52 Terrasse 6.70 4.52 41.80
54385 2021-12-28 07:32:39 Terrasse 6.70 4.50 41.20
54384 2021-12-28 07:04:25 Terrasse 6.70 4.65 46.90
54383 2021-12-28 06:36:13 Terrasse 6.70 4.69 48.60
54382 2021-12-28 06:08:00 Terrasse 6.70 4.73 49.90
54381 2021-12-28 05:39:48 Terrasse 6.70 4.74 50.30
54380 2021-12-28 05:11:35 Terrasse 6.70 4.72 49.60
54379 2021-12-28 04:43:22 Terrasse 6.60 4.59 48.80
54378 2021-12-28 04:15:09 Terrasse 6.60 4.57 48.00
54377 2021-12-28 03:46:56 Terrasse 6.50 4.43 47.00
54376 2021-12-28 03:18:42 Terrasse 6.40 4.12 39.30
54375 2021-12-28 02:50:29 Terrasse 6.30 3.87 33.90
54374 2021-12-28 02:22:15 Terrasse 6.20 3.61 28.20
54373 2021-12-28 01:54:00 Terrasse 6.20 3.63 28.90
54372 2021-12-28 01:25:48 Terrasse 6.10 3.47 26.80
54371 2021-12-28 00:57:35 Terrasse 6.00 3.35 26.70
54370 2021-12-28 00:29:22 Terrasse 6.00 3.29 24.40
54369 2021-12-28 00:01:10 Terrasse 5.90 3.10 21.10
54368 2021-12-27 23:32:58 Terrasse 5.80 2.91 18.10
54367 2021-12-27 23:04:45 Terrasse 5.80 2.80 14.10
54366 2021-12-27 22:36:33 Terrasse 5.80 2.72 11.00
54365 2021-12-27 22:08:22 Terrasse 5.70 2.57 9.20
54364 2021-12-27 21:40:08 Terrasse 5.60 2.42 7.90
54363 2021-12-27 21:11:53 Terrasse 5.50 2.13 1.00
54362 2021-12-27 20:43:41 Terrasse 5.40 2.02 1.00
54361 2021-12-27 20:15:32 Terrasse 5.30 1.91 1.00
54360 2021-12-27 19:47:19 Terrasse 5.40 2.02 1.00
54359 2021-12-27 19:19:06 Terrasse 5.40 2.02 1.00
54358 2021-12-27 18:50:54 Terrasse 5.40 2.02 1.00
54357 2021-12-27 18:22:42 Terrasse 5.50 2.13 1.00
54356 2021-12-27 17:54:30 Terrasse 5.50 2.13 1.00
54355 2021-12-27 17:26:17 Terrasse 5.50 2.13 1.00
54354 2021-12-27 16:58:05 Terrasse 5.50 2.13 1.00
54353 2021-12-27 16:29:51 Terrasse 5.50 2.13 1.00
54352 2021-12-27 16:01:40 Terrasse 5.50 2.13 1.00
54351 2021-12-27 15:33:27 Terrasse 5.50 2.13 1.00
54350 2021-12-27 15:05:14 Terrasse 5.50 2.13 1.00
54349 2021-12-27 14:37:02 Terrasse 5.30 1.91 1.00
54348 2021-12-27 14:08:50 Terrasse 5.30 1.91 1.00
54347 2021-12-27 13:40:38 Terrasse 5.50 2.13 1.00
54346 2021-12-27 13:12:25 Terrasse 5.30 1.91 1.00
54345 2021-12-27 12:44:10 Terrasse 5.10 1.69 1.00
54344 2021-12-27 12:15:56 Terrasse 4.90 1.47 1.00
54343 2021-12-27 11:47:43 Terrasse 4.70 1.25 1.00
54342 2021-12-27 11:19:31 Terrasse 4.50 1.03 1.00
54341 2021-12-27 10:51:17 Terrasse 4.40 0.92 1.00
54340 2021-12-27 10:23:04 Terrasse 4.20 0.70 1.00
54339 2021-12-27 09:54:51 Terrasse 4.00 0.48 1.00
54338 2021-12-27 09:26:37 Terrasse 3.80 0.26 1.00
54337 2021-12-27 08:58:24 Terrasse 3.70 0.15 1.00
54336 2021-12-27 08:30:12 Terrasse 3.60 0.04 1.00
54335 2021-12-27 08:01:59 Terrasse 3.50 -0.07 1.00
54334 2021-12-27 07:33:48 Terrasse 3.40 -0.18 1.00
54333 2021-12-27 07:05:36 Terrasse 3.40 -0.18 1.00
54332 2021-12-27 06:37:23 Terrasse 3.30 -0.29 1.00
54331 2021-12-27 06:09:11 Terrasse 3.20 -0.40 1.00
54330 2021-12-27 05:40:57 Terrasse 3.10 -0.51 1.00
54329 2021-12-27 05:12:45 Terrasse 3.10 -0.51 1.00
54328 2021-12-27 04:44:33 Terrasse 2.90 -0.73 1.00
54327 2021-12-27 04:16:22 Terrasse 2.90 -0.73 1.00
54326 2021-12-27 03:48:10 Terrasse 2.90 -0.73 1.00
54325 2021-12-27 03:19:57 Terrasse 2.80 -0.84 1.00
54324 2021-12-27 02:51:46 Terrasse 2.80 -0.84 1.00
54323 2021-12-27 02:23:34 Terrasse 2.80 -0.84 1.00
54322 2021-12-27 01:55:22 Terrasse 2.70 -0.95 1.00
54321 2021-12-27 01:27:12 Terrasse 2.70 -0.95 1.00
54320 2021-12-27 00:59:00 Terrasse 2.60 -1.06 1.00
54319 2021-12-27 00:30:47 Terrasse 2.60 -1.06 1.00
54318 2021-12-27 00:02:35 Terrasse 2.60 -1.06 1.00
54317 2021-12-26 23:34:23 Terrasse 2.50 -1.17 1.00
54316 2021-12-26 23:06:11 Terrasse 2.50 -1.17 1.00
54315 2021-12-26 22:38:00 Terrasse 2.40 -1.28 1.00
54314 2021-12-26 22:09:47 Terrasse 2.30 -1.39 1.00
54313 2021-12-26 21:41:35 Terrasse 2.30 -1.39 1.00
54312 2021-12-26 21:13:23 Terrasse 2.30 -1.39 1.00
54311 2021-12-26 20:45:11 Terrasse 2.20 -1.50 1.00
54310 2021-12-26 20:16:58 Terrasse 2.20 -1.50 1.00
54309 2021-12-26 19:48:46 Terrasse 2.20 -1.50 1.00
54308 2021-12-26 19:20:33 Terrasse 2.20 -1.50 1.00
54307 2021-12-26 18:52:21 Terrasse 2.10 -1.61 1.00
54306 2021-12-26 18:24:09 Terrasse 2.10 -1.61 1.00
54305 2021-12-26 17:55:57 Terrasse 2.10 -1.61 1.00
54304 2021-12-26 17:27:44 Terrasse 2.10 -1.61 1.00
54303 2021-12-26 16:59:32 Terrasse 2.10 -1.61 1.00
54302 2021-12-26 16:31:19 Terrasse 2.10 -1.61 1.00
54301 2021-12-26 16:03:07 Terrasse 2.10 -1.61 1.00
54300 2021-12-26 15:34:56 Terrasse 2.10 -1.61 1.00
54299 2021-12-26 15:06:43 Terrasse 2.10 -1.61 1.00
54298 2021-12-26 14:38:31 Terrasse 2.10 -1.61 1.00
54297 2021-12-26 14:10:19 Terrasse 2.00 -1.72 1.00
54296 2021-12-26 13:42:06 Terrasse 2.00 -1.72 1.00
54295 2021-12-26 13:13:54 Terrasse 2.00 -1.72 1.00
54294 2021-12-26 12:45:41 Terrasse 1.90 -1.83 1.00
54293 2021-12-26 12:17:28 Terrasse 1.80 -1.94 1.00
54292 2021-12-26 11:49:17 Terrasse 1.70 -2.05 1.00
54291 2021-12-26 11:21:05 Terrasse 1.60 -2.16 1.00
54290 2021-12-26 10:52:52 Terrasse 1.60 -2.16 1.00
54289 2021-12-26 10:24:39 Terrasse 1.50 -2.27 1.00
54288 2021-12-26 09:56:27 Terrasse 1.30 -2.49 1.00
54287 2021-12-26 09:28:14 Terrasse 1.20 -2.60 1.00
54286 2021-12-26 09:00:02 Terrasse 1.20 -2.60 1.00
54285 2021-12-26 08:31:50 Terrasse 1.10 -2.71 1.00
54284 2021-12-26 08:03:38 Terrasse 1.10 -0.13 99.90
54283 2021-12-26 07:35:25 Terrasse 1.10 -0.13 99.90
54282 2021-12-26 07:07:13 Terrasse 1.10 -0.13 99.90
54281 2021-12-26 06:39:01 Terrasse 1.10 -0.13 99.90
54280 2021-12-26 06:10:50 Terrasse 1.10 -0.13 99.90
54279 2021-12-26 05:42:38 Terrasse 1.10 -0.13 99.90
54278 2021-12-26 05:14:27 Terrasse 1.10 -0.13 99.90
54277 2021-12-26 04:46:14 Terrasse 1.10 -0.13 99.90
54276 2021-12-26 04:18:03 Terrasse 1.20 -0.02 99.90
54275 2021-12-26 03:49:52 Terrasse 1.20 -0.02 99.90
54274 2021-12-26 03:21:40 Terrasse 1.20 -0.02 99.90
54273 2021-12-26 02:53:29 Terrasse 1.20 -0.02 99.90
54272 2021-12-26 02:25:20 Terrasse 1.20 -0.02 99.90
54271 2021-12-26 01:57:08 Terrasse 1.30 0.09 99.90
54270 2021-12-26 01:28:57 Terrasse 1.30 0.09 99.90
54269 2021-12-26 01:00:45 Terrasse 1.40 0.20 99.90
54268 2021-12-26 00:32:35 Terrasse 1.50 0.31 99.90
54267 2021-12-26 00:04:25 Terrasse 1.60 0.42 99.90
54266 2021-12-25 23:36:14 Terrasse 1.70 0.53 99.90
54265 2021-12-25 23:08:02 Terrasse 1.70 0.53 99.90
54264 2021-12-25 22:39:52 Terrasse 1.70 0.53 99.90
54263 2021-12-25 22:11:41 Terrasse 1.70 0.53 99.90
54262 2021-12-25 21:43:28 Terrasse 1.70 0.53 99.90
54261 2021-12-25 21:15:16 Terrasse 1.80 0.64 99.90
54260 2021-12-25 20:47:05 Terrasse 1.80 0.64 99.90
54259 2021-12-25 20:18:53 Terrasse 1.90 0.75 99.90
54258 2021-12-25 19:50:44 Terrasse 2.00 0.86 99.90
54257 2021-12-25 19:22:34 Terrasse 1.90 0.75 99.90
54256 2021-12-25 18:54:24 Terrasse 2.00 0.86 99.90
54255 2021-12-25 18:26:13 Terrasse 2.20 1.08 99.90
54254 2021-12-25 17:58:02 Terrasse 2.30 1.19 99.90
54253 2021-12-25 17:29:51 Terrasse 2.40 1.30 99.90
54252 2021-12-25 17:01:40 Terrasse 2.60 1.52 99.90
54251 2021-12-25 16:33:28 Terrasse 2.70 1.63 99.90
54250 2021-12-25 16:05:18 Terrasse 2.90 1.85 99.90
54249 2021-12-25 15:37:08 Terrasse 3.10 2.07 99.90
54248 2021-12-25 15:08:58 Terrasse 3.30 2.29 99.90
54247 2021-12-25 14:40:49 Terrasse 3.60 2.62 99.90
54246 2021-12-25 14:12:40 Terrasse 3.90 2.95 99.90
54245 2021-12-25 13:44:31 Terrasse 4.10 3.17 99.90
54244 2021-12-25 13:16:21 Terrasse 4.30 3.39 99.90
54243 2021-12-25 12:48:10 Terrasse 4.50 3.61 99.90
54242 2021-12-25 12:19:58 Terrasse 4.70 3.83 99.90
54241 2021-12-25 11:51:46 Terrasse 5.00 1.58 1.00
54240 2021-12-25 11:23:34 Terrasse 5.20 1.80 1.00
54239 2021-12-25 10:55:23 Terrasse 5.40 2.02 1.00
54238 2021-12-25 10:27:12 Terrasse 5.20 1.80 1.00
54237 2021-12-25 09:59:03 Terrasse 5.40 2.02 1.00
54236 2021-12-25 09:30:51 Terrasse 5.60 2.24 1.00
54235 2021-12-25 09:02:38 Terrasse 5.70 2.35 1.00
54234 2021-12-25 08:34:26 Terrasse 5.80 2.46 1.00
54233 2021-12-25 08:06:14 Terrasse 5.80 2.46 1.00
54232 2021-12-25 07:38:02 Terrasse 5.80 2.46 1.00
54231 2021-12-25 07:09:49 Terrasse 5.90 2.57 1.00
54230 2021-12-25 06:41:36 Terrasse 5.90 2.57 1.00
54229 2021-12-25 06:13:23 Terrasse 5.90 2.57 1.00
54228 2021-12-25 05:45:11 Terrasse 5.90 2.57 1.00
54227 2021-12-25 05:17:00 Terrasse 5.90 2.57 1.00
54226 2021-12-25 04:48:49 Terrasse 5.90 2.57 1.00
54225 2021-12-25 04:20:37 Terrasse 5.90 2.57 1.00
54224 2021-12-25 03:52:25 Terrasse 5.90 2.57 1.00
54223 2021-12-25 03:24:12 Terrasse 5.90 2.57 1.00
54222 2021-12-25 02:55:59 Terrasse 5.90 2.57 1.00
54221 2021-12-25 02:27:46 Terrasse 5.90 2.57 1.00
54220 2021-12-25 01:59:34 Terrasse 5.90 2.57 1.00
54219 2021-12-25 01:31:22 Terrasse 5.80 2.46 1.00
54218 2021-12-25 01:03:21 Terrasse 5.80 2.46 1.00
54217 2021-12-25 00:35:06 Terrasse 5.90 2.57 1.00
54216 2021-12-25 00:06:55 Terrasse 6.00 2.68 1.00
54215 2021-12-24 23:38:43 Terrasse 6.00 2.68 1.00
54214 2021-12-24 23:10:31 Terrasse 6.00 2.68 1.00
54213 2021-12-24 22:42:19 Terrasse 6.00 2.68 1.00
54212 2021-12-24 22:14:07 Terrasse 6.10 2.79 1.00
54211 2021-12-24 21:45:56 Terrasse 6.20 2.90 1.00
54210 2021-12-24 21:17:45 Terrasse 6.50 3.23 1.00
54209 2021-12-24 20:49:34 Terrasse 6.70 3.45 1.00
54208 2021-12-24 20:21:24 Terrasse 6.80 3.56 1.00
54207 2021-12-24 19:53:11 Terrasse 6.90 3.67 1.00
54206 2021-12-24 19:25:00 Terrasse 6.90 3.67 1.00
54205 2021-12-24 18:56:48 Terrasse 7.00 3.78 1.00
54204 2021-12-24 18:28:39 Terrasse 7.10 3.89 1.00
54203 2021-12-24 18:00:25 Terrasse 7.10 3.89 1.00
54202 2021-12-24 17:32:13 Terrasse 7.20 4.00 1.00
54201 2021-12-24 17:04:02 Terrasse 7.30 4.11 1.00
54200 2021-12-24 16:35:51 Terrasse 7.40 4.22 1.00
54199 2021-12-24 16:07:38 Terrasse 7.60 4.44 1.00
54198 2021-12-24 15:39:27 Terrasse 7.80 4.66 1.00
54197 2021-12-24 15:11:17 Terrasse 8.10 4.99 1.00
54196 2021-12-24 14:43:05 Terrasse 8.40 5.32 1.00
54195 2021-12-24 14:14:55 Terrasse 8.90 5.90 2.10
54194 2021-12-24 13:46:48 Terrasse 9.90 9.55 99.90
54193 2021-12-24 13:18:30 Terrasse 8.60 8.12 99.90
54192 2021-12-24 12:50:09 Terrasse 7.70 4.55 1.00
54191 2021-12-24 12:21:55 Terrasse 7.10 3.89 1.00
54190 2021-12-24 11:53:43 Terrasse 7.00 3.78 1.00
54189 2021-12-24 11:25:30 Terrasse 7.10 3.89 1.00
54188 2021-12-24 10:57:17 Terrasse 6.90 3.67 1.00
54187 2021-12-24 10:29:04 Terrasse 6.80 3.56 1.00
54186 2021-12-24 10:00:51 Terrasse 6.60 3.34 1.00
54185 2021-12-24 09:32:38 Terrasse 6.40 3.12 1.00
54184 2021-12-24 09:04:24 Terrasse 6.30 3.01 1.00
54183 2021-12-24 08:36:11 Terrasse 6.30 3.01 1.00
54182 2021-12-24 08:07:58 Terrasse 6.20 2.90 1.00
54181 2021-12-24 07:39:52 Terrasse 6.20 2.90 1.00
54180 2021-12-24 07:11:37 Terrasse 6.20 2.90 1.00
54179 2021-12-24 06:43:22 Terrasse 6.00 2.68 1.00
54178 2021-12-24 06:15:17 Terrasse 5.80 2.46 1.00
54177 2021-12-24 05:47:09 Terrasse 5.70 2.35 1.00
54176 2021-12-24 05:18:54 Terrasse 5.60 2.24 1.00
54175 2021-12-24 04:50:39 Terrasse 5.40 2.02 1.00
54174 2021-12-24 04:22:26 Terrasse 5.20 1.80 1.00
54173 2021-12-24 03:54:13 Terrasse 5.10 1.69 1.00
54172 2021-12-24 03:26:38 Terrasse 5.00 1.58 1.00
54171 2021-12-24 00:26:09 Terrasse 4.10 0.59 1.00
54170 2021-12-23 21:56:03 Terrasse 2.50 -1.17 1.00
54169 2021-12-23 21:28:30 Terrasse 2.10 -1.61 1.00
54168 2021-12-23 20:59:56 Terrasse 2.10 -1.61 1.00
54167 2021-12-23 20:33:51 Terrasse 2.10 -1.61 1.00
54166 2021-12-23 20:01:48 Terrasse 1.90 -1.83 1.00
54165 2021-12-23 19:31:36 Terrasse 1.80 -1.94 1.00
54164 2021-12-23 19:03:16 Terrasse 1.70 -2.05 1.00
54163 2021-12-23 18:35:04 Terrasse 1.50 -2.27 1.00
54162 2021-12-23 18:06:52 Terrasse 1.40 -2.38 1.00
54161 2021-12-23 17:38:39 Terrasse 1.10 -2.71 1.00
54160 2021-12-23 17:10:28 Terrasse 0.90 -2.93 1.00
54159 2021-12-23 16:42:15 Terrasse 0.90 -2.93 1.00
54158 2021-12-23 16:14:02 Terrasse 0.80 -3.04 1.00
54157 2021-12-23 15:45:49 Terrasse 0.80 -3.04 1.00
54156 2021-12-23 15:17:39 Terrasse 0.90 -2.93 1.00
54155 2021-12-23 14:51:56 Terrasse 1.00 -0.24 99.90
54154 2021-12-23 13:55:31 Terrasse 0.10 -1.23 99.90
54153 2021-12-23 13:28:07 Terrasse -0.20 -4.14 1.00
54152 2021-12-23 12:59:56 Terrasse -0.40 -4.36 1.00
54151 2021-12-23 12:32:08 Terrasse -0.50 -4.47 1.00
54150 2021-12-23 12:04:15 Terrasse -0.70 -2.11 99.90
54149 2021-12-23 11:35:47 Terrasse -0.90 -4.91 1.00
54148 2021-12-23 11:07:34 Terrasse -1.00 -2.44 99.90
54147 2021-12-23 10:39:23 Terrasse -1.00 -2.44 99.90
54146 2021-12-23 10:13:39 Terrasse -0.80 -2.22 99.90
54145 2021-12-23 06:36:42 Terrasse -1.30 -2.77 99.90
54144 2021-12-23 06:08:32 Terrasse -1.30 -2.77 99.90
54143 2021-12-23 05:40:22 Terrasse -1.30 -2.95 92.70
54142 2021-12-23 05:12:11 Terrasse -1.40 -2.88 99.90
54141 2021-12-23 04:44:01 Terrasse -1.40 -4.46 39.40
54140 2021-12-23 04:15:52 Terrasse -1.20 -5.24 1.00
54139 2021-12-23 03:47:41 Terrasse -1.20 -5.24 1.00
54138 2021-12-23 03:19:31 Terrasse -1.00 -5.02 1.00
54137 2021-12-23 02:51:21 Terrasse -1.10 -5.13 1.00
54136 2021-12-23 02:23:11 Terrasse -1.00 -5.02 1.00
54135 2021-12-23 01:55:00 Terrasse -0.90 -4.91 1.00
54134 2021-12-23 01:26:47 Terrasse -1.00 -5.02 1.00
54133 2021-12-23 00:58:36 Terrasse -1.10 -5.13 1.00
54132 2021-12-23 00:30:25 Terrasse -0.90 -4.91 1.00
54131 2021-12-23 00:02:16 Terrasse -0.80 -4.80 1.00
54130 2021-12-22 23:34:05 Terrasse -0.60 -4.58 1.00
54129 2021-12-22 23:05:55 Terrasse -0.50 -4.47 1.00
54128 2021-12-22 22:37:45 Terrasse -0.30 -1.67 99.90
54127 2021-12-22 22:09:34 Terrasse -0.20 -1.56 99.90
54126 2021-12-22 21:41:24 Terrasse -0.10 -1.45 99.90
54125 2021-12-22 21:13:13 Terrasse -0.10 -4.03 1.00
54124 2021-12-22 20:45:02 Terrasse -0.10 -1.45 99.90
54123 2021-12-22 20:16:53 Terrasse 0.10 -2.69 43.80
54122 2021-12-22 19:48:44 Terrasse 0.30 -3.59 1.00
54121 2021-12-22 19:20:33 Terrasse 0.40 -3.48 1.00
54120 2021-12-22 18:52:24 Terrasse 0.50 -3.37 1.00
54119 2021-12-22 18:24:15 Terrasse 0.70 -3.15 1.00
54118 2021-12-22 17:56:04 Terrasse 0.70 -0.57 99.90
54117 2021-12-22 17:27:54 Terrasse 1.00 -0.24 99.90
54116 2021-12-22 16:59:47 Terrasse 1.40 0.20 99.90
54115 2021-12-22 16:31:39 Terrasse 1.90 -1.83 1.00
54114 2021-12-22 16:03:34 Terrasse 2.70 -0.95 1.00
54113 2021-12-22 15:35:33 Terrasse 3.90 2.95 99.90
54112 2021-12-22 15:07:15 Terrasse 4.70 1.25 1.00
54111 2021-12-22 14:39:18 Terrasse 5.90 4.73 83.50
54110 2021-12-22 14:10:55 Terrasse 5.70 4.93 99.90
54109 2021-12-22 13:42:38 Terrasse 4.30 0.81 1.00
54108 2021-12-22 13:14:32 Terrasse 4.20 0.70 1.00
54107 2021-12-22 12:46:27 Terrasse 4.40 3.50 99.90
54106 2021-12-22 12:18:33 Terrasse 5.20 1.80 1.00
54105 2021-12-22 11:49:55 Terrasse 3.00 -0.62 1.00
54104 2021-12-22 11:21:23 Terrasse 1.50 -2.27 1.00
54103 2021-12-22 10:53:06 Terrasse 0.70 -0.57 99.90
54102 2021-12-22 10:24:52 Terrasse 0.10 -3.81 1.00
54101 2021-12-22 09:56:42 Terrasse -0.20 -4.14 1.00
54100 2021-12-22 09:28:30 Terrasse -0.50 -4.47 1.00
54099 2021-12-22 09:00:19 Terrasse -0.60 -4.58 1.00
54098 2021-12-22 08:32:08 Terrasse -0.60 -4.58 1.00
54097 2021-12-22 08:03:57 Terrasse -0.60 -4.58 1.00
54096 2021-12-22 07:35:47 Terrasse -0.60 -4.58 1.00
54095 2021-12-22 07:07:35 Terrasse -0.60 -4.58 1.00
54094 2021-12-22 06:39:25 Terrasse -0.60 -4.58 1.00
54093 2021-12-22 06:11:14 Terrasse -0.50 -4.47 1.00
54092 2021-12-22 05:43:04 Terrasse -0.40 -4.36 1.00
54091 2021-12-22 05:14:53 Terrasse -0.40 -4.36 1.00
54090 2021-12-22 04:46:43 Terrasse -0.40 -4.36 1.00
54089 2021-12-22 04:18:32 Terrasse -0.40 -4.36 1.00
54088 2021-12-22 03:50:21 Terrasse -0.30 -4.25 1.00
54087 2021-12-22 03:22:11 Terrasse -0.20 -4.14 1.00
54086 2021-12-22 02:53:59 Terrasse -0.10 -4.03 1.00
54085 2021-12-22 02:25:49 Terrasse -0.10 -4.03 1.00
54084 2021-12-22 01:57:38 Terrasse 0.00 -3.92 1.00
54083 2021-12-22 01:29:28 Terrasse 0.10 -3.81 1.00
54082 2021-12-22 01:01:17 Terrasse 0.10 -3.81 1.00
54081 2021-12-22 00:33:07 Terrasse 0.20 -1.12 99.90
54080 2021-12-22 00:04:56 Terrasse 0.40 -0.90 99.90
54079 2021-12-21 23:36:45 Terrasse 0.50 -3.37 1.00
54078 2021-12-21 23:08:32 Terrasse 0.50 -0.79 99.90
54077 2021-12-21 22:40:22 Terrasse 0.60 -0.68 99.90
54076 2021-12-21 22:12:11 Terrasse 0.90 -0.35 99.90
54075 2021-12-21 21:44:01 Terrasse 1.10 -2.71 1.00
54074 2021-12-21 21:15:49 Terrasse 1.30 -1.94 22.10
54073 2021-12-21 20:47:38 Terrasse 1.40 -2.38 1.00
54072 2021-12-21 20:19:26 Terrasse 1.50 -2.27 1.00
54071 2021-12-21 19:51:15 Terrasse 1.50 0.31 99.90
54070 2021-12-21 19:23:04 Terrasse 1.70 -2.05 1.00
54069 2021-12-21 18:54:54 Terrasse 1.90 0.75 99.90
54068 2021-12-21 18:26:43 Terrasse 2.00 -1.72 1.00
54067 2021-12-21 17:58:33 Terrasse 2.10 0.97 99.90
54066 2021-12-21 17:30:24 Terrasse 2.20 -1.50 1.00
54065 2021-12-21 17:02:17 Terrasse 2.60 -1.06 1.00
54064 2021-12-21 16:34:20 Terrasse 3.20 2.18 99.90
54063 2021-12-21 16:06:11 Terrasse 4.20 0.70 1.00
54062 2021-12-21 15:38:14 Terrasse 5.80 2.46 1.00
54061 2021-12-21 15:10:06 Terrasse 8.60 8.12 99.90
54060 2021-12-21 14:42:17 Terrasse 9.90 6.97 1.00
54059 2021-12-21 14:13:33 Terrasse 9.00 8.56 99.90
54058 2021-12-21 13:45:04 Terrasse 5.80 5.04 99.90
54057 2021-12-21 13:16:53 Terrasse 5.60 2.24 1.00
54056 2021-12-21 12:48:52 Terrasse 6.50 3.23 1.00
54055 2021-12-21 12:21:21 Terrasse 9.00 8.56 99.90
54054 2021-12-21 11:52:47 Terrasse 6.60 3.34 1.00
54053 2021-12-21 11:23:46 Terrasse 3.20 -0.40 1.00
54052 2021-12-21 10:55:24 Terrasse 1.70 -1.83 9.50
54051 2021-12-21 10:27:06 Terrasse 0.90 -2.93 1.00
54050 2021-12-21 09:58:51 Terrasse 0.40 -3.48 1.00
54049 2021-12-21 09:30:37 Terrasse -0.20 -4.14 1.00
54048 2021-12-21 09:02:25 Terrasse -0.40 -4.36 1.00
54047 2021-12-21 08:34:14 Terrasse -0.20 -4.14 1.00
54046 2021-12-21 08:06:03 Terrasse -0.10 -1.45 99.90
54045 2021-12-21 07:37:52 Terrasse -0.10 -1.45 99.90
54044 2021-12-21 07:09:42 Terrasse 0.10 -1.23 99.90
54043 2021-12-21 06:41:30 Terrasse 0.00 -3.92 1.00
54042 2021-12-21 06:13:18 Terrasse 0.10 -1.23 99.90
54041 2021-12-21 05:45:07 Terrasse 0.10 -3.81 1.00
54040 2021-12-21 05:16:57 Terrasse 0.20 -3.70 1.00
54039 2021-12-21 04:48:46 Terrasse 0.40 -3.48 1.00
54038 2021-12-21 04:20:35 Terrasse 0.40 -3.48 1.00
54037 2021-12-21 03:52:23 Terrasse 0.30 -3.59 1.00
54036 2021-12-21 03:24:12 Terrasse 0.50 -3.37 1.00
54035 2021-12-21 02:56:01 Terrasse 0.70 -0.57 99.90
54034 2021-12-21 02:27:51 Terrasse 0.90 -2.93 1.00
54033 2021-12-21 01:59:39 Terrasse 0.90 -2.93 1.00
54032 2021-12-21 01:31:27 Terrasse 0.90 -2.93 1.00
54031 2021-12-21 01:03:16 Terrasse 1.00 -2.82 1.00
54030 2021-12-21 00:35:05 Terrasse 1.20 -1.85 29.80
54029 2021-12-21 00:06:54 Terrasse 1.40 0.20 99.90
54028 2021-12-20 23:38:44 Terrasse 1.40 -2.38 1.00
54027 2021-12-20 23:10:35 Terrasse 1.50 -2.27 1.00
54026 2021-12-20 22:42:27 Terrasse 1.70 -0.46 61.80
54025 2021-12-20 22:14:16 Terrasse 2.10 -1.61 1.00
54024 2021-12-20 21:46:05 Terrasse 2.20 1.08 99.90
54023 2021-12-20 21:17:55 Terrasse 2.20 1.08 99.90
54022 2021-12-20 20:49:43 Terrasse 2.20 -1.50 1.00
54021 2021-12-20 20:21:32 Terrasse 2.20 1.02 97.30
54020 2021-12-20 19:53:20 Terrasse 2.40 -1.28 1.00
54019 2021-12-20 19:25:10 Terrasse 2.40 1.30 99.90
54018 2021-12-20 18:57:01 Terrasse 2.80 -0.84 1.00
54017 2021-12-20 18:28:51 Terrasse 3.00 -0.62 1.00
54016 2021-12-20 18:00:41 Terrasse 3.40 2.40 99.90
54015 2021-12-20 17:32:33 Terrasse 3.60 2.62 99.90
54014 2021-12-20 17:04:26 Terrasse 4.30 0.81 1.00
54013 2021-12-20 16:36:19 Terrasse 5.10 4.27 99.90
54012 2021-12-20 16:08:15 Terrasse 6.30 3.01 1.00
54011 2021-12-20 15:40:16 Terrasse 7.90 4.77 1.00
54010 2021-12-20 15:12:23 Terrasse 10.30 7.50 4.30
54009 2021-12-20 14:44:48 Terrasse 14.80 12.36 1.00
54008 2021-12-20 14:16:29 Terrasse 16.40 16.70 99.90
54007 2021-12-20 13:47:09 Terrasse 8.80 5.76 1.00
54006 2021-12-20 13:19:03 Terrasse 8.70 5.65 1.00
54005 2021-12-20 12:51:04 Terrasse 10.20 9.07 68.60
54004 2021-12-20 12:23:51 Terrasse 14.40 14.50 99.90
54003 2021-12-20 11:55:18 Terrasse 11.90 11.75 99.90
54002 2021-12-20 11:25:56 Terrasse 6.40 3.12 1.00
54001 2021-12-20 10:57:33 Terrasse 5.00 3.71 82.70
54000 2021-12-20 10:29:15 Terrasse 4.20 3.28 99.90
53999 2021-12-20 10:01:01 Terrasse 3.60 2.62 99.90
53998 2021-12-20 09:32:48 Terrasse 3.40 2.40 99.90
53997 2021-12-20 09:04:38 Terrasse 3.60 2.62 99.90
53996 2021-12-20 08:36:26 Terrasse 3.70 2.73 99.90
53995 2021-12-20 08:08:16 Terrasse 3.90 2.95 99.90
53994 2021-12-20 07:40:06 Terrasse 4.20 3.28 99.90
53993 2021-12-20 07:11:56 Terrasse 4.60 3.72 99.90
53992 2021-12-20 06:43:45 Terrasse 4.80 3.94 99.90
53991 2021-12-20 06:15:35 Terrasse 4.90 4.05 99.90
53990 2021-12-20 05:47:23 Terrasse 4.90 4.05 99.90
53989 2021-12-20 05:19:11 Terrasse 4.90 1.47 1.00
53988 2021-12-20 04:50:58 Terrasse 4.90 1.47 1.00
53987 2021-12-20 04:22:46 Terrasse 4.90 1.47 1.00
53986 2021-12-20 03:54:34 Terrasse 4.80 1.36 1.00
53985 2021-12-20 03:26:22 Terrasse 5.00 1.58 1.00
53984 2021-12-20 02:58:10 Terrasse 5.10 1.69 1.00
53983 2021-12-20 02:29:59 Terrasse 5.10 1.69 1.00
53982 2021-12-20 02:01:46 Terrasse 5.10 1.69 1.00
53981 2021-12-20 01:33:34 Terrasse 5.20 1.80 1.00
53980 2021-12-20 01:05:22 Terrasse 5.20 1.80 1.00
53979 2021-12-20 00:37:09 Terrasse 5.20 1.80 1.00
53978 2021-12-20 00:08:56 Terrasse 5.20 1.80 1.00
53977 2021-12-19 23:40:44 Terrasse 5.20 1.80 1.00
53976 2021-12-19 23:12:33 Terrasse 5.20 1.80 1.00
53975 2021-12-19 22:44:21 Terrasse 5.20 1.80 1.00
53974 2021-12-19 22:16:10 Terrasse 5.20 1.80 1.00
53973 2021-12-19 21:47:57 Terrasse 5.30 1.91 1.00
53972 2021-12-19 21:19:44 Terrasse 5.20 4.38 99.90
53971 2021-12-19 20:51:32 Terrasse 5.20 4.38 99.90
53970 2021-12-19 20:23:18 Terrasse 5.20 4.38 99.90
53969 2021-12-19 19:55:07 Terrasse 5.20 4.38 99.90
53968 2021-12-19 19:26:54 Terrasse 5.20 1.80 1.00
53967 2021-12-19 18:58:43 Terrasse 5.20 1.80 1.00
53966 2021-12-19 18:30:30 Terrasse 5.20 1.80 1.00
53965 2021-12-19 18:02:18 Terrasse 5.20 1.80 1.00
53964 2021-12-19 17:34:07 Terrasse 5.30 1.91 1.00
53963 2021-12-19 17:05:54 Terrasse 5.40 2.02 1.00
53962 2021-12-19 16:37:41 Terrasse 5.40 2.02 1.00
53961 2021-12-19 16:09:40 Terrasse 5.40 2.02 1.00
53960 2021-12-19 15:41:26 Terrasse 5.50 2.13 1.00
53959 2021-12-19 15:13:16 Terrasse 5.70 2.35 1.00
53958 2021-12-19 14:45:05 Terrasse 5.80 2.46 1.00
53957 2021-12-19 14:16:54 Terrasse 5.90 2.57 1.00
53956 2021-12-19 13:48:43 Terrasse 6.10 2.79 1.00
53955 2021-12-19 13:20:32 Terrasse 6.10 2.79 1.00
53954 2021-12-19 12:52:20 Terrasse 6.20 2.90 1.00
53953 2021-12-19 12:24:09 Terrasse 6.20 2.90 1.00
53952 2021-12-19 11:55:57 Terrasse 6.10 2.79 1.00
53951 2021-12-19 11:27:45 Terrasse 6.00 2.68 1.00
53950 2021-12-19 10:59:28 Terrasse 5.70 2.35 1.00
53949 2021-12-19 10:31:16 Terrasse 5.50 2.13 1.00
53948 2021-12-19 10:03:01 Terrasse 5.20 1.80 1.00
53947 2021-12-19 09:34:50 Terrasse 5.00 1.58 1.00
53946 2021-12-19 09:06:37 Terrasse 4.90 1.47 1.00
53945 2021-12-19 08:38:25 Terrasse 4.80 1.36 1.00
53944 2021-12-19 08:10:12 Terrasse 4.80 1.36 1.00
53943 2021-12-19 07:42:01 Terrasse 4.70 1.25 1.00
53942 2021-12-19 07:13:59 Terrasse 4.70 1.25 1.00
53941 2021-12-19 06:45:50 Terrasse 4.70 1.25 1.00
53940 2021-12-19 06:17:36 Terrasse 4.60 1.14 1.00
53939 2021-12-19 05:49:24 Terrasse 4.50 1.03 1.00
53938 2021-12-19 05:21:11 Terrasse 4.50 1.03 1.00
53937 2021-12-19 04:52:58 Terrasse 4.40 0.92 1.00
53936 2021-12-19 04:24:48 Terrasse 4.50 1.03 1.00
53935 2021-12-19 03:56:37 Terrasse 4.60 1.14 1.00
53934 2021-12-19 03:28:25 Terrasse 4.70 1.25 1.00
53933 2021-12-19 03:00:12 Terrasse 4.80 1.36 1.00
53932 2021-12-19 02:31:59 Terrasse 4.90 1.47 1.00
53931 2021-12-19 02:03:47 Terrasse 4.80 1.36 1.00
53930 2021-12-19 01:35:47 Terrasse 4.90 1.47 1.00
53929 2021-12-19 01:07:31 Terrasse 4.80 1.36 1.00
53928 2021-12-19 00:39:18 Terrasse 4.80 1.36 1.00
53927 2021-12-19 00:11:07 Terrasse 4.80 1.36 1.00
53926 2021-12-18 23:42:53 Terrasse 4.80 1.36 1.00
53925 2021-12-18 23:14:42 Terrasse 4.70 1.25 1.00
53924 2021-12-18 22:46:30 Terrasse 4.70 1.25 1.00
53923 2021-12-18 22:18:18 Terrasse 4.70 1.25 1.00
53922 2021-12-18 21:50:07 Terrasse 4.60 1.14 1.00
53921 2021-12-18 21:21:55 Terrasse 4.60 1.14 1.00
53920 2021-12-18 20:53:44 Terrasse 4.60 1.14 1.00
53919 2021-12-18 20:25:31 Terrasse 4.60 1.14 1.00
53918 2021-12-18 19:57:19 Terrasse 4.60 1.14 1.00
53917 2021-12-18 19:29:06 Terrasse 4.60 1.14 1.00
53916 2021-12-18 19:00:55 Terrasse 4.60 1.14 1.00
53915 2021-12-18 18:32:44 Terrasse 4.70 1.25 1.00
53914 2021-12-18 18:04:30 Terrasse 4.60 1.14 1.00
53913 2021-12-18 17:36:20 Terrasse 4.60 1.14 1.00
53912 2021-12-18 17:08:09 Terrasse 4.70 1.25 1.00
53911 2021-12-18 16:39:58 Terrasse 4.70 1.25 1.00
53910 2021-12-18 16:11:46 Terrasse 4.70 1.25 1.00
53909 2021-12-18 15:43:35 Terrasse 4.70 1.25 1.00
53908 2021-12-18 15:15:23 Terrasse 4.70 1.25 1.00
53907 2021-12-18 14:47:11 Terrasse 4.70 1.25 1.00
53906 2021-12-18 14:18:59 Terrasse 4.70 1.25 1.00
53905 2021-12-18 13:50:46 Terrasse 4.70 1.25 1.00
53904 2021-12-18 13:22:35 Terrasse 4.80 1.36 1.00
53903 2021-12-18 12:54:22 Terrasse 4.80 1.36 1.00
53902 2021-12-18 12:26:10 Terrasse 4.80 1.36 1.00
53901 2021-12-18 11:57:58 Terrasse 4.70 1.25 1.00
53900 2021-12-18 11:29:44 Terrasse 4.60 1.14 1.00
53899 2021-12-18 11:01:30 Terrasse 4.40 0.92 1.00
53898 2021-12-18 10:33:18 Terrasse 4.30 0.81 1.00
53897 2021-12-18 10:05:06 Terrasse 4.20 0.70 1.00
53896 2021-12-18 09:36:53 Terrasse 4.00 0.48 1.00
53895 2021-12-18 09:08:41 Terrasse 3.90 0.37 1.00
53894 2021-12-18 08:40:29 Terrasse 3.70 0.15 1.00
53893 2021-12-18 08:12:16 Terrasse 3.60 0.04 1.00
53892 2021-12-18 07:44:03 Terrasse 3.50 -0.07 1.00
53891 2021-12-18 07:15:50 Terrasse 3.30 -0.29 1.00
53890 2021-12-18 06:47:39 Terrasse 3.30 -0.29 1.00
53889 2021-12-18 06:19:28 Terrasse 3.40 -0.18 1.00
53888 2021-12-18 05:51:14 Terrasse 3.20 -0.40 1.00
53887 2021-12-18 05:23:01 Terrasse 3.00 -0.62 1.00
53886 2021-12-18 04:54:51 Terrasse 3.00 -0.62 1.00
53885 2021-12-18 04:26:37 Terrasse 3.10 -0.51 1.00
53884 2021-12-18 03:58:25 Terrasse 2.90 -0.73 1.00
53883 2021-12-18 03:30:14 Terrasse 3.00 -0.62 1.00
53882 2021-12-18 03:02:03 Terrasse 3.10 -0.51 1.00
53881 2021-12-18 02:33:51 Terrasse 3.20 -0.40 1.00
53880 2021-12-18 02:05:40 Terrasse 3.30 -0.29 1.00
53879 2021-12-18 01:37:29 Terrasse 3.40 -0.18 1.00
53878 2021-12-18 01:09:18 Terrasse 3.50 -0.07 1.00
53877 2021-12-18 00:41:06 Terrasse 3.70 0.15 1.00
53876 2021-12-18 00:12:56 Terrasse 3.80 0.26 1.00
53875 2021-12-17 23:44:44 Terrasse 4.00 0.48 1.00
53874 2021-12-17 23:16:33 Terrasse 4.10 0.59 1.00
53873 2021-12-17 22:48:21 Terrasse 4.20 0.70 1.00
53872 2021-12-17 22:20:11 Terrasse 4.40 0.92 1.00
53871 2021-12-17 21:52:01 Terrasse 4.60 1.14 1.00
53870 2021-12-17 21:23:49 Terrasse 4.90 1.47 1.00
53869 2021-12-17 20:55:38 Terrasse 5.10 1.69 1.00
53868 2021-12-17 20:27:28 Terrasse 5.40 2.02 1.00
53867 2021-12-17 19:59:18 Terrasse 5.70 2.35 1.00
53866 2021-12-17 19:31:08 Terrasse 6.20 5.48 99.90
53865 2021-12-17 19:02:58 Terrasse 6.70 6.03 99.90
53864 2021-12-17 18:34:47 Terrasse 7.00 3.78 1.00
53863 2021-12-17 18:06:35 Terrasse 7.20 4.00 1.00
53862 2021-12-17 17:38:24 Terrasse 7.30 4.11 1.00
53861 2021-12-17 17:10:11 Terrasse 7.30 4.11 1.00
53860 2021-12-17 16:41:58 Terrasse 7.30 4.11 1.00
53859 2021-12-17 16:13:47 Terrasse 7.40 4.22 1.00
53858 2021-12-17 15:45:34 Terrasse 7.40 4.22 1.00
53857 2021-12-17 15:17:22 Terrasse 7.50 4.33 1.00
53856 2021-12-17 14:49:10 Terrasse 7.60 4.44 1.00
53855 2021-12-17 14:20:58 Terrasse 7.80 4.66 1.00
53854 2021-12-17 13:52:45 Terrasse 7.80 4.66 1.00
53853 2021-12-17 13:24:35 Terrasse 8.00 4.88 1.00
53852 2021-12-17 12:56:23 Terrasse 7.80 7.24 99.90
53851 2021-12-17 12:28:12 Terrasse 7.90 7.35 99.90
53850 2021-12-17 12:00:04 Terrasse 8.10 7.57 99.90
53849 2021-12-17 11:32:01 Terrasse 8.40 5.32 1.00
53848 2021-12-17 11:03:36 Terrasse 6.80 6.14 99.90
53847 2021-12-17 10:35:21 Terrasse 6.40 3.12 1.00
53846 2021-12-17 10:07:05 Terrasse 5.80 2.46 1.00
53845 2021-12-17 09:38:51 Terrasse 5.50 2.13 1.00
53844 2021-12-17 09:10:38 Terrasse 5.50 2.13 1.00
53843 2021-12-17 08:42:28 Terrasse 5.80 2.46 1.00
53842 2021-12-17 08:14:18 Terrasse 6.20 2.90 1.00
53841 2021-12-17 07:46:05 Terrasse 6.20 2.90 1.00
53840 2021-12-17 07:17:56 Terrasse 6.70 3.45 1.00
53839 2021-12-17 06:49:45 Terrasse 6.90 3.67 1.00
53838 2021-12-17 06:21:34 Terrasse 7.00 3.78 1.00
53837 2021-12-17 05:53:20 Terrasse 7.10 3.89 1.00
53836 2021-12-17 05:25:08 Terrasse 7.20 4.00 1.00
53835 2021-12-17 04:56:56 Terrasse 7.20 4.00 1.00
53834 2021-12-17 04:28:45 Terrasse 7.20 4.00 1.00
53833 2021-12-17 04:00:33 Terrasse 7.30 4.11 1.00
53832 2021-12-17 03:32:21 Terrasse 7.40 4.22 1.00
53831 2021-12-17 03:04:09 Terrasse 7.40 4.22 1.00
53830 2021-12-17 02:35:56 Terrasse 7.40 4.22 1.00
53829 2021-12-17 02:07:44 Terrasse 7.40 4.22 1.00
53828 2021-12-17 01:39:32 Terrasse 7.50 4.33 1.00
53827 2021-12-17 01:11:19 Terrasse 7.50 4.33 1.00
53826 2021-12-17 00:43:07 Terrasse 7.50 4.33 1.00
53825 2021-12-17 00:14:55 Terrasse 7.60 4.44 1.00
53824 2021-12-16 23:46:42 Terrasse 7.70 4.55 1.00
53823 2021-12-16 23:18:28 Terrasse 7.60 4.44 1.00
53822 2021-12-16 22:50:17 Terrasse 7.60 4.44 1.00
53821 2021-12-16 22:22:05 Terrasse 7.60 4.44 1.00
53820 2021-12-16 21:53:52 Terrasse 7.60 4.44 1.00
53819 2021-12-16 21:25:40 Terrasse 7.60 4.44 1.00
53818 2021-12-16 20:57:26 Terrasse 7.60 4.44 1.00
53817 2021-12-16 20:29:14 Terrasse 7.60 4.44 1.00
53816 2021-12-16 20:01:00 Terrasse 7.50 4.33 1.00
53815 2021-12-16 19:32:48 Terrasse 7.50 4.33 1.00
53814 2021-12-16 19:04:34 Terrasse 7.50 4.33 1.00
53813 2021-12-16 18:36:23 Terrasse 7.50 4.33 1.00
53812 2021-12-16 18:08:10 Terrasse 7.50 4.33 1.00
53811 2021-12-16 17:39:58 Terrasse 7.50 4.33 1.00
53810 2021-12-16 17:11:47 Terrasse 7.60 4.44 1.00
53809 2021-12-16 16:43:36 Terrasse 7.90 4.77 1.00
53808 2021-12-16 16:15:24 Terrasse 8.00 4.88 1.00
53807 2021-12-16 15:47:12 Terrasse 8.10 4.99 1.00
53806 2021-12-16 15:19:00 Terrasse 8.30 5.21 1.00
53805 2021-12-16 14:50:49 Terrasse 8.40 5.32 1.00
53804 2021-12-16 14:22:35 Terrasse 8.40 5.32 1.00
53803 2021-12-16 13:54:23 Terrasse 8.40 5.32 1.00
53802 2021-12-16 13:26:10 Terrasse 8.30 5.21 1.00
53801 2021-12-16 12:59:35 Terrasse 8.20 5.10 1.00
53800 2021-12-16 12:29:14 Terrasse 8.00 4.88 1.00
53799 2021-12-16 12:01:01 Terrasse 7.90 4.77 1.00
53798 2021-12-16 11:32:48 Terrasse 7.80 4.66 1.00
53797 2021-12-16 11:04:35 Terrasse 7.60 4.44 1.00
53796 2021-12-16 10:36:22 Terrasse 7.40 4.22 1.00
53795 2021-12-16 10:08:08 Terrasse 6.80 3.56 1.00
53794 2021-12-16 09:39:54 Terrasse 6.50 3.23 1.00
53793 2021-12-16 09:11:41 Terrasse 6.40 3.12 1.00
53792 2021-12-16 08:43:29 Terrasse 6.30 3.01 1.00
53791 2021-12-16 08:15:17 Terrasse 6.40 3.12 1.00
53790 2021-12-16 07:47:06 Terrasse 6.50 3.23 1.00
53789 2021-12-16 07:18:54 Terrasse 6.60 3.34 1.00
53788 2021-12-16 06:50:42 Terrasse 6.50 3.23 1.00
53787 2021-12-16 06:22:30 Terrasse 6.60 3.34 1.00
53786 2021-12-16 05:54:17 Terrasse 6.50 3.23 1.00
53785 2021-12-16 05:26:05 Terrasse 6.60 3.34 1.00
53784 2021-12-16 04:57:52 Terrasse 6.50 3.23 1.00
53783 2021-12-16 04:29:40 Terrasse 6.50 3.23 1.00
53782 2021-12-16 04:01:28 Terrasse 6.50 3.23 1.00
53781 2021-12-16 03:33:17 Terrasse 6.50 3.23 1.00
53780 2021-12-16 03:05:04 Terrasse 6.50 3.23 1.00
53779 2021-12-16 02:36:53 Terrasse 6.50 3.23 1.00
53778 2021-12-16 02:08:41 Terrasse 6.50 3.23 1.00
53777 2021-12-16 01:40:29 Terrasse 6.50 3.23 1.00
53776 2021-12-16 01:12:16 Terrasse 6.50 3.23 1.00
53775 2021-12-16 00:44:05 Terrasse 6.50 3.23 1.00
53774 2021-12-16 00:15:54 Terrasse 6.60 3.34 1.00
53773 2021-12-15 23:47:42 Terrasse 6.60 3.34 1.00
53772 2021-12-15 23:19:29 Terrasse 6.60 3.34 1.00
53771 2021-12-15 22:51:17 Terrasse 6.60 3.34 1.00
53770 2021-12-15 22:23:05 Terrasse 6.60 3.34 1.00
53769 2021-12-15 21:54:54 Terrasse 6.60 3.34 1.00
53768 2021-12-15 21:26:43 Terrasse 6.60 3.34 1.00
53767 2021-12-15 20:58:31 Terrasse 6.60 3.34 1.00
53766 2021-12-15 20:30:19 Terrasse 6.60 3.34 1.00
53765 2021-12-15 20:02:07 Terrasse 6.60 3.34 1.00
53764 2021-12-15 19:33:56 Terrasse 6.70 3.45 1.00
53763 2021-12-15 19:05:44 Terrasse 6.70 3.45 1.00
53762 2021-12-15 18:37:32 Terrasse 6.70 3.45 1.00
53761 2021-12-15 18:09:19 Terrasse 6.70 3.45 1.00
53760 2021-12-15 17:41:07 Terrasse 6.70 3.45 1.00
53759 2021-12-15 17:12:55 Terrasse 6.70 3.45 1.00
53758 2021-12-15 16:44:43 Terrasse 6.80 3.56 1.00
53757 2021-12-15 16:16:30 Terrasse 6.80 3.56 1.00
53756 2021-12-15 15:48:18 Terrasse 6.90 3.67 1.00
53755 2021-12-15 15:20:06 Terrasse 6.90 3.67 1.00
53754 2021-12-15 14:51:54 Terrasse 7.00 3.78 1.00
53753 2021-12-15 14:23:42 Terrasse 7.00 3.78 1.00
53752 2021-12-15 13:55:30 Terrasse 7.10 3.89 1.00
53751 2021-12-15 13:27:18 Terrasse 7.20 4.00 1.00
53750 2021-12-15 12:59:05 Terrasse 7.10 3.89 1.00
53749 2021-12-15 12:30:52 Terrasse 7.00 3.78 1.00
53748 2021-12-15 12:02:40 Terrasse 6.80 3.56 1.00
53747 2021-12-15 11:34:28 Terrasse 6.70 3.45 1.00
53746 2021-12-15 11:06:14 Terrasse 6.50 3.23 1.00
53745 2021-12-15 10:38:01 Terrasse 6.40 3.12 1.00
53744 2021-12-15 10:09:48 Terrasse 6.20 2.90 1.00
53743 2021-12-15 09:41:35 Terrasse 6.20 2.90 1.00
53742 2021-12-15 09:13:24 Terrasse 6.10 2.79 1.00
53741 2021-12-15 08:45:10 Terrasse 6.10 2.79 1.00
53740 2021-12-15 08:16:57 Terrasse 6.00 2.68 1.00
53739 2021-12-15 07:48:45 Terrasse 6.00 2.68 1.00
53738 2021-12-15 07:20:32 Terrasse 6.00 2.68 1.00
53737 2021-12-15 06:52:19 Terrasse 6.00 2.68 1.00
53736 2021-12-15 06:24:09 Terrasse 6.10 2.79 1.00
53735 2021-12-15 05:55:56 Terrasse 6.10 2.79 1.00
53734 2021-12-15 05:27:44 Terrasse 6.00 2.68 1.00
53733 2021-12-15 04:59:32 Terrasse 6.10 2.79 1.00
53732 2021-12-15 04:31:19 Terrasse 6.10 2.79 1.00
53731 2021-12-15 04:03:06 Terrasse 6.00 2.68 1.00
53730 2021-12-15 03:34:54 Terrasse 5.90 2.57 1.00
53729 2021-12-15 03:06:42 Terrasse 5.90 2.57 1.00
53728 2021-12-15 02:38:31 Terrasse 5.90 2.57 1.00
53727 2021-12-15 02:10:18 Terrasse 5.80 2.46 1.00
53726 2021-12-15 01:42:07 Terrasse 5.90 2.57 1.00
53725 2021-12-15 01:13:54 Terrasse 5.90 2.57 1.00
53724 2021-12-15 00:45:41 Terrasse 5.90 2.57 1.00
53723 2021-12-15 00:17:30 Terrasse 5.90 2.57 1.00
53722 2021-12-14 23:49:18 Terrasse 5.90 2.57 1.00
53721 2021-12-14 23:21:07 Terrasse 5.90 2.57 1.00
53720 2021-12-14 22:52:55 Terrasse 5.80 2.46 1.00
53719 2021-12-14 22:24:42 Terrasse 5.80 2.46 1.00
53718 2021-12-14 21:56:31 Terrasse 5.80 2.46 1.00
53717 2021-12-14 21:28:19 Terrasse 5.90 2.57 1.00
53716 2021-12-14 21:00:08 Terrasse 6.10 2.79 1.00
53715 2021-12-14 20:31:57 Terrasse 6.30 3.01 1.00
53714 2021-12-14 20:03:46 Terrasse 6.40 3.12 1.00
53713 2021-12-14 19:35:34 Terrasse 6.40 3.12 1.00
53712 2021-12-14 19:07:23 Terrasse 6.40 3.12 1.00
53711 2021-12-14 18:39:10 Terrasse 6.50 3.23 1.00
53710 2021-12-14 18:10:57 Terrasse 6.50 3.23 1.00
53709 2021-12-14 17:42:46 Terrasse 6.50 3.23 1.00
53708 2021-12-14 17:14:34 Terrasse 6.60 3.34 1.00
53707 2021-12-14 16:46:24 Terrasse 6.60 3.34 1.00
53706 2021-12-14 16:18:12 Terrasse 6.70 3.45 1.00
53705 2021-12-14 15:50:01 Terrasse 6.70 3.45 1.00
53704 2021-12-14 15:21:50 Terrasse 6.80 3.56 1.00
53703 2021-12-14 14:53:40 Terrasse 6.90 3.67 1.00
53702 2021-12-14 14:25:30 Terrasse 7.00 3.78 1.00
53701 2021-12-14 13:57:19 Terrasse 7.10 3.89 1.00
53700 2021-12-14 13:29:07 Terrasse 7.10 3.89 1.00
53699 2021-12-14 13:00:55 Terrasse 7.10 3.89 1.00
53698 2021-12-14 12:32:41 Terrasse 6.90 3.67 1.00
53697 2021-12-14 12:04:29 Terrasse 6.90 3.67 1.00
53696 2021-12-14 11:36:16 Terrasse 6.90 3.67 1.00
53695 2021-12-14 11:08:04 Terrasse 6.80 3.56 1.00
53694 2021-12-14 10:39:51 Terrasse 6.70 3.45 1.00
53693 2021-12-14 10:11:38 Terrasse 6.50 3.23 1.00
53692 2021-12-14 09:43:27 Terrasse 6.50 3.23 1.00
53691 2021-12-14 09:15:14 Terrasse 6.40 3.12 1.00
53690 2021-12-14 08:47:01 Terrasse 6.40 3.12 1.00
53689 2021-12-14 08:18:49 Terrasse 6.40 3.12 1.00
53688 2021-12-14 07:50:38 Terrasse 6.40 3.12 1.00
53687 2021-12-14 07:22:25 Terrasse 6.40 3.12 1.00
53686 2021-12-14 06:54:12 Terrasse 6.40 3.12 1.00
53685 2021-12-14 06:26:01 Terrasse 6.40 3.12 1.00
53684 2021-12-14 05:57:49 Terrasse 6.40 3.12 1.00
53683 2021-12-14 05:29:38 Terrasse 6.40 3.12 1.00
53682 2021-12-14 05:01:26 Terrasse 6.40 3.12 1.00
53681 2021-12-14 04:33:14 Terrasse 6.40 3.12 1.00
53680 2021-12-14 04:05:02 Terrasse 6.40 3.12 1.00
53679 2021-12-14 03:36:50 Terrasse 6.40 3.12 1.00
53678 2021-12-14 03:08:38 Terrasse 6.40 3.12 1.00
53677 2021-12-14 02:40:27 Terrasse 6.40 3.12 1.00
53676 2021-12-14 02:12:16 Terrasse 6.40 3.12 1.00
53675 2021-12-14 01:44:04 Terrasse 6.40 3.12 1.00
53674 2021-12-14 01:15:51 Terrasse 6.40 3.12 1.00
53673 2021-12-14 00:47:38 Terrasse 6.30 3.01 1.00
53672 2021-12-14 00:19:27 Terrasse 6.30 3.01 1.00
53671 2021-12-13 23:51:29 Terrasse 6.30 3.01 1.00
53670 2021-12-13 23:23:13 Terrasse 6.30 3.01 1.00
53669 2021-12-13 22:55:00 Terrasse 6.40 3.12 1.00
53668 2021-12-13 22:26:48 Terrasse 6.40 3.12 1.00
53667 2021-12-13 21:58:36 Terrasse 6.40 3.12 1.00
53666 2021-12-13 21:30:22 Terrasse 6.50 3.23 1.00
53665 2021-12-13 21:02:10 Terrasse 6.50 3.23 1.00
53664 2021-12-13 20:34:03 Terrasse 6.70 3.45 1.00
53663 2021-12-13 19:26:22 Terrasse 6.60 3.34 1.00
53662 2021-12-13 18:58:07 Terrasse 6.70 3.45 1.00
53661 2021-12-13 18:29:56 Terrasse 6.70 3.45 1.00
53660 2021-12-13 18:01:45 Terrasse 6.80 3.56 1.00
53659 2021-12-13 17:33:34 Terrasse 6.90 3.67 1.00
53658 2021-12-13 17:05:23 Terrasse 7.00 3.78 1.00
53657 2021-12-13 16:37:12 Terrasse 7.10 3.89 1.00
53656 2021-12-13 16:08:59 Terrasse 7.20 4.00 1.00
53655 2021-12-13 15:40:46 Terrasse 7.30 4.11 1.00
53654 2021-12-13 15:12:35 Terrasse 7.50 4.33 1.00
53653 2021-12-13 14:44:23 Terrasse 7.50 4.33 1.00
53652 2021-12-13 14:16:12 Terrasse 7.70 4.55 1.00
53651 2021-12-13 13:48:01 Terrasse 7.90 4.77 1.00
53650 2021-12-13 13:19:52 Terrasse 8.30 5.21 1.00
53649 2021-12-13 12:51:41 Terrasse 8.70 5.65 1.00
53648 2021-12-13 12:23:32 Terrasse 9.20 6.20 1.00
53647 2021-12-13 11:55:40 Terrasse 10.00 7.08 1.00
53646 2021-12-13 11:27:00 Terrasse 7.70 4.55 1.00
53645 2021-12-13 10:58:37 Terrasse 6.10 3.02 9.70
53644 2021-12-13 10:30:24 Terrasse 5.60 2.45 9.10
53643 2021-12-13 10:02:12 Terrasse 5.50 2.37 10.10
53642 2021-12-13 09:33:58 Terrasse 5.20 2.20 16.30
53641 2021-12-13 09:05:46 Terrasse 5.00 1.93 14.50
53640 2021-12-13 08:37:33 Terrasse 4.90 1.74 11.10
53639 2021-12-13 08:09:21 Terrasse 4.80 1.62 10.80
53638 2021-12-13 07:41:09 Terrasse 4.80 1.70 14.10
53637 2021-12-13 07:12:58 Terrasse 4.80 1.61 10.60
53636 2021-12-13 06:44:46 Terrasse 4.90 1.84 15.00
53635 2021-12-13 06:16:35 Terrasse 4.90 1.90 17.40
53634 2021-12-13 05:48:23 Terrasse 4.80 1.88 20.70
53633 2021-12-13 05:20:10 Terrasse 4.80 1.83 19.10
53632 2021-12-13 04:51:57 Terrasse 4.80 2.03 26.70
53631 2021-12-13 04:23:44 Terrasse 4.80 2.11 29.70
53630 2021-12-13 03:55:32 Terrasse 4.70 2.00 29.80
53629 2021-12-13 03:27:20 Terrasse 4.70 1.99 29.10
53628 2021-12-13 02:59:06 Terrasse 4.60 1.79 25.80
53627 2021-12-13 02:02:51 Terrasse 4.50 1.60 22.70
53626 2021-12-13 01:34:50 Terrasse 4.40 1.57 25.90
53625 2021-12-13 01:06:34 Terrasse 4.40 1.47 21.90
53624 2021-12-13 00:38:21 Terrasse 4.30 1.38 22.90
53623 2021-12-13 00:10:08 Terrasse 4.30 1.49 26.80
53622 2021-12-12 23:41:57 Terrasse 4.20 1.42 28.70
53621 2021-12-12 23:13:44 Terrasse 4.20 1.42 28.70
53620 2021-12-12 22:45:32 Terrasse 4.10 1.20 24.30
53619 2021-12-12 22:17:21 Terrasse 4.00 0.98 20.00
53618 2021-12-12 21:49:09 Terrasse 4.00 0.94 18.70
53617 2021-12-12 21:20:57 Terrasse 3.90 0.67 12.50
53616 2021-12-12 20:52:45 Terrasse 3.80 0.51 10.60
53615 2021-12-12 20:24:34 Terrasse 3.80 0.42 7.10
53614 2021-12-12 19:56:22 Terrasse 3.70 0.30 6.60
53613 2021-12-12 19:28:10 Terrasse 3.70 0.30 6.70
53612 2021-12-12 18:59:58 Terrasse 3.60 0.04 1.00
53611 2021-12-12 18:31:45 Terrasse 3.50 -0.07 1.00
53610 2021-12-12 18:03:33 Terrasse 3.50 -0.07 1.00
53609 2021-12-12 17:35:22 Terrasse 3.40 -0.18 1.00
53608 2021-12-12 17:07:10 Terrasse 3.30 -0.29 1.00
53607 2021-12-12 16:39:00 Terrasse 3.20 -0.40 1.00
53606 2021-12-12 16:10:47 Terrasse 3.20 -0.40 1.00
53605 2021-12-12 15:42:46 Terrasse 3.10 -0.51 1.00
53604 2021-12-12 15:14:30 Terrasse 3.10 -0.51 1.00
53603 2021-12-12 14:46:19 Terrasse 3.00 -0.62 1.00
53602 2021-12-12 14:18:07 Terrasse 2.90 -0.73 1.00
53601 2021-12-12 13:49:55 Terrasse 2.90 -0.73 1.00
53600 2021-12-12 13:21:43 Terrasse 2.80 -0.84 1.00
53599 2021-12-12 12:53:32 Terrasse 2.70 -0.95 1.00
53598 2021-12-12 12:25:20 Terrasse 2.50 -1.17 1.00
53597 2021-12-12 11:57:09 Terrasse 2.50 -1.17 1.00
53596 2021-12-12 11:28:57 Terrasse 2.40 -1.28 1.00
53595 2021-12-12 11:00:57 Terrasse 2.40 -1.28 1.00
53594 2021-12-12 10:32:42 Terrasse 2.30 -1.39 1.00
53593 2021-12-12 10:04:30 Terrasse 2.30 -1.39 1.00
53592 2021-12-12 09:36:19 Terrasse 2.10 -1.61 1.00
53591 2021-12-12 09:08:07 Terrasse 2.10 -1.61 1.00
53590 2021-12-12 08:39:56 Terrasse 2.10 -1.61 1.00
53589 2021-12-12 08:11:45 Terrasse 2.10 -1.61 1.00
53588 2021-12-12 07:43:34 Terrasse 2.10 -1.61 1.00
53587 2021-12-12 07:15:23 Terrasse 2.10 -1.61 1.00
53586 2021-12-12 06:47:12 Terrasse 2.00 -1.72 1.00
53585 2021-12-12 06:19:01 Terrasse 2.00 -1.72 1.00
53584 2021-12-12 05:50:49 Terrasse 2.00 -1.72 1.00
53583 2021-12-12 05:22:36 Terrasse 1.90 -1.83 1.00
53582 2021-12-12 04:54:23 Terrasse 1.80 -1.94 1.00
53581 2021-12-12 04:26:12 Terrasse 1.70 -2.05 1.00
53580 2021-12-12 03:58:00 Terrasse 1.70 -2.05 1.00
53579 2021-12-12 03:29:49 Terrasse 1.60 -2.16 1.00
53578 2021-12-12 03:01:39 Terrasse 1.70 -2.05 1.00
53577 2021-12-12 02:33:27 Terrasse 1.80 -1.94 1.00
53576 2021-12-12 02:05:15 Terrasse 1.90 -1.83 1.00
53575 2021-12-12 01:37:04 Terrasse 1.90 -1.83 1.00
53574 2021-12-12 01:08:55 Terrasse 2.10 -1.61 1.00
53573 2021-12-12 00:40:45 Terrasse 2.30 -1.39 1.00
53572 2021-12-12 00:12:35 Terrasse 2.70 -0.95 1.00
53571 2021-12-11 23:44:26 Terrasse 3.10 -0.51 1.00
53570 2021-12-11 23:16:16 Terrasse 3.40 -0.18 1.00
53569 2021-12-11 22:48:04 Terrasse 3.40 -0.18 1.00
53568 2021-12-11 22:19:54 Terrasse 3.40 -0.18 1.00
53567 2021-12-11 21:51:46 Terrasse 3.50 -0.07 1.00
53566 2021-12-11 21:23:36 Terrasse 3.50 -0.07 1.00
53565 2021-12-11 20:55:23 Terrasse 3.50 -0.07 1.00
53564 2021-12-11 20:27:13 Terrasse 3.50 -0.07 1.00
53563 2021-12-11 19:59:02 Terrasse 3.40 -0.18 1.00
53562 2021-12-11 19:30:51 Terrasse 3.40 -0.18 1.00
53561 2021-12-11 19:02:40 Terrasse 3.30 -0.29 1.00
53560 2021-12-11 18:34:28 Terrasse 3.30 -0.29 1.00
53559 2021-12-11 18:06:18 Terrasse 3.30 -0.29 1.00
53558 2021-12-11 17:38:06 Terrasse 3.30 -0.29 1.00
53557 2021-12-11 17:09:56 Terrasse 3.30 -0.29 1.00
53556 2021-12-11 16:41:45 Terrasse 3.30 -0.29 1.00
53555 2021-12-11 16:13:35 Terrasse 3.40 -0.18 1.00
53554 2021-12-11 15:45:25 Terrasse 3.30 -0.29 1.00
53553 2021-12-11 15:17:15 Terrasse 3.50 -0.07 1.00
53552 2021-12-11 14:49:05 Terrasse 3.80 0.26 1.00
53551 2021-12-11 14:20:56 Terrasse 4.10 3.17 99.90
53550 2021-12-11 13:52:49 Terrasse 4.50 1.03 1.00
53549 2021-12-11 13:24:44 Terrasse 5.20 1.80 1.00
53548 2021-12-11 12:56:31 Terrasse 5.40 4.60 99.90
53547 2021-12-11 12:28:14 Terrasse 4.90 4.05 99.90
53546 2021-12-11 12:00:05 Terrasse 4.70 3.83 99.90
53545 2021-12-11 11:31:51 Terrasse 4.80 1.36 1.00
53544 2021-12-11 11:03:34 Terrasse 3.90 2.88 97.00
53543 2021-12-11 10:35:16 Terrasse 3.00 1.96 99.90
53542 2021-12-11 10:07:04 Terrasse 2.70 1.63 99.90
53541 2021-12-11 09:38:51 Terrasse 2.20 -1.50 1.00
53540 2021-12-11 09:10:37 Terrasse 1.80 -1.94 1.00
53539 2021-12-11 08:42:25 Terrasse 1.60 -2.16 1.00
53538 2021-12-11 08:14:15 Terrasse 1.70 -2.05 1.00
53537 2021-12-11 07:46:04 Terrasse 1.70 -2.05 1.00
53536 2021-12-11 07:17:54 Terrasse 1.80 -1.94 1.00
53535 2021-12-11 06:49:44 Terrasse 1.90 -1.83 1.00
53534 2021-12-11 06:21:34 Terrasse 1.90 -1.83 1.00
53533 2021-12-11 05:53:22 Terrasse 1.90 -1.83 1.00
53532 2021-12-11 05:25:12 Terrasse 1.90 -1.83 1.00
53531 2021-12-11 04:57:01 Terrasse 1.90 -1.83 1.00
53530 2021-12-11 04:28:50 Terrasse 2.00 -1.72 1.00
53529 2021-12-11 04:00:39 Terrasse 2.00 -1.72 1.00
53528 2021-12-11 03:32:28 Terrasse 2.10 -1.61 1.00
53527 2021-12-11 03:04:16 Terrasse 1.90 -1.83 1.00
53526 2021-12-11 02:36:05 Terrasse 1.90 -1.83 1.00
53525 2021-12-11 02:07:55 Terrasse 1.90 -1.83 1.00
53524 2021-12-11 01:39:44 Terrasse 1.90 -1.83 1.00
53523 2021-12-11 01:11:34 Terrasse 1.80 -1.94 1.00
53522 2021-12-11 00:43:23 Terrasse 1.80 -1.94 1.00
53521 2021-12-11 00:15:11 Terrasse 1.80 -1.94 1.00
53520 2021-12-10 23:47:01 Terrasse 1.80 -1.94 1.00
53519 2021-12-10 23:18:49 Terrasse 1.80 -1.94 1.00
53518 2021-12-10 22:50:38 Terrasse 1.90 -1.83 1.00
53517 2021-12-10 22:22:27 Terrasse 1.80 -1.94 1.00
53516 2021-12-10 21:54:16 Terrasse 1.80 -1.94 1.00
53515 2021-12-10 21:26:03 Terrasse 1.90 -1.83 1.00
53514 2021-12-10 20:57:56 Terrasse 1.90 -1.83 1.00
53513 2021-12-10 20:30:26 Terrasse 1.90 -1.83 1.00
53512 2021-12-10 20:01:53 Terrasse 2.00 -1.72 1.00
53511 2021-12-10 19:33:41 Terrasse 1.90 -1.83 1.00
53510 2021-12-10 19:05:31 Terrasse 1.90 -1.83 1.00
53509 2021-12-10 18:37:21 Terrasse 2.10 -1.61 1.00
53508 2021-12-10 18:09:11 Terrasse 2.10 -1.61 1.00
53507 2021-12-10 17:41:00 Terrasse 2.10 -1.61 1.00
53506 2021-12-10 17:13:01 Terrasse 2.10 -1.61 1.00
53505 2021-12-10 16:44:47 Terrasse 2.20 -1.50 1.00
53504 2021-12-10 16:16:37 Terrasse 2.30 -1.39 1.00
53503 2021-12-10 15:48:27 Terrasse 2.60 -1.06 1.00
53502 2021-12-10 15:20:16 Terrasse 2.60 -1.06 1.00
53501 2021-12-10 14:52:05 Terrasse 2.60 1.52 99.90
53500 2021-12-10 14:23:56 Terrasse 2.80 1.74 99.90
53499 2021-12-10 13:55:46 Terrasse 3.00 -0.62 1.00
53498 2021-12-10 13:27:35 Terrasse 3.20 -0.40 1.00
53497 2021-12-10 12:59:25 Terrasse 3.40 -0.18 1.00
53496 2021-12-10 12:31:15 Terrasse 3.60 2.62 99.90
53495 2021-12-10 12:03:01 Terrasse 3.60 2.62 99.90
53494 2021-12-10 11:34:49 Terrasse 3.30 2.29 99.90
53493 2021-12-10 11:06:35 Terrasse 3.10 2.07 99.90
53492 2021-12-10 10:38:21 Terrasse 2.80 -0.84 1.00
53491 2021-12-10 10:10:08 Terrasse 2.40 -1.28 1.00
53490 2021-12-10 09:41:55 Terrasse 2.10 -1.61 1.00
53489 2021-12-10 09:13:43 Terrasse 2.00 -1.72 1.00
53488 2021-12-10 08:45:32 Terrasse 1.90 -1.83 1.00
53487 2021-12-10 08:17:21 Terrasse 1.90 -1.83 1.00
53486 2021-12-10 07:49:10 Terrasse 2.00 -1.72 1.00
53485 2021-12-10 07:21:01 Terrasse 2.00 -1.72 1.00
53484 2021-12-10 06:52:51 Terrasse 2.30 -1.39 1.00
53483 2021-12-10 06:24:41 Terrasse 2.50 -1.17 1.00
53482 2021-12-10 05:56:31 Terrasse 2.60 -1.06 1.00
53481 2021-12-10 05:28:20 Terrasse 2.70 -0.95 1.00
53480 2021-12-10 05:00:09 Terrasse 2.70 -0.95 1.00
53479 2021-12-10 04:31:57 Terrasse 2.60 -1.06 1.00
53478 2021-12-10 04:03:47 Terrasse 2.70 -0.95 1.00
53477 2021-12-10 03:35:36 Terrasse 2.70 -0.95 1.00
53476 2021-12-10 03:07:24 Terrasse 2.70 -0.95 1.00
53475 2021-12-10 02:39:11 Terrasse 2.70 -0.95 1.00
53474 2021-12-10 02:10:59 Terrasse 2.70 -0.95 1.00
53473 2021-12-10 01:42:47 Terrasse 2.70 -0.95 1.00
53472 2021-12-10 01:14:37 Terrasse 2.70 -0.95 1.00
53471 2021-12-10 00:46:25 Terrasse 2.70 -0.95 1.00
53470 2021-12-10 00:18:14 Terrasse 2.60 -1.06 1.00
53469 2021-12-09 23:50:02 Terrasse 2.60 -1.06 1.00
53468 2021-12-09 23:21:51 Terrasse 2.60 -1.06 1.00
53467 2021-12-09 22:53:40 Terrasse 2.60 -1.06 1.00
53466 2021-12-09 22:25:28 Terrasse 2.60 -1.06 1.00
53465 2021-12-09 21:57:16 Terrasse 2.60 -1.06 1.00
53464 2021-12-09 21:29:04 Terrasse 2.60 -1.06 1.00
53463 2021-12-09 21:00:54 Terrasse 2.70 -0.95 1.00
53462 2021-12-09 20:32:44 Terrasse 2.80 -0.84 1.00
53461 2021-12-09 20:04:32 Terrasse 2.80 -0.84 1.00
53460 2021-12-09 19:36:20 Terrasse 2.80 -0.84 1.00
53459 2021-12-09 19:08:09 Terrasse 2.80 -0.84 1.00
53458 2021-12-09 18:39:58 Terrasse 2.80 -0.84 1.00
53457 2021-12-09 18:11:46 Terrasse 2.90 -0.73 1.00
53456 2021-12-09 17:43:34 Terrasse 2.90 -0.73 1.00
53455 2021-12-09 17:15:22 Terrasse 2.90 -0.73 1.00
53454 2021-12-09 16:47:11 Terrasse 2.90 -0.73 1.00
53453 2021-12-09 16:19:01 Terrasse 3.00 -0.62 1.00
53452 2021-12-09 15:50:50 Terrasse 3.00 -0.62 1.00
53451 2021-12-09 15:22:39 Terrasse 3.00 -0.62 1.00
53450 2021-12-09 14:54:28 Terrasse 3.00 -0.62 1.00
53449 2021-12-09 14:26:29 Terrasse 3.10 -0.51 1.00
53448 2021-12-09 13:58:14 Terrasse 3.00 -0.62 1.00
53447 2021-12-09 13:30:02 Terrasse 3.10 -0.51 1.00
53446 2021-12-09 13:01:52 Terrasse 3.30 -0.29 1.00
53445 2021-12-09 12:33:43 Terrasse 3.70 0.15 1.00
53444 2021-12-09 12:05:25 Terrasse 2.70 -0.95 1.00
53443 2021-12-09 11:37:14 Terrasse 2.70 -0.95 1.00
53442 2021-12-09 11:09:01 Terrasse 2.60 -1.06 1.00
53441 2021-12-09 10:40:48 Terrasse 2.30 -1.39 1.00
53440 2021-12-09 10:12:34 Terrasse 1.70 -2.05 1.00
53439 2021-12-09 09:44:23 Terrasse 1.70 -2.05 1.00
53438 2021-12-09 09:16:12 Terrasse 1.60 -2.16 1.00
53437 2021-12-09 08:48:00 Terrasse 1.60 -2.16 1.00
53436 2021-12-09 08:19:49 Terrasse 1.60 -2.16 1.00
53435 2021-12-09 07:51:39 Terrasse 1.80 -1.94 1.00
53434 2021-12-09 07:23:28 Terrasse 1.90 -1.83 1.00
53433 2021-12-09 06:55:18 Terrasse 2.10 -1.61 1.00
53432 2021-12-09 06:27:08 Terrasse 2.30 -1.39 1.00
53431 2021-12-09 05:58:56 Terrasse 2.50 -1.17 1.00
53430 2021-12-09 05:30:45 Terrasse 2.40 -1.28 1.00
53429 2021-12-09 05:02:34 Terrasse 2.40 -1.28 1.00
53428 2021-12-09 04:34:23 Terrasse 2.20 -1.50 1.00
53427 2021-12-09 04:06:13 Terrasse 2.30 -1.39 1.00
53426 2021-12-09 03:38:03 Terrasse 2.50 -1.17 1.00
53425 2021-12-09 03:09:54 Terrasse 2.80 -0.84 1.00
53424 2021-12-09 02:41:44 Terrasse 3.10 -0.51 1.00
53423 2021-12-09 02:13:33 Terrasse 3.40 -0.18 1.00
53422 2021-12-09 01:45:35 Terrasse 3.40 -0.18 1.00
53421 2021-12-09 01:17:20 Terrasse 3.40 -0.18 1.00
53420 2021-12-09 00:49:08 Terrasse 3.40 -0.18 1.00
53419 2021-12-09 00:20:56 Terrasse 3.30 -0.29 1.00
53418 2021-12-08 23:52:45 Terrasse 3.20 -0.40 1.00
53417 2021-12-08 23:24:34 Terrasse 3.10 -0.51 1.00
53416 2021-12-08 22:56:23 Terrasse 3.20 -0.40 1.00
53415 2021-12-08 22:28:12 Terrasse 3.30 -0.29 1.00
53414 2021-12-08 22:00:02 Terrasse 3.40 -0.18 1.00
53413 2021-12-08 21:31:52 Terrasse 3.70 0.15 1.00
53412 2021-12-08 21:03:41 Terrasse 3.70 0.15 1.00
53411 2021-12-08 20:35:30 Terrasse 3.60 0.04 1.00
53410 2021-12-08 20:07:19 Terrasse 3.60 0.04 1.00
53409 2021-12-08 19:39:09 Terrasse 3.60 0.04 1.00
53408 2021-12-08 19:10:58 Terrasse 3.60 0.04 1.00
53407 2021-12-08 18:42:48 Terrasse 3.60 0.04 1.00
53406 2021-12-08 18:14:38 Terrasse 3.60 0.04 1.00
53405 2021-12-08 17:46:27 Terrasse 3.60 0.04 1.00
53404 2021-12-08 17:18:16 Terrasse 3.70 0.15 1.00
53403 2021-12-08 16:50:04 Terrasse 3.70 0.15 1.00
53402 2021-12-08 16:21:53 Terrasse 3.70 0.15 1.00
53401 2021-12-08 15:53:42 Terrasse 3.80 0.26 1.00
53400 2021-12-08 15:25:32 Terrasse 3.70 0.15 1.00
53399 2021-12-08 14:57:20 Terrasse 3.70 0.15 1.00
53398 2021-12-08 14:29:09 Terrasse 3.70 0.15 1.00
53397 2021-12-08 14:00:58 Terrasse 3.60 0.04 1.00
53396 2021-12-08 13:32:48 Terrasse 3.60 0.04 1.00
53395 2021-12-08 13:04:37 Terrasse 3.50 -0.07 1.00
53394 2021-12-08 12:36:24 Terrasse 3.30 -0.29 1.00
53393 2021-12-08 12:08:13 Terrasse 3.20 -0.40 1.00
53392 2021-12-08 11:40:00 Terrasse 3.10 -0.51 1.00
53391 2021-12-08 11:11:59 Terrasse 2.90 -0.73 1.00
53390 2021-12-08 10:43:45 Terrasse 2.80 -0.84 1.00
53389 2021-12-08 10:15:36 Terrasse 2.70 -0.95 1.00
53388 2021-12-08 09:47:24 Terrasse 2.60 -1.06 1.00
53387 2021-12-08 09:19:12 Terrasse 2.50 -1.17 1.00
53386 2021-12-08 08:51:01 Terrasse 2.40 -1.28 1.00
53385 2021-12-08 08:22:52 Terrasse 2.40 -1.28 1.00
53384 2021-12-08 07:54:40 Terrasse 2.30 -1.39 1.00
53383 2021-12-08 07:26:29 Terrasse 2.20 -1.50 1.00
53382 2021-12-08 06:58:17 Terrasse 2.20 -1.50 1.00
53381 2021-12-08 06:30:07 Terrasse 2.10 -1.61 1.00
53380 2021-12-08 06:01:56 Terrasse 2.10 -1.61 1.00
53379 2021-12-08 05:33:46 Terrasse 2.00 -1.72 1.00
53378 2021-12-08 05:05:35 Terrasse 2.10 -1.61 1.00
53377 2021-12-08 04:37:26 Terrasse 2.00 -1.72 1.00
53376 2021-12-08 04:09:17 Terrasse 2.10 -1.61 1.00
53375 2021-12-08 03:41:10 Terrasse 2.10 -1.61 1.00
53374 2021-12-08 03:12:58 Terrasse 2.10 -1.61 1.00
53373 2021-12-08 02:44:47 Terrasse 2.20 -1.50 1.00
53372 2021-12-08 02:16:37 Terrasse 2.20 -1.50 1.00
53371 2021-12-08 01:48:27 Terrasse 2.40 -1.28 1.00
53370 2021-12-08 01:20:19 Terrasse 2.60 1.52 99.90
53369 2021-12-08 00:52:07 Terrasse 2.60 1.52 99.90
53368 2021-12-08 00:23:56 Terrasse 2.60 1.52 99.90
53367 2021-12-07 23:55:46 Terrasse 2.60 1.52 99.90
53366 2021-12-07 23:27:35 Terrasse 2.60 1.52 99.90
53365 2021-12-07 22:59:24 Terrasse 2.60 1.52 99.90
53364 2021-12-07 22:31:14 Terrasse 2.60 1.52 99.90
53363 2021-12-07 22:03:02 Terrasse 2.70 1.63 99.90
53362 2021-12-07 21:34:51 Terrasse 2.80 1.74 99.90
53361 2021-12-07 21:06:41 Terrasse 2.90 -0.73 1.00
53360 2021-12-07 20:38:31 Terrasse 3.00 1.96 99.90
53359 2021-12-07 20:10:19 Terrasse 3.10 2.07 99.90
53358 2021-12-07 19:42:08 Terrasse 3.10 2.07 99.90
53357 2021-12-07 19:13:57 Terrasse 3.20 2.18 99.90
53356 2021-12-07 18:45:46 Terrasse 3.20 2.18 99.90
53355 2021-12-07 18:17:35 Terrasse 3.30 2.29 99.90
53354 2021-12-07 17:49:25 Terrasse 3.30 -0.29 1.00
53353 2021-12-07 17:21:14 Terrasse 3.20 -0.40 1.00
53352 2021-12-07 16:53:07 Terrasse 3.10 2.07 99.90
53351 2021-12-07 16:24:57 Terrasse 3.60 2.12 80.60
53350 2021-12-07 15:56:47 Terrasse 4.00 0.48 1.00
53349 2021-12-07 15:28:38 Terrasse 4.30 0.81 1.00
53348 2021-12-07 15:00:30 Terrasse 4.50 1.03 1.00
53347 2021-12-07 14:32:27 Terrasse 5.80 2.46 1.00
53346 2021-12-07 14:04:10 Terrasse 5.80 2.46 1.00
53345 2021-12-07 13:35:53 Terrasse 4.50 3.61 99.90
53344 2021-12-07 13:07:39 Terrasse 4.20 3.28 99.90
53343 2021-12-07 12:39:25 Terrasse 3.70 0.15 1.00
53342 2021-12-07 12:11:12 Terrasse 3.20 -0.40 1.00
53341 2021-12-07 11:43:00 Terrasse 3.00 -0.62 1.00
53340 2021-12-07 11:14:47 Terrasse 2.90 -0.73 1.00
53339 2021-12-07 10:46:35 Terrasse 2.80 -0.84 1.00
53338 2021-12-07 10:18:24 Terrasse 2.70 -0.95 1.00
53337 2021-12-07 09:50:11 Terrasse 2.60 -1.06 1.00
53336 2021-12-07 09:22:00 Terrasse 2.60 -1.06 1.00
53335 2021-12-07 08:53:47 Terrasse 2.60 -1.06 1.00
53334 2021-12-07 08:25:36 Terrasse 2.50 -1.17 1.00
53333 2021-12-07 07:57:24 Terrasse 2.50 -1.17 1.00
53332 2021-12-07 07:29:12 Terrasse 2.40 -1.28 1.00
53331 2021-12-07 07:01:00 Terrasse 2.30 -1.39 1.00
53330 2021-12-07 06:32:46 Terrasse 2.20 -1.50 1.00
53329 2021-12-07 06:04:35 Terrasse 2.10 -1.61 1.00
53328 2021-12-07 05:36:23 Terrasse 2.00 -1.72 1.00
53327 2021-12-07 05:08:09 Terrasse 1.80 -1.94 1.00
53326 2021-12-07 04:40:02 Terrasse 1.70 -2.05 1.00
53325 2021-12-07 04:11:49 Terrasse 1.70 -2.05 1.00
53324 2021-12-07 03:43:38 Terrasse 1.70 -2.05 1.00
53323 2021-12-07 03:15:28 Terrasse 1.80 -1.94 1.00
53322 2021-12-07 02:47:20 Terrasse 1.80 -1.94 1.00
53321 2021-12-07 02:19:08 Terrasse 1.90 -1.83 1.00
53320 2021-12-07 01:50:58 Terrasse 1.90 -1.83 1.00
53319 2021-12-07 01:22:46 Terrasse 2.00 -1.72 1.00
53318 2021-12-07 00:54:35 Terrasse 2.10 -1.61 1.00
53317 2021-12-07 00:26:24 Terrasse 2.20 -1.50 1.00
53316 2021-12-06 23:58:14 Terrasse 2.30 -1.39 1.00
53315 2021-12-06 23:30:05 Terrasse 2.60 -1.06 1.00
53314 2021-12-06 23:01:55 Terrasse 2.60 -1.06 1.00
53313 2021-12-06 22:33:45 Terrasse 2.60 -1.06 1.00
53312 2021-12-06 22:05:34 Terrasse 2.60 -1.06 1.00
53311 2021-12-06 21:37:24 Terrasse 2.70 -0.95 1.00
53310 2021-12-06 21:09:14 Terrasse 2.80 -0.84 1.00
53309 2021-12-06 20:41:03 Terrasse 2.90 1.85 99.90
53308 2021-12-06 20:12:53 Terrasse 3.00 1.96 99.90
53307 2021-12-06 19:44:43 Terrasse 3.10 2.07 99.90
53306 2021-12-06 19:16:33 Terrasse 3.20 2.18 99.90
53305 2021-12-06 18:48:23 Terrasse 3.30 -0.29 1.00
53304 2021-12-06 18:20:13 Terrasse 3.30 -0.29 1.00
53303 2021-12-06 17:52:02 Terrasse 3.50 -0.07 1.00
53302 2021-12-06 17:23:52 Terrasse 3.60 0.04 1.00
53301 2021-12-06 16:55:43 Terrasse 3.70 0.15 1.00
53300 2021-12-06 16:27:34 Terrasse 4.00 0.48 1.00
53299 2021-12-06 15:59:24 Terrasse 4.30 0.81 1.00
53298 2021-12-06 15:31:16 Terrasse 4.60 1.14 1.00
53297 2021-12-06 15:03:07 Terrasse 5.00 4.16 99.90
53296 2021-12-06 14:34:54 Terrasse 5.70 4.93 99.90
53295 2021-12-06 14:06:47 Terrasse 6.10 5.37 99.90
53294 2021-12-06 13:38:33 Terrasse 5.10 1.69 1.00
53293 2021-12-06 13:10:25 Terrasse 5.10 1.69 1.00
53292 2021-12-06 12:42:23 Terrasse 5.70 4.93 99.90
53291 2021-12-06 12:14:14 Terrasse 6.40 5.70 99.90
53290 2021-12-06 11:46:06 Terrasse 5.50 2.13 1.00
53289 2021-12-06 11:17:38 Terrasse 5.10 1.69 1.00
53288 2021-12-06 10:49:19 Terrasse 4.20 0.70 1.00
53287 2021-12-06 10:21:04 Terrasse 3.50 -0.07 1.00
53286 2021-12-06 09:52:50 Terrasse 3.30 -0.29 1.00
53285 2021-12-06 09:24:38 Terrasse 3.00 -0.62 1.00
53284 2021-12-06 08:56:26 Terrasse 2.90 -0.73 1.00
53283 2021-12-06 08:29:33 Terrasse 2.60 -1.06 1.00
53282 2021-12-06 07:57:19 Terrasse 2.50 -1.17 1.00
53281 2021-12-06 07:29:08 Terrasse 2.50 -1.17 1.00
53280 2021-12-06 07:00:57 Terrasse 2.50 -1.17 1.00
53279 2021-12-06 06:32:47 Terrasse 2.40 -1.28 1.00
53278 2021-12-06 06:04:36 Terrasse 2.40 -1.28 1.00
53277 2021-12-06 05:36:25 Terrasse 2.30 -1.39 1.00
53276 2021-12-06 05:08:14 Terrasse 2.30 -1.39 1.00
53275 2021-12-06 04:40:03 Terrasse 2.20 -1.50 1.00
53274 2021-12-06 04:11:51 Terrasse 2.20 -1.50 1.00
53273 2021-12-06 03:43:39 Terrasse 2.30 -1.39 1.00
53272 2021-12-06 03:15:28 Terrasse 2.20 -1.50 1.00
53271 2021-12-06 02:47:17 Terrasse 2.20 -1.50 1.00
53270 2021-12-06 02:19:07 Terrasse 2.10 -1.61 1.00
53269 2021-12-06 01:50:58 Terrasse 2.30 -1.39 1.00
53268 2021-12-06 01:22:50 Terrasse 2.70 -0.95 1.00
53267 2021-12-06 00:54:40 Terrasse 3.10 -0.51 1.00
53266 2021-12-06 00:26:29 Terrasse 3.20 -0.40 1.00
53265 2021-12-05 23:58:18 Terrasse 3.20 -0.40 1.00
53264 2021-12-05 23:30:06 Terrasse 3.30 -0.29 1.00
53263 2021-12-05 23:01:54 Terrasse 3.20 -0.40 1.00
53262 2021-12-05 22:33:42 Terrasse 3.20 -0.40 1.00
53261 2021-12-05 22:05:32 Terrasse 3.30 -0.29 1.00
53260 2021-12-05 21:37:21 Terrasse 3.30 -0.29 1.00
53259 2021-12-05 21:09:09 Terrasse 3.20 -0.40 1.00
53258 2021-12-05 20:40:58 Terrasse 3.20 -0.40 1.00
53257 2021-12-05 20:12:47 Terrasse 3.30 -0.29 1.00
53256 2021-12-05 19:44:38 Terrasse 3.30 -0.29 1.00
53255 2021-12-05 19:16:27 Terrasse 3.30 -0.29 1.00
53254 2021-12-05 18:48:17 Terrasse 3.20 -0.40 1.00
53253 2021-12-05 18:20:08 Terrasse 3.30 -0.29 1.00
53252 2021-12-05 17:52:01 Terrasse 3.80 0.26 1.00
53251 2021-12-05 17:23:51 Terrasse 3.90 0.37 1.00
53250 2021-12-05 16:55:41 Terrasse 4.00 0.48 1.00
53249 2021-12-05 16:27:31 Terrasse 4.10 0.59 1.00
53248 2021-12-05 15:59:22 Terrasse 4.40 0.92 1.00
53247 2021-12-05 15:31:15 Terrasse 4.90 1.47 1.00
53246 2021-12-05 15:03:02 Terrasse 4.30 0.81 1.00
53245 2021-12-05 14:34:51 Terrasse 4.30 0.81 1.00
53244 2021-12-05 14:06:39 Terrasse 4.30 0.81 1.00
53243 2021-12-05 13:38:29 Terrasse 4.30 0.81 1.00
53242 2021-12-05 13:10:19 Terrasse 4.20 0.70 1.00
53241 2021-12-05 12:42:07 Terrasse 4.00 0.48 1.00
53240 2021-12-05 12:13:53 Terrasse 3.70 0.15 1.00
53239 2021-12-05 11:45:43 Terrasse 3.40 -0.18 1.00
53238 2021-12-05 11:17:34 Terrasse 3.50 -0.07 1.00
53237 2021-12-05 10:49:20 Terrasse 3.20 -0.40 1.00
53236 2021-12-05 10:21:10 Terrasse 3.10 -0.51 1.00
53235 2021-12-05 09:52:58 Terrasse 2.90 -0.73 1.00
53234 2021-12-05 09:24:47 Terrasse 2.90 -0.73 1.00
53233 2021-12-05 08:56:35 Terrasse 2.80 -0.84 1.00
53232 2021-12-05 08:28:25 Terrasse 2.80 -0.84 1.00
53231 2021-12-05 08:00:15 Terrasse 2.70 -0.95 1.00
53230 2021-12-05 07:32:03 Terrasse 2.70 -0.95 1.00
53229 2021-12-05 07:03:53 Terrasse 2.70 -0.95 1.00
53228 2021-12-05 06:35:43 Terrasse 2.70 -0.95 1.00
53227 2021-12-05 06:07:33 Terrasse 2.70 -0.95 1.00
53226 2021-12-05 05:39:21 Terrasse 2.80 -0.84 1.00
53225 2021-12-05 05:11:09 Terrasse 2.70 -0.95 1.00
53224 2021-12-05 04:43:00 Terrasse 2.70 -0.95 1.00
53223 2021-12-05 04:14:50 Terrasse 2.70 -0.95 1.00
53222 2021-12-05 03:46:38 Terrasse 2.70 -0.95 1.00
53221 2021-12-05 03:18:28 Terrasse 2.80 -0.84 1.00
53220 2021-12-05 02:50:17 Terrasse 2.80 -0.84 1.00
53219 2021-12-05 02:22:07 Terrasse 2.70 -0.95 1.00
53218 2021-12-05 01:53:55 Terrasse 2.70 -0.95 1.00
53217 2021-12-05 01:25:45 Terrasse 2.70 -0.95 1.00
53216 2021-12-05 00:57:33 Terrasse 2.80 -0.84 1.00
53215 2021-12-05 00:29:23 Terrasse 2.80 -0.84 1.00
53214 2021-12-05 00:01:14 Terrasse 3.00 -0.62 1.00
53213 2021-12-04 23:33:06 Terrasse 3.20 -0.40 1.00
53212 2021-12-04 23:04:56 Terrasse 3.40 -0.18 1.00
53211 2021-12-04 22:36:48 Terrasse 3.50 -0.07 1.00
53210 2021-12-04 22:08:37 Terrasse 3.60 0.04 1.00
53209 2021-12-04 21:40:29 Terrasse 3.80 0.26 1.00
53208 2021-12-04 21:12:19 Terrasse 3.80 0.26 1.00
53207 2021-12-04 20:44:11 Terrasse 3.80 0.26 1.00
53206 2021-12-04 20:15:58 Terrasse 3.80 0.26 1.00
53205 2021-12-04 19:47:47 Terrasse 3.70 0.15 1.00
53204 2021-12-04 19:19:35 Terrasse 3.60 0.04 1.00
53203 2021-12-04 18:51:24 Terrasse 3.60 0.04 1.00
53202 2021-12-04 18:23:10 Terrasse 3.20 -0.40 1.00
53201 2021-12-04 17:55:00 Terrasse 2.90 -0.73 1.00
53200 2021-12-04 17:26:49 Terrasse 2.80 -0.84 1.00
53199 2021-12-04 16:58:38 Terrasse 2.80 -0.84 1.00
53198 2021-12-04 16:30:27 Terrasse 2.80 -0.84 1.00
53197 2021-12-04 16:02:16 Terrasse 2.80 -0.84 1.00
53196 2021-12-04 15:34:07 Terrasse 2.80 -0.84 1.00
53195 2021-12-04 15:05:57 Terrasse 2.80 -0.84 1.00
53194 2021-12-04 14:37:46 Terrasse 2.70 -0.95 1.00
53193 2021-12-04 14:09:36 Terrasse 2.70 -0.95 1.00
53192 2021-12-04 13:41:26 Terrasse 2.70 -0.95 1.00
53191 2021-12-04 13:13:14 Terrasse 2.50 -1.17 1.00
53190 2021-12-04 12:45:04 Terrasse 2.50 -1.17 1.00
53189 2021-12-04 12:16:54 Terrasse 2.50 -1.17 1.00
53188 2021-12-04 11:48:44 Terrasse 2.40 -1.28 1.00
53187 2021-12-04 11:20:33 Terrasse 2.20 -1.50 1.00
53186 2021-12-04 10:52:21 Terrasse 2.10 -1.61 1.00
53185 2021-12-04 10:24:10 Terrasse 2.00 -1.72 1.00
53184 2021-12-04 09:56:00 Terrasse 1.80 -1.94 1.00
53183 2021-12-04 09:27:48 Terrasse 1.70 -2.05 1.00
53182 2021-12-04 08:59:37 Terrasse 1.60 -2.16 1.00
53181 2021-12-04 08:31:27 Terrasse 1.50 -2.27 1.00
53180 2021-12-04 08:03:15 Terrasse 1.40 -2.38 1.00
53179 2021-12-04 07:35:04 Terrasse 1.30 -2.49 1.00
53178 2021-12-04 07:06:54 Terrasse 1.30 -2.49 1.00
53177 2021-12-04 06:38:43 Terrasse 1.20 -2.60 1.00
53176 2021-12-04 06:10:33 Terrasse 1.20 -2.60 1.00
53175 2021-12-04 05:42:51 Terrasse 1.20 -2.60 1.00
53174 2021-12-04 05:15:02 Terrasse 1.30 -2.49 1.00
53173 2021-12-04 04:47:16 Terrasse 1.30 -2.49 1.00
53172 2021-12-04 04:19:33 Terrasse 1.40 -2.38 1.00
53171 2021-12-04 03:51:27 Terrasse 1.40 -2.38 1.00
53170 2021-12-04 03:23:46 Terrasse 1.50 -2.27 1.00
53169 2021-12-04 02:55:55 Terrasse 1.60 -2.16 1.00
53168 2021-12-04 02:27:41 Terrasse 1.60 -2.16 1.00
53167 2021-12-04 02:00:13 Terrasse 1.60 -2.16 1.00
53166 2021-12-04 01:32:08 Terrasse 1.60 -2.16 1.00
53165 2021-12-04 01:04:29 Terrasse 1.50 -2.27 1.00
53164 2021-12-04 00:36:30 Terrasse 1.50 -2.27 1.00
53163 2021-12-04 00:08:31 Terrasse 1.50 -2.27 1.00
53162 2021-12-03 23:40:10 Terrasse 1.50 -2.27 1.00
53161 2021-12-03 23:12:00 Terrasse 1.60 -2.16 1.00
53160 2021-12-03 22:43:49 Terrasse 1.50 -2.27 1.00
53159 2021-12-03 22:16:10 Terrasse 1.50 -2.27 1.00
53158 2021-12-03 21:47:46 Terrasse 1.50 -2.27 1.00
53157 2021-12-03 21:19:36 Terrasse 1.40 -2.38 1.00
53156 2021-12-03 20:51:25 Terrasse 1.30 -2.49 1.00
53155 2021-12-03 20:23:16 Terrasse 1.30 -2.49 1.00
53154 2021-12-03 19:55:06 Terrasse 1.30 -2.49 1.00
53153 2021-12-03 19:26:56 Terrasse 1.30 -2.49 1.00
53152 2021-12-03 18:58:45 Terrasse 1.40 0.20 99.90
53151 2021-12-03 18:30:35 Terrasse 1.40 0.20 99.90
53150 2021-12-03 18:02:25 Terrasse 1.40 0.20 99.90
53149 2021-12-03 17:34:15 Terrasse 1.40 0.20 99.90
53148 2021-12-03 17:06:04 Terrasse 1.30 0.09 99.90
53147 2021-12-03 16:37:54 Terrasse 1.30 0.09 99.90
53146 2021-12-03 16:09:43 Terrasse 1.40 0.20 99.90
53145 2021-12-03 15:41:34 Terrasse 1.40 0.20 99.90
53144 2021-12-03 15:13:25 Terrasse 1.50 0.31 99.90
53143 2021-12-03 14:45:15 Terrasse 1.60 0.42 99.90
53142 2021-12-03 14:17:06 Terrasse 1.70 0.53 99.90
53141 2021-12-03 13:48:54 Terrasse 1.70 0.53 99.90
53140 2021-12-03 13:20:44 Terrasse 1.60 0.42 99.90
53139 2021-12-03 12:52:33 Terrasse 1.60 0.42 99.90
53138 2021-12-03 12:24:23 Terrasse 1.60 0.42 99.90
53137 2021-12-03 11:56:13 Terrasse 1.60 0.42 99.90
53136 2021-12-03 11:28:04 Terrasse 1.60 0.42 99.90
53135 2021-12-03 10:59:50 Terrasse 1.20 -2.60 1.00
53134 2021-12-03 10:31:37 Terrasse 0.80 -3.04 1.00
53133 2021-12-03 10:03:25 Terrasse 0.60 -0.68 99.90
53132 2021-12-03 09:35:14 Terrasse 0.60 -0.68 99.90
53131 2021-12-03 09:07:09 Terrasse 0.20 -1.12 99.90
53130 2021-12-03 08:38:56 Terrasse 0.10 -1.23 99.90
53129 2021-12-03 08:10:46 Terrasse -0.10 -1.45 99.90
53128 2021-12-03 07:42:35 Terrasse -0.10 -1.45 99.90
53127 2021-12-03 07:14:25 Terrasse -0.20 -1.56 99.90
53126 2021-12-03 06:46:16 Terrasse -0.20 -1.56 99.90
53125 2021-12-03 06:18:07 Terrasse -0.10 -1.45 99.90
53124 2021-12-03 05:49:57 Terrasse 0.10 -1.23 99.90
53123 2021-12-03 05:21:47 Terrasse 0.30 -1.01 99.90
53122 2021-12-03 04:53:37 Terrasse 0.40 -0.90 99.90
53121 2021-12-03 04:25:28 Terrasse 0.60 -0.68 99.90
53120 2021-12-03 03:57:18 Terrasse 0.50 -0.79 99.90
53119 2021-12-03 03:29:10 Terrasse 0.50 -0.79 99.90
53118 2021-12-03 03:01:01 Terrasse 0.60 -0.68 99.90
53117 2021-12-03 02:32:53 Terrasse 0.80 -0.46 99.90
53116 2021-12-03 02:04:44 Terrasse 1.20 -0.02 99.90
53115 2021-12-03 01:36:35 Terrasse 1.40 -1.23 44.80
53114 2021-12-03 01:08:25 Terrasse 1.60 0.42 99.90
53113 2021-12-03 00:40:16 Terrasse 1.90 0.75 99.90
53112 2021-12-03 00:12:06 Terrasse 2.00 0.86 99.90
53111 2021-12-02 23:43:55 Terrasse 2.00 0.86 99.90
53110 2021-12-02 23:15:45 Terrasse 2.20 1.08 99.90
53109 2021-12-02 22:47:34 Terrasse 2.30 1.19 99.90
53108 2021-12-02 22:19:25 Terrasse 2.30 -1.39 1.00
53107 2021-12-02 21:51:14 Terrasse 2.40 1.30 99.90
53106 2021-12-02 21:23:03 Terrasse 2.40 1.30 99.90
53105 2021-12-02 20:54:53 Terrasse 2.60 1.52 99.90
53104 2021-12-02 20:26:43 Terrasse 2.70 1.63 99.90
53103 2021-12-02 19:58:31 Terrasse 2.80 1.74 99.90
53102 2021-12-02 19:30:20 Terrasse 2.90 1.85 99.90
53101 2021-12-02 19:02:10 Terrasse 3.00 1.96 99.90
53100 2021-12-02 18:34:00 Terrasse 3.10 2.07 99.90
53099 2021-12-02 18:05:50 Terrasse 3.20 2.18 99.90
53098 2021-12-02 17:37:40 Terrasse 3.40 2.40 99.90
53097 2021-12-02 17:09:29 Terrasse 3.50 2.51 99.90
53096 2021-12-02 16:41:19 Terrasse 3.70 2.73 99.90
53095 2021-12-02 16:13:10 Terrasse 3.90 2.95 99.90
53094 2021-12-02 15:45:01 Terrasse 4.30 0.81 1.00
53093 2021-12-02 15:16:54 Terrasse 4.90 1.47 1.00
53092 2021-12-02 14:48:49 Terrasse 6.00 2.68 1.00
53091 2021-12-02 14:20:47 Terrasse 7.60 4.44 1.00
53090 2021-12-02 13:52:14 Terrasse 6.60 3.34 1.00
53089 2021-12-02 13:23:59 Terrasse 5.80 2.46 1.00
53088 2021-12-02 12:55:40 Terrasse 4.70 1.25 1.00
53087 2021-12-02 12:27:34 Terrasse 4.40 0.92 1.00
53086 2021-12-02 11:59:19 Terrasse 4.30 0.81 1.00
53085 2021-12-02 11:31:21 Terrasse 5.20 4.38 99.90
53084 2021-12-02 11:02:57 Terrasse 3.70 0.15 1.00
53083 2021-12-02 10:34:51 Terrasse 3.70 0.15 1.00
53082 2021-12-02 10:06:39 Terrasse 3.70 0.15 1.00
53081 2021-12-02 09:38:26 Terrasse 3.60 0.04 1.00
53080 2021-12-02 09:10:14 Terrasse 3.40 -0.18 1.00
53079 2021-12-02 08:42:03 Terrasse 3.30 -0.29 1.00
53078 2021-12-02 08:13:52 Terrasse 3.30 -0.29 1.00
53077 2021-12-02 07:45:42 Terrasse 3.40 -0.18 1.00
53076 2021-12-02 07:17:35 Terrasse 3.70 0.15 1.00
53075 2021-12-02 06:49:24 Terrasse 3.70 0.15 1.00
53074 2021-12-02 06:21:26 Terrasse 3.80 0.26 1.00
53073 2021-12-02 05:53:26 Terrasse 4.10 0.59 1.00
53072 2021-12-02 05:25:12 Terrasse 4.20 0.70 1.00
53071 2021-12-02 04:57:14 Terrasse 4.30 0.81 1.00
53070 2021-12-02 04:29:21 Terrasse 4.30 0.81 1.00
53069 2021-12-02 04:01:47 Terrasse 4.40 0.92 1.00
53068 2021-12-02 03:33:30 Terrasse 4.60 1.14 1.00
53067 2021-12-02 03:05:28 Terrasse 4.60 1.14 1.00
53066 2021-12-02 02:37:33 Terrasse 4.60 1.14 1.00
53065 2021-12-02 02:09:34 Terrasse 4.70 1.25 1.00
53064 2021-12-02 01:41:22 Terrasse 4.80 1.36 1.00
53063 2021-12-02 01:13:45 Terrasse 4.80 1.36 1.00
53062 2021-12-02 00:45:18 Terrasse 4.80 1.36 1.00
53061 2021-12-02 00:17:07 Terrasse 5.00 1.58 1.00
53060 2021-12-01 23:48:58 Terrasse 5.20 1.80 1.00
53059 2021-12-01 23:20:47 Terrasse 5.30 1.91 1.00
53058 2021-12-01 22:52:36 Terrasse 5.40 2.02 1.00
53057 2021-12-01 22:24:27 Terrasse 5.30 1.91 1.00
53056 2021-12-01 21:56:17 Terrasse 5.30 1.91 1.00
53055 2021-12-01 21:28:07 Terrasse 5.40 2.02 1.00
53054 2021-12-01 20:59:59 Terrasse 5.50 2.13 1.00
53053 2021-12-01 20:31:50 Terrasse 5.60 2.24 1.00
53052 2021-12-01 20:03:39 Terrasse 5.70 2.35 1.00
53051 2021-12-01 19:35:28 Terrasse 5.70 2.35 1.00
53050 2021-12-01 19:07:18 Terrasse 5.80 2.46 1.00
53049 2021-12-01 18:39:08 Terrasse 6.00 2.68 1.00
53048 2021-12-01 18:10:58 Terrasse 6.00 2.68 1.00
53047 2021-12-01 17:42:48 Terrasse 6.00 2.68 1.00
53046 2021-12-01 17:14:37 Terrasse 6.20 2.90 1.00
53045 2021-12-01 16:46:27 Terrasse 6.20 2.90 1.00
53044 2021-12-01 16:18:16 Terrasse 6.20 2.90 1.00
53043 2021-12-01 15:50:07 Terrasse 6.30 3.01 1.00
53042 2021-12-01 15:21:56 Terrasse 6.30 3.01 1.00
53041 2021-12-01 14:53:45 Terrasse 6.20 2.90 1.00
53040 2021-12-01 14:25:34 Terrasse 6.10 2.79 1.00
53039 2021-12-01 13:57:23 Terrasse 6.00 2.68 1.00
53038 2021-12-01 13:29:10 Terrasse 5.90 2.57 1.00
53037 2021-12-01 13:00:59 Terrasse 5.80 2.46 1.00
53036 2021-12-01 12:32:48 Terrasse 5.70 2.35 1.00
53035 2021-12-01 12:04:36 Terrasse 5.50 2.13 1.00
53034 2021-12-01 11:36:25 Terrasse 5.30 1.91 1.00
53033 2021-12-01 11:08:13 Terrasse 5.20 1.80 1.00
53032 2021-12-01 10:40:02 Terrasse 5.10 1.69 1.00
53031 2021-12-01 10:11:51 Terrasse 4.90 1.47 1.00
53030 2021-12-01 09:43:39 Terrasse 4.80 1.36 1.00
53029 2021-12-01 09:15:29 Terrasse 4.70 1.25 1.00
53028 2021-12-01 08:47:17 Terrasse 4.70 1.25 1.00
53027 2021-12-01 08:19:07 Terrasse 4.60 1.14 1.00
53026 2021-12-01 07:50:56 Terrasse 4.60 1.14 1.00
53025 2021-12-01 07:22:46 Terrasse 4.60 1.14 1.00
53024 2021-12-01 06:54:37 Terrasse 4.60 1.14 1.00
53023 2021-12-01 06:26:26 Terrasse 4.50 1.03 1.00
53022 2021-12-01 05:58:16 Terrasse 4.50 1.03 1.00
53021 2021-12-01 05:30:06 Terrasse 4.50 1.03 1.00
53020 2021-12-01 05:01:55 Terrasse 4.50 1.03 1.00
53019 2021-12-01 04:33:45 Terrasse 4.60 1.14 1.00
53018 2021-12-01 04:05:36 Terrasse 4.80 1.36 1.00
53017 2021-12-01 03:37:27 Terrasse 5.10 1.69 1.00
53016 2021-12-01 03:09:18 Terrasse 5.20 1.80 1.00
53015 2021-12-01 02:41:07 Terrasse 5.20 1.80 1.00
53014 2021-12-01 02:12:57 Terrasse 5.20 1.80 1.00
53013 2021-12-01 01:44:46 Terrasse 5.20 1.80 1.00
53012 2021-12-01 01:16:35 Terrasse 5.20 1.80 1.00
53011 2021-12-01 00:48:24 Terrasse 5.10 1.69 1.00
53010 2021-12-01 00:20:13 Terrasse 5.10 1.69 1.00
53009 2021-11-30 23:52:00 Terrasse 5.10 1.69 1.00
53008 2021-11-30 23:23:48 Terrasse 5.00 1.58 1.00
53007 2021-11-30 22:55:36 Terrasse 5.00 1.58 1.00
53006 2021-11-30 22:27:26 Terrasse 5.00 1.75 7.60
53005 2021-11-30 21:59:15 Terrasse 5.00 2.04 18.50
53004 2021-11-30 21:31:03 Terrasse 5.00 2.19 24.20
53003 2021-11-30 21:02:52 Terrasse 5.00 2.23 25.80
53002 2021-11-30 20:34:42 Terrasse 4.90 2.18 28.30
53001 2021-11-30 20:06:32 Terrasse 4.80 2.07 28.10
53000 2021-11-30 19:38:21 Terrasse 4.80 1.94 23.00
52999 2021-11-30 19:10:11 Terrasse 4.70 1.81 22.30
52998 2021-11-30 18:42:00 Terrasse 4.60 1.59 18.30
52997 2021-11-30 18:13:50 Terrasse 4.60 1.39 10.70
52996 2021-11-30 17:45:38 Terrasse 4.50 1.20 7.30
52995 2021-11-30 17:17:26 Terrasse 4.50 1.04 1.40
52994 2021-11-30 16:49:15 Terrasse 4.40 0.92 1.10
52993 2021-11-30 16:21:03 Terrasse 4.30 0.81 1.00
52992 2021-11-30 15:52:52 Terrasse 4.30 0.86 3.00
52991 2021-11-30 15:24:40 Terrasse 4.20 0.77 3.60
52990 2021-11-30 14:56:28 Terrasse 4.10 1.00 16.60
52989 2021-11-30 14:28:17 Terrasse 3.90 0.68 13.00
52988 2021-11-30 14:00:07 Terrasse 3.80 0.59 13.70
52987 2021-11-30 13:31:56 Terrasse 3.50 0.05 5.50
52986 2021-11-30 13:03:43 Terrasse 3.20 -0.36 2.50
52985 2021-11-30 12:35:32 Terrasse 3.00 -0.62 1.00
52984 2021-11-30 12:07:19 Terrasse 2.70 -0.95 1.00
52983 2021-11-30 11:39:08 Terrasse 2.50 -1.17 1.00
52982 2021-11-30 11:10:56 Terrasse 2.30 -1.39 1.00
52981 2021-11-30 10:42:45 Terrasse 2.10 -1.61 1.00
52980 2021-11-30 10:14:33 Terrasse 1.90 -1.83 1.00
52979 2021-11-30 09:46:22 Terrasse 1.70 -2.05 1.00
52978 2021-11-30 09:18:13 Terrasse 1.60 -2.16 1.00
52977 2021-11-30 08:50:03 Terrasse 1.60 -2.16 1.00
52976 2021-11-30 08:21:53 Terrasse 1.50 -2.27 1.00
52975 2021-11-30 07:53:43 Terrasse 1.50 -2.27 1.00
52974 2021-11-30 07:25:35 Terrasse 1.60 -2.16 1.00
52973 2021-11-30 06:57:26 Terrasse 1.70 -2.05 1.00
52972 2021-11-30 06:29:16 Terrasse 1.80 -1.94 1.00
52971 2021-11-30 06:01:06 Terrasse 1.80 -1.94 1.00
52970 2021-11-30 05:32:57 Terrasse 2.00 -1.72 1.00
52969 2021-11-30 05:04:48 Terrasse 2.10 -1.61 1.00
52968 2021-11-30 04:36:37 Terrasse 2.10 -1.61 1.00
52967 2021-11-30 04:08:28 Terrasse 2.20 -1.50 1.00
52966 2021-11-30 03:40:18 Terrasse 2.20 -1.50 1.00
52965 2021-11-30 03:12:09 Terrasse 2.30 -1.39 1.00
52964 2021-11-30 02:43:59 Terrasse 2.30 -1.39 1.00
52963 2021-11-30 02:15:49 Terrasse 2.40 -1.28 1.00
52962 2021-11-30 01:47:38 Terrasse 2.40 -1.28 1.00
52961 2021-11-30 01:19:27 Terrasse 2.30 -1.39 1.00
52960 2021-11-30 00:51:16 Terrasse 2.20 -1.50 1.00
52959 2021-11-30 00:23:07 Terrasse 2.20 -1.50 1.00
52958 2021-11-29 23:54:57 Terrasse 2.20 -1.50 1.00
52957 2021-11-29 23:26:46 Terrasse 2.20 -1.50 1.00
52956 2021-11-29 22:58:37 Terrasse 2.20 -1.50 1.00
52955 2021-11-29 22:30:27 Terrasse 2.20 -1.50 1.00
52954 2021-11-29 22:02:16 Terrasse 2.30 -1.39 1.00
52953 2021-11-29 21:34:05 Terrasse 2.30 -1.39 1.00
52952 2021-11-29 21:05:55 Terrasse 2.30 -1.39 1.00
52951 2021-11-29 20:37:44 Terrasse 2.30 -1.39 1.00
52950 2021-11-29 20:09:35 Terrasse 2.20 -1.50 1.00
52949 2021-11-29 19:41:24 Terrasse 2.20 -1.50 1.00
52948 2021-11-29 19:13:14 Terrasse 2.20 -1.50 1.00
52947 2021-11-29 18:45:03 Terrasse 2.20 -1.50 1.00
52946 2021-11-29 18:16:53 Terrasse 2.20 -1.50 1.00
52945 2021-11-29 17:48:42 Terrasse 2.20 -1.50 1.00
52944 2021-11-29 17:21:13 Terrasse 2.20 -1.50 1.00
52943 2021-11-29 16:53:11 Terrasse 2.10 -1.61 1.00
52942 2021-11-29 16:25:23 Terrasse 2.10 -1.61 1.00
52941 2021-11-29 15:57:31 Terrasse 2.10 -1.61 1.00
52940 2021-11-29 15:29:45 Terrasse 2.30 -1.39 1.00
52939 2021-11-29 15:01:21 Terrasse 2.30 -1.39 1.00
52938 2021-11-29 14:33:56 Terrasse 2.50 -1.17 1.00
52937 2021-11-29 13:06:09 Terrasse 2.40 1.30 99.90
52936 2021-11-29 12:38:01 Terrasse 2.20 -1.50 1.00
52935 2021-11-29 12:10:44 Terrasse 2.00 0.86 99.90
52934 2021-11-29 11:42:37 Terrasse 1.80 0.64 99.90
52933 2021-11-29 11:13:18 Terrasse 1.70 -2.05 1.00
52932 2021-11-29 10:44:21 Terrasse 1.70 -2.05 1.00
52931 2021-11-29 10:16:11 Terrasse 1.60 -2.16 1.00
52930 2021-11-29 09:48:27 Terrasse 1.50 -2.27 1.00
52929 2021-11-29 09:20:31 Terrasse 1.30 -2.49 1.00
52928 2021-11-29 08:52:23 Terrasse 1.20 -2.60 1.00
52927 2021-11-29 08:24:11 Terrasse 1.20 -0.02 99.90
52926 2021-11-29 07:56:04 Terrasse 1.10 -2.71 1.00
52925 2021-11-29 07:28:02 Terrasse 1.10 -2.71 1.00
52924 2021-11-29 07:00:30 Terrasse 1.10 -2.71 1.00
52923 2021-11-29 06:33:03 Terrasse 1.20 -0.02 99.90
52922 2021-11-29 06:05:13 Terrasse 1.30 0.09 99.90
52921 2021-11-29 05:36:34 Terrasse 1.40 0.20 99.90
52920 2021-11-29 05:08:30 Terrasse 1.60 -2.16 1.00
52919 2021-11-29 04:40:48 Terrasse 1.70 0.53 99.90
52918 2021-11-29 04:13:22 Terrasse 1.80 -1.94 1.00
52917 2021-11-29 03:44:45 Terrasse 1.80 -1.94 1.00
52916 2021-11-29 03:17:15 Terrasse 2.00 -1.72 1.00
52915 2021-11-29 02:49:30 Terrasse 2.10 -1.61 1.00
52914 2021-11-29 02:21:22 Terrasse 2.10 -1.61 1.00
52913 2021-11-29 01:53:04 Terrasse 2.20 -1.50 1.00
52912 2021-11-29 01:24:55 Terrasse 2.20 -1.50 1.00
52911 2021-11-29 00:56:46 Terrasse 2.30 -1.39 1.00
52910 2021-11-29 00:28:36 Terrasse 2.20 -1.50 1.00
52909 2021-11-29 00:00:25 Terrasse 2.10 -1.61 1.00
52908 2021-11-28 23:32:15 Terrasse 2.20 -1.50 1.00
52907 2021-11-28 23:04:07 Terrasse 2.30 -1.39 1.00
52906 2021-11-28 22:35:58 Terrasse 2.30 -1.39 1.00
52905 2021-11-28 22:07:56 Terrasse 2.30 -1.39 1.00
52904 2021-11-28 21:39:46 Terrasse 2.40 -1.28 1.00
52903 2021-11-28 21:11:38 Terrasse 2.40 -1.28 1.00
52902 2021-11-28 20:44:00 Terrasse 2.50 -1.17 1.00
52901 2021-11-28 20:15:36 Terrasse 2.50 -1.17 1.00
52900 2021-11-28 19:47:28 Terrasse 2.60 -1.06 1.00
52899 2021-11-28 19:19:19 Terrasse 2.50 -1.17 1.00
52898 2021-11-28 18:51:08 Terrasse 2.50 -1.17 1.00
52897 2021-11-28 18:22:59 Terrasse 2.50 -1.17 1.00
52896 2021-11-28 17:54:50 Terrasse 2.60 -1.06 1.00
52895 2021-11-28 17:26:40 Terrasse 2.70 -0.95 1.00
52894 2021-11-28 16:58:32 Terrasse 2.70 -0.95 1.00
52893 2021-11-28 16:30:23 Terrasse 2.80 -0.84 1.00
52892 2021-11-28 16:02:15 Terrasse 2.90 -0.73 1.00
52891 2021-11-28 15:34:07 Terrasse 2.90 -0.73 1.00
52890 2021-11-28 15:05:58 Terrasse 3.00 -0.62 1.00
52889 2021-11-28 14:37:50 Terrasse 3.10 -0.51 1.00
52888 2021-11-28 14:09:39 Terrasse 3.10 -0.51 1.00
52887 2021-11-28 13:41:31 Terrasse 3.10 -0.51 1.00
52886 2021-11-28 13:13:21 Terrasse 3.10 -0.51 1.00
52885 2021-11-28 12:45:11 Terrasse 3.00 -0.62 1.00
52884 2021-11-28 12:17:01 Terrasse 3.00 -0.62 1.00
52883 2021-11-28 11:48:51 Terrasse 2.90 -0.73 1.00
52882 2021-11-28 11:20:40 Terrasse 2.70 -0.95 1.00
52881 2021-11-28 10:52:31 Terrasse 2.60 -1.06 1.00
52880 2021-11-28 10:24:20 Terrasse 2.50 -1.17 1.00
52879 2021-11-28 09:56:10 Terrasse 2.50 -1.17 1.00
52878 2021-11-28 09:28:01 Terrasse 2.40 -1.28 1.00
52877 2021-11-28 08:59:52 Terrasse 2.30 -1.39 1.00
52876 2021-11-28 08:31:42 Terrasse 2.10 -1.61 1.00
52875 2021-11-28 08:03:33 Terrasse 2.10 -1.61 1.00
52874 2021-11-28 07:35:25 Terrasse 2.20 -1.50 1.00
52873 2021-11-28 07:07:16 Terrasse 2.30 -1.39 1.00
52872 2021-11-28 06:39:08 Terrasse 2.20 -1.50 1.00
52871 2021-11-28 06:10:59 Terrasse 2.20 -1.50 1.00
52870 2021-11-28 05:42:50 Terrasse 2.10 -1.61 1.00
52869 2021-11-28 05:14:40 Terrasse 2.10 -1.61 1.00
52868 2021-11-28 04:46:31 Terrasse 2.10 -1.61 1.00
52867 2021-11-28 04:18:21 Terrasse 2.20 -1.50 1.00
52866 2021-11-28 03:50:12 Terrasse 2.10 -1.61 1.00
52865 2021-11-28 03:22:03 Terrasse 2.10 -1.61 1.00
52864 2021-11-28 02:53:54 Terrasse 2.20 -1.50 1.00
52863 2021-11-28 02:25:43 Terrasse 2.20 -1.50 1.00
52862 2021-11-28 01:57:35 Terrasse 2.20 -1.50 1.00
52861 2021-11-28 01:29:28 Terrasse 2.20 -1.50 1.00
52860 2021-11-28 01:01:17 Terrasse 2.20 -1.50 1.00
52859 2021-11-28 00:33:08 Terrasse 2.20 -1.50 1.00
52858 2021-11-28 00:04:59 Terrasse 2.20 -1.50 1.00
52857 2021-11-27 23:36:49 Terrasse 2.10 -1.61 1.00
52856 2021-11-27 23:08:38 Terrasse 2.20 -1.50 1.00
52855 2021-11-27 22:40:29 Terrasse 2.20 -1.50 1.00
52854 2021-11-27 22:12:21 Terrasse 2.10 -1.61 1.00
52853 2021-11-27 21:44:11 Terrasse 2.20 -1.50 1.00
52852 2021-11-27 21:16:00 Terrasse 2.10 -1.61 1.00
52851 2021-11-27 20:47:51 Terrasse 2.10 -1.61 1.00
52850 2021-11-27 20:19:42 Terrasse 2.00 -1.72 1.00
52849 2021-11-27 19:51:34 Terrasse 2.00 -1.72 1.00
52848 2021-11-27 19:23:26 Terrasse 2.10 -1.61 1.00
52847 2021-11-27 18:55:18 Terrasse 2.30 -1.39 1.00
52846 2021-11-27 18:27:10 Terrasse 2.40 -1.28 1.00
52845 2021-11-27 17:59:02 Terrasse 2.40 -1.28 1.00
52844 2021-11-27 17:30:55 Terrasse 2.60 -1.06 1.00
52843 2021-11-27 17:02:47 Terrasse 3.00 -0.62 1.00
52842 2021-11-27 16:34:39 Terrasse 3.10 -0.51 1.00
52841 2021-11-27 16:06:31 Terrasse 3.60 2.62 99.90
52840 2021-11-27 15:38:24 Terrasse 4.00 0.48 1.00
52839 2021-11-27 15:10:14 Terrasse 4.60 3.72 99.90
52838 2021-11-27 14:42:06 Terrasse 4.40 3.50 99.90
52837 2021-11-27 14:14:03 Terrasse 5.50 4.71 99.90
52836 2021-11-27 13:46:02 Terrasse 6.20 2.90 1.00
52835 2021-11-27 13:17:51 Terrasse 4.30 0.81 1.00
52834 2021-11-27 12:49:42 Terrasse 4.70 3.83 99.90
52833 2021-11-27 12:21:28 Terrasse 4.00 0.48 1.00
52832 2021-11-27 11:53:17 Terrasse 3.80 0.26 1.00
52831 2021-11-27 11:25:06 Terrasse 3.60 0.04 1.00
52830 2021-11-27 10:56:54 Terrasse 2.70 -0.95 1.00
52829 2021-11-27 10:28:42 Terrasse 2.50 -1.17 1.00
52828 2021-11-27 10:00:33 Terrasse 2.40 -1.28 1.00
52827 2021-11-27 09:32:24 Terrasse 2.30 -1.39 1.00
52826 2021-11-27 09:04:15 Terrasse 2.30 -1.39 1.00
52825 2021-11-27 08:36:06 Terrasse 2.30 -1.39 1.00
52824 2021-11-27 08:07:57 Terrasse 2.30 -1.39 1.00
52823 2021-11-27 07:39:46 Terrasse 2.20 -1.50 1.00
52822 2021-11-27 07:11:38 Terrasse 2.20 -1.50 1.00
52821 2021-11-27 06:43:28 Terrasse 2.10 -1.61 1.00
52820 2021-11-27 06:15:18 Terrasse 2.10 -1.61 1.00
52819 2021-11-27 05:47:08 Terrasse 2.10 -1.61 1.00
52818 2021-11-27 05:18:57 Terrasse 2.10 -1.61 1.00
52817 2021-11-27 04:50:47 Terrasse 2.00 -1.72 1.00
52816 2021-11-27 04:22:38 Terrasse 2.00 -1.72 1.00
52815 2021-11-27 03:54:30 Terrasse 2.00 -1.72 1.00
52814 2021-11-27 03:26:20 Terrasse 1.90 -1.83 1.00
52813 2021-11-27 02:58:10 Terrasse 1.90 -1.83 1.00
52812 2021-11-27 02:30:01 Terrasse 1.90 -1.83 1.00
52811 2021-11-27 02:01:50 Terrasse 1.80 -1.94 1.00
52810 2021-11-27 01:33:42 Terrasse 1.80 -1.94 1.00
52809 2021-11-27 01:05:33 Terrasse 1.80 -1.94 1.00
52808 2021-11-27 00:37:23 Terrasse 1.80 -1.94 1.00
52807 2021-11-27 00:09:14 Terrasse 1.90 -1.83 1.00
52806 2021-11-26 23:41:06 Terrasse 1.90 -1.83 1.00
52805 2021-11-26 23:12:59 Terrasse 2.00 -1.72 1.00
52804 2021-11-26 22:44:50 Terrasse 2.10 -1.61 1.00
52803 2021-11-26 22:16:42 Terrasse 2.20 -1.50 1.00
52802 2021-11-26 21:48:34 Terrasse 2.30 -1.39 1.00
52801 2021-11-26 21:20:25 Terrasse 2.30 -1.39 1.00
52800 2021-11-26 20:52:18 Terrasse 2.40 -1.28 1.00
52799 2021-11-26 20:24:09 Terrasse 2.50 -1.17 1.00
52798 2021-11-26 19:56:00 Terrasse 2.50 -1.17 1.00
52797 2021-11-26 19:27:51 Terrasse 2.50 -1.17 1.00
52796 2021-11-26 18:59:44 Terrasse 2.60 -1.06 1.00
52795 2021-11-26 18:31:35 Terrasse 2.60 -1.06 1.00
52794 2021-11-26 18:03:25 Terrasse 2.60 -1.06 1.00
52793 2021-11-26 17:35:17 Terrasse 2.70 -0.95 1.00
52792 2021-11-26 17:07:07 Terrasse 2.80 -0.84 1.00
52791 2021-11-26 16:38:59 Terrasse 2.90 -0.73 1.00
52790 2021-11-26 16:10:51 Terrasse 3.00 -0.62 1.00
52789 2021-11-26 15:42:42 Terrasse 3.10 -0.51 1.00
52788 2021-11-26 15:14:33 Terrasse 3.00 -0.62 1.00
52787 2021-11-26 14:46:25 Terrasse 3.00 -0.62 1.00
52786 2021-11-26 14:18:16 Terrasse 2.90 -0.73 1.00
52785 2021-11-26 13:50:09 Terrasse 2.80 -0.84 1.00
52784 2021-11-26 13:21:59 Terrasse 2.70 -0.95 1.00
52783 2021-11-26 12:53:51 Terrasse 2.70 -0.95 1.00
52782 2021-11-26 12:25:43 Terrasse 2.70 -0.95 1.00
52781 2021-11-26 11:57:35 Terrasse 2.70 -0.95 1.00
52780 2021-11-26 11:29:54 Terrasse 2.70 -0.95 1.00
52779 2021-11-26 11:02:01 Terrasse 2.70 1.63 99.90
52778 2021-11-26 10:34:11 Terrasse 2.60 1.52 99.90
52777 2021-11-26 10:05:48 Terrasse 2.50 1.41 99.90
52776 2021-11-26 09:37:40 Terrasse 2.30 1.19 99.90
52775 2021-11-26 09:09:30 Terrasse 2.10 -1.61 1.00
52774 2021-11-26 08:41:22 Terrasse 2.10 -1.61 1.00
52773 2021-11-26 08:13:13 Terrasse 2.00 -1.72 1.00
52772 2021-11-26 07:45:04 Terrasse 2.10 -1.61 1.00
52771 2021-11-26 07:16:55 Terrasse 2.10 -1.61 1.00
52770 2021-11-26 06:48:48 Terrasse 2.30 1.19 99.90
52769 2021-11-26 06:20:39 Terrasse 2.40 1.30 99.90
52768 2021-11-26 05:52:31 Terrasse 2.50 1.41 99.90
52767 2021-11-26 05:24:21 Terrasse 2.50 1.41 99.90
52766 2021-11-26 04:56:13 Terrasse 2.50 1.41 99.90
52765 2021-11-26 04:28:03 Terrasse 2.40 1.30 99.90
52764 2021-11-26 03:59:54 Terrasse 2.20 1.08 99.90
52763 2021-11-26 03:31:45 Terrasse 2.20 1.08 99.90
52762 2021-11-26 03:03:35 Terrasse 1.90 0.75 99.90
52761 2021-11-26 02:35:29 Terrasse 2.10 0.97 99.90
52760 2021-11-26 02:07:20 Terrasse 1.90 0.75 99.90
52759 2021-11-26 01:39:14 Terrasse 2.20 1.08 99.90
52758 2021-11-26 01:11:07 Terrasse 2.50 1.41 99.90
52757 2021-11-26 00:42:58 Terrasse 2.60 1.52 99.90
52756 2021-11-26 00:14:49 Terrasse 2.50 -0.61 22.30
52755 2021-11-25 23:46:41 Terrasse 2.70 -0.95 1.00
52754 2021-11-25 23:18:33 Terrasse 2.90 -0.73 1.00
52753 2021-11-25 22:50:25 Terrasse 3.00 -0.62 1.00
52752 2021-11-25 22:22:16 Terrasse 3.10 -0.51 1.00
52751 2021-11-25 21:54:07 Terrasse 3.10 -0.51 1.00
52750 2021-11-25 21:25:59 Terrasse 3.20 -0.40 1.00
52749 2021-11-25 20:57:51 Terrasse 3.20 -0.40 1.00
52748 2021-11-25 20:29:41 Terrasse 3.30 2.29 99.90
52747 2021-11-25 20:01:31 Terrasse 3.30 2.29 99.90
52746 2021-11-25 19:33:21 Terrasse 3.40 0.17 14.50
52745 2021-11-25 19:05:13 Terrasse 3.30 2.29 99.90
52744 2021-11-25 18:37:05 Terrasse 3.40 2.17 90.90
52743 2021-11-25 18:08:56 Terrasse 3.30 -0.29 1.00
52742 2021-11-25 17:12:56 Terrasse 3.40 -0.18 1.00
52741 2021-11-25 16:44:47 Terrasse 3.40 -0.18 1.00
52740 2021-11-25 16:16:41 Terrasse 3.70 0.15 1.00
52739 2021-11-25 15:48:34 Terrasse 4.00 0.48 1.00
52738 2021-11-25 15:20:25 Terrasse 4.10 0.59 1.00
52737 2021-11-25 14:52:17 Terrasse 4.10 0.59 1.00
52736 2021-11-25 14:24:08 Terrasse 4.00 0.48 1.00
52735 2021-11-25 13:55:56 Terrasse 3.80 2.84 99.90
52734 2021-11-25 13:27:48 Terrasse 3.70 0.15 1.00
52733 2021-11-25 12:59:39 Terrasse 3.60 0.56 20.80
52732 2021-11-25 12:31:29 Terrasse 3.50 -0.07 1.00
52731 2021-11-25 12:03:20 Terrasse 3.10 -0.51 1.00
52730 2021-11-25 11:35:09 Terrasse 3.00 -0.62 1.00
52729 2021-11-25 11:07:00 Terrasse 2.90 -0.73 1.00
52728 2021-11-25 10:38:51 Terrasse 2.80 -0.84 1.00
52727 2021-11-25 10:10:42 Terrasse 2.70 -0.95 1.00
52726 2021-11-25 09:42:33 Terrasse 2.70 -0.95 1.00
52725 2021-11-25 09:14:24 Terrasse 2.60 -1.06 1.00
52724 2021-11-25 08:46:15 Terrasse 2.60 -1.06 1.00
52723 2021-11-25 08:18:07 Terrasse 2.70 -0.95 1.00
52722 2021-11-25 07:49:59 Terrasse 2.70 -0.95 1.00
52721 2021-11-25 07:21:51 Terrasse 2.70 -0.95 1.00
52720 2021-11-25 06:53:43 Terrasse 2.80 -0.84 1.00
52719 2021-11-25 06:25:33 Terrasse 2.70 -0.95 1.00
52718 2021-11-25 05:57:25 Terrasse 2.70 -0.95 1.00
52717 2021-11-25 05:29:16 Terrasse 2.80 -0.84 1.00
52716 2021-11-25 05:01:08 Terrasse 2.90 -0.73 1.00
52715 2021-11-25 04:33:00 Terrasse 2.90 1.85 99.90
52714 2021-11-25 04:04:53 Terrasse 3.00 -0.62 1.00
52713 2021-11-25 03:36:45 Terrasse 3.00 -0.62 1.00
52712 2021-11-25 03:08:38 Terrasse 3.10 -0.51 1.00
52711 2021-11-25 02:41:28 Terrasse 3.20 -0.40 1.00
52710 2021-11-25 02:12:23 Terrasse 3.30 -0.29 1.00
52709 2021-11-25 01:44:15 Terrasse 3.50 -0.07 1.00
52708 2021-11-25 01:16:09 Terrasse 3.60 0.04 1.00
52707 2021-11-25 00:48:03 Terrasse 3.80 0.26 1.00
52706 2021-11-25 00:19:55 Terrasse 4.00 0.48 1.00
52705 2021-11-24 23:51:46 Terrasse 4.00 0.48 1.00
52704 2021-11-24 23:23:39 Terrasse 4.10 0.59 1.00
52703 2021-11-24 22:56:32 Terrasse 4.20 0.70 1.00
52702 2021-11-24 22:27:24 Terrasse 4.10 0.59 1.00
52701 2021-11-24 21:56:13 Terrasse 4.10 0.59 1.00
52700 2021-11-24 21:28:02 Terrasse 4.00 0.48 1.00
52699 2021-11-24 20:59:52 Terrasse 3.80 0.26 1.00
52698 2021-11-24 20:31:56 Terrasse 3.60 0.04 1.00
52697 2021-11-24 20:04:16 Terrasse 3.70 0.15 1.00
52696 2021-11-24 19:36:14 Terrasse 4.00 0.48 1.00
52695 2021-11-24 18:36:28 Terrasse 4.50 1.03 1.00
52694 2021-11-24 18:09:23 Terrasse 4.60 3.72 99.90
52693 2021-11-24 17:40:41 Terrasse 4.90 4.05 99.90
52692 2021-11-24 17:12:35 Terrasse 5.20 1.80 1.00
52691 2021-11-24 16:44:29 Terrasse 5.60 4.82 99.90
52690 2021-11-24 16:16:23 Terrasse 6.00 3.09 16.70
52689 2021-11-24 15:48:17 Terrasse 6.30 5.59 99.90
52688 2021-11-24 15:20:10 Terrasse 6.40 3.19 3.70
52687 2021-11-24 14:52:02 Terrasse 6.30 3.01 1.00
52686 2021-11-24 14:23:53 Terrasse 6.30 5.59 99.90
52685 2021-11-24 13:55:45 Terrasse 6.40 3.12 1.00
52684 2021-11-24 13:27:38 Terrasse 6.50 3.23 1.00
52683 2021-11-24 12:59:31 Terrasse 6.50 3.23 1.00
52682 2021-11-24 12:31:22 Terrasse 6.20 5.48 99.90
52681 2021-11-24 12:03:14 Terrasse 6.30 3.01 1.00
52680 2021-11-24 11:35:06 Terrasse 6.20 2.90 1.00
52679 2021-11-24 11:06:55 Terrasse 6.00 5.26 99.90
52678 2021-11-24 10:38:46 Terrasse 5.70 4.93 99.90
52677 2021-11-24 10:10:35 Terrasse 5.60 2.24 1.00
52676 2021-11-24 09:42:27 Terrasse 5.50 2.13 1.00
52675 2021-11-24 09:14:17 Terrasse 5.30 1.91 1.00
52674 2021-11-24 08:46:08 Terrasse 5.20 1.80 1.00
52673 2021-11-24 08:17:59 Terrasse 5.10 1.69 1.00
52672 2021-11-24 07:49:49 Terrasse 4.90 1.47 1.00
52671 2021-11-24 07:21:40 Terrasse 5.10 1.69 1.00
52670 2021-11-24 06:54:08 Terrasse 5.20 1.80 1.00
52669 2021-11-24 06:25:33 Terrasse 5.20 4.38 99.90
52668 2021-11-24 05:56:57 Terrasse 5.20 4.38 99.90
52667 2021-11-24 05:29:03 Terrasse 5.30 4.49 99.90
52666 2021-11-24 05:01:32 Terrasse 5.30 4.31 92.80
52665 2021-11-24 04:33:20 Terrasse 5.30 3.53 63.00
52664 2021-11-24 04:05:31 Terrasse 5.20 4.38 99.90
52663 2021-11-24 03:37:44 Terrasse 5.10 4.27 99.90
52662 2021-11-24 03:09:38 Terrasse 5.20 4.38 99.90
52661 2021-11-24 02:42:17 Terrasse 5.30 4.49 99.90
52660 2021-11-24 02:14:10 Terrasse 5.30 4.49 99.90
52659 2021-11-24 01:46:04 Terrasse 5.20 4.38 99.90
52658 2021-11-24 01:18:21 Terrasse 5.40 4.60 99.90
52657 2021-11-24 00:50:15 Terrasse 5.50 4.71 99.90
52656 2021-11-24 00:22:25 Terrasse 5.40 4.60 99.90
52655 2021-11-23 23:54:09 Terrasse 5.40 4.60 99.90
52654 2021-11-23 23:26:03 Terrasse 5.40 4.43 93.20
52653 2021-11-23 22:57:57 Terrasse 5.60 4.82 99.90
52652 2021-11-23 22:32:04 Terrasse 5.50 4.71 99.90
52651 2021-11-23 21:57:25 Terrasse 5.50 2.13 1.00
52650 2021-11-23 21:29:26 Terrasse 5.50 2.13 1.00
52649 2021-11-23 21:01:24 Terrasse 5.50 4.71 99.90
52648 2021-11-23 20:33:21 Terrasse 5.60 4.82 99.90
52647 2021-11-23 20:05:21 Terrasse 5.70 2.35 1.00
52646 2021-11-23 19:06:50 Terrasse 5.90 5.15 99.90
52645 2021-11-23 18:38:43 Terrasse 6.00 5.26 99.90
52644 2021-11-23 18:10:36 Terrasse 6.10 2.79 1.00
52643 2021-11-23 17:42:29 Terrasse 6.10 2.79 1.00
52642 2021-11-23 17:14:23 Terrasse 6.20 5.48 99.90
52641 2021-11-23 16:46:20 Terrasse 6.50 5.81 99.90
52640 2021-11-23 16:18:14 Terrasse 6.90 3.67 1.00
52639 2021-11-23 15:50:11 Terrasse 7.30 4.11 1.00
52638 2021-11-23 15:22:08 Terrasse 8.00 4.88 1.00
52637 2021-11-23 14:54:07 Terrasse 8.80 5.76 1.00
52636 2021-11-23 14:26:02 Terrasse 9.30 8.89 99.90
52635 2021-11-23 13:57:57 Terrasse 9.90 9.55 99.90
52634 2021-11-23 13:29:46 Terrasse 10.00 9.66 99.90
52633 2021-11-23 13:01:40 Terrasse 9.40 9.00 99.90
52632 2021-11-23 12:33:43 Terrasse 11.30 8.51 1.00
52631 2021-11-23 12:05:48 Terrasse 10.70 10.43 99.90
52630 2021-11-23 11:37:16 Terrasse 9.10 8.67 99.90
52629 2021-11-23 11:08:55 Terrasse 8.20 5.10 1.00
52628 2021-11-23 10:40:35 Terrasse 3.80 0.26 1.00
52627 2021-11-23 10:12:23 Terrasse 2.70 1.63 99.90
52626 2021-11-23 09:44:14 Terrasse 1.90 0.75 99.90
52625 2021-11-23 09:16:07 Terrasse 1.40 -2.38 1.00
52624 2021-11-23 08:48:01 Terrasse 1.20 -2.60 1.00
52623 2021-11-23 08:19:57 Terrasse 1.20 -0.02 99.90
52622 2021-11-23 07:52:00 Terrasse 1.70 -2.05 1.00
52621 2021-11-23 07:24:13 Terrasse 3.80 2.84 99.90
52620 2021-11-23 06:57:23 Terrasse 19.60 17.64 1.00
52619 2021-11-23 06:55:18 Terrasse 18.50 16.43 1.00
52618 2021-11-23 06:54:38 Terrasse 17.80 15.66 1.00
52617 2021-11-22 23:37:42 Terrasse 2.90 -0.73 1.00
52616 2021-11-22 23:09:28 Terrasse 3.10 2.07 99.90
52615 2021-11-22 22:41:13 Terrasse 3.40 2.40 99.90
52614 2021-11-22 22:12:57 Terrasse 3.50 -0.07 1.00
52613 2021-11-22 21:44:42 Terrasse 3.60 0.81 30.50
52612 2021-11-22 21:16:25 Terrasse 3.70 2.73 99.90
52611 2021-11-22 20:48:10 Terrasse 3.80 0.26 1.00
52610 2021-11-22 20:19:55 Terrasse 3.80 1.51 48.70
52609 2021-11-22 19:51:39 Terrasse 3.70 0.15 1.00
52608 2021-11-22 19:23:24 Terrasse 3.90 2.95 99.90
52607 2021-11-22 18:55:11 Terrasse 4.20 0.70 1.00
52606 2021-11-22 18:26:56 Terrasse 4.80 1.36 1.00
52605 2021-11-22 17:58:42 Terrasse 5.10 1.69 1.00
52604 2021-11-22 17:30:27 Terrasse 5.50 2.13 1.00
52603 2021-11-22 17:02:14 Terrasse 5.80 2.46 1.00
52602 2021-11-22 16:34:06 Terrasse 6.50 3.23 1.00
52601 2021-11-22 16:05:53 Terrasse 7.20 6.58 99.90
52600 2021-11-22 15:37:44 Terrasse 8.40 7.90 99.90
52599 2021-11-22 15:09:27 Terrasse 8.80 5.76 1.00
52598 2021-11-22 14:41:13 Terrasse 8.60 5.54 1.00
52597 2021-11-22 14:12:44 Terrasse 7.50 6.91 99.90
52596 2021-11-22 13:44:30 Terrasse 7.60 7.02 99.90
52595 2021-11-22 13:16:21 Terrasse 8.30 5.59 15.50
52594 2021-11-22 12:48:04 Terrasse 8.30 5.21 1.00
52593 2021-11-22 12:19:55 Terrasse 8.70 8.23 99.90
52592 2021-11-22 11:51:13 Terrasse 6.80 6.14 99.90
52591 2021-11-22 11:22:57 Terrasse 6.70 3.45 1.00
52590 2021-11-22 10:54:42 Terrasse 6.90 3.67 1.00
52589 2021-11-22 10:26:22 Terrasse 6.70 5.60 83.30
52588 2021-11-22 09:58:01 Terrasse 6.10 5.37 99.90
52587 2021-11-22 09:29:41 Terrasse 5.50 4.71 99.90
52586 2021-11-22 09:01:24 Terrasse 5.20 4.38 99.90
52585 2021-11-22 08:33:07 Terrasse 5.10 4.27 99.90
52584 2021-11-22 08:04:51 Terrasse 5.10 1.69 1.00
52583 2021-11-22 07:36:36 Terrasse 5.20 1.80 1.00
52582 2021-11-22 07:08:20 Terrasse 5.30 1.91 1.00
52581 2021-11-22 06:40:18 Terrasse 5.50 2.13 1.00
52580 2021-11-22 06:11:59 Terrasse 5.60 2.24 1.00
52579 2021-11-22 05:43:44 Terrasse 5.80 2.46 1.00
52578 2021-11-22 05:15:30 Terrasse 5.80 2.46 1.00
52577 2021-11-22 04:47:15 Terrasse 5.90 2.57 1.00
52576 2021-11-22 04:19:00 Terrasse 6.00 2.68 1.00
52575 2021-11-22 03:50:45 Terrasse 6.00 2.68 1.00
52574 2021-11-22 03:22:28 Terrasse 6.00 2.68 1.00
52573 2021-11-22 02:54:14 Terrasse 6.10 2.79 1.00
52572 2021-11-22 02:25:59 Terrasse 6.20 2.90 1.00
52571 2021-11-22 01:57:42 Terrasse 6.20 2.90 1.00
52570 2021-11-22 01:29:27 Terrasse 6.20 2.90 1.00
52569 2021-11-22 01:01:11 Terrasse 6.20 2.90 1.00
52568 2021-11-22 00:32:55 Terrasse 6.20 2.90 1.00
52567 2021-11-22 00:04:39 Terrasse 6.20 2.90 1.00
52566 2021-11-21 23:36:22 Terrasse 6.20 2.90 1.00
52565 2021-11-21 23:08:05 Terrasse 6.30 3.01 1.00
52564 2021-11-21 22:39:49 Terrasse 6.30 3.01 1.00
52563 2021-11-21 22:11:32 Terrasse 6.30 3.01 1.00
52562 2021-11-21 21:43:15 Terrasse 6.40 3.12 1.00
52561 2021-11-21 21:14:58 Terrasse 6.40 3.12 1.00
52560 2021-11-21 20:46:44 Terrasse 6.50 3.23 1.00
52559 2021-11-21 20:18:26 Terrasse 6.60 3.34 1.00
52558 2021-11-21 19:50:10 Terrasse 6.50 3.23 1.00
52557 2021-11-21 19:21:54 Terrasse 6.40 3.12 1.00
52556 2021-11-21 18:53:37 Terrasse 6.40 3.12 1.00
52555 2021-11-21 18:25:20 Terrasse 6.30 3.01 1.00
52554 2021-11-21 17:57:03 Terrasse 6.40 3.12 1.00
52553 2021-11-21 17:28:47 Terrasse 6.40 3.12 1.00
52552 2021-11-21 17:00:31 Terrasse 6.40 3.12 1.00
52551 2021-11-21 16:32:15 Terrasse 6.40 3.12 1.00
52550 2021-11-21 16:03:58 Terrasse 6.40 3.12 1.00
52549 2021-11-21 15:35:43 Terrasse 6.40 3.12 1.00
52548 2021-11-21 15:07:29 Terrasse 6.50 3.23 1.00
52547 2021-11-21 14:39:12 Terrasse 6.50 3.23 1.00
52546 2021-11-21 14:10:56 Terrasse 6.40 3.12 1.00
52545 2021-11-21 13:42:40 Terrasse 6.40 3.12 1.00
52544 2021-11-21 13:14:24 Terrasse 6.40 3.12 1.00
52543 2021-11-21 12:46:09 Terrasse 6.50 3.23 1.00
52542 2021-11-21 12:17:54 Terrasse 6.60 3.34 1.00
52541 2021-11-21 11:49:37 Terrasse 6.70 3.45 1.00
52540 2021-11-21 11:21:18 Terrasse 6.30 3.01 1.00
52539 2021-11-21 10:53:01 Terrasse 6.30 3.01 1.00
52538 2021-11-21 10:24:44 Terrasse 6.10 2.79 1.00
52537 2021-11-21 09:56:28 Terrasse 6.10 2.79 1.00
52536 2021-11-21 09:28:12 Terrasse 6.00 2.68 1.00
52535 2021-11-21 08:59:57 Terrasse 6.00 2.68 1.00
52534 2021-11-21 08:31:41 Terrasse 6.10 2.79 1.00
52533 2021-11-21 08:03:26 Terrasse 6.10 2.79 1.00
52532 2021-11-21 07:35:10 Terrasse 6.10 2.79 1.00
52531 2021-11-21 07:06:54 Terrasse 6.10 2.79 1.00
52530 2021-11-21 06:38:38 Terrasse 6.10 2.79 1.00
52529 2021-11-21 06:10:23 Terrasse 6.20 2.90 1.00
52528 2021-11-21 05:42:07 Terrasse 6.10 2.79 1.00
52527 2021-11-21 05:13:50 Terrasse 6.20 2.90 1.00
52526 2021-11-21 04:45:35 Terrasse 6.20 2.90 1.00
52525 2021-11-21 04:17:20 Terrasse 6.40 3.12 1.00
52524 2021-11-21 03:49:03 Terrasse 6.40 3.12 1.00
52523 2021-11-21 03:20:49 Terrasse 6.50 3.23 1.00
52522 2021-11-21 02:52:32 Terrasse 6.50 3.23 1.00
52521 2021-11-21 02:24:17 Terrasse 6.60 3.34 1.00
52520 2021-11-21 01:56:01 Terrasse 6.60 3.34 1.00
52519 2021-11-21 01:27:46 Terrasse 6.70 3.45 1.00
52518 2021-11-21 00:59:31 Terrasse 6.80 3.56 1.00
52517 2021-11-21 00:31:15 Terrasse 7.00 3.78 1.00
52516 2021-11-21 00:03:00 Terrasse 7.10 3.89 1.00
52515 2021-11-20 23:34:44 Terrasse 7.10 3.89 1.00
52514 2021-11-20 23:06:29 Terrasse 7.30 4.11 1.00
52513 2021-11-20 22:38:15 Terrasse 7.40 4.22 1.00
52512 2021-11-20 22:10:00 Terrasse 7.60 4.44 1.00
52511 2021-11-20 21:41:44 Terrasse 7.70 4.55 1.00
52510 2021-11-20 21:13:28 Terrasse 7.90 4.77 1.00
52509 2021-11-20 20:45:12 Terrasse 8.00 4.88 1.00
52508 2021-11-20 20:16:56 Terrasse 8.00 4.88 1.00
52507 2021-11-20 19:48:40 Terrasse 8.10 4.99 1.00
52506 2021-11-20 19:20:24 Terrasse 8.10 4.99 1.00
52505 2021-11-20 18:52:09 Terrasse 8.30 5.21 1.00
52504 2021-11-20 18:23:54 Terrasse 8.40 5.32 1.00
52503 2021-11-20 17:55:38 Terrasse 8.50 5.43 1.00
52502 2021-11-20 17:27:22 Terrasse 8.60 5.54 1.00
52501 2021-11-20 16:59:06 Terrasse 8.70 5.65 1.00
52500 2021-11-20 16:30:50 Terrasse 8.80 5.76 1.00
52499 2021-11-20 16:02:35 Terrasse 8.90 5.87 1.00
52498 2021-11-20 15:34:21 Terrasse 9.10 6.09 1.00
52497 2021-11-20 15:06:06 Terrasse 9.20 8.78 99.90
52496 2021-11-20 14:37:50 Terrasse 9.30 8.89 99.90
52495 2021-11-20 14:09:35 Terrasse 9.30 6.31 1.00
52494 2021-11-20 13:41:19 Terrasse 9.30 6.31 1.00
52493 2021-11-20 13:13:03 Terrasse 9.30 6.31 1.00
52492 2021-11-20 12:44:46 Terrasse 9.30 6.31 1.00
52491 2021-11-20 12:16:29 Terrasse 9.20 6.20 1.00
52490 2021-11-20 11:48:12 Terrasse 9.00 5.98 1.00
52489 2021-11-20 11:19:53 Terrasse 8.70 5.65 1.00
52488 2021-11-20 10:51:35 Terrasse 8.50 5.43 1.00
52487 2021-11-20 10:23:19 Terrasse 8.30 5.21 1.00
52486 2021-11-20 09:55:02 Terrasse 8.10 4.99 1.00
52485 2021-11-20 09:26:46 Terrasse 8.00 4.88 1.00
52484 2021-11-20 08:58:30 Terrasse 8.00 4.88 1.00
52483 2021-11-20 08:30:12 Terrasse 8.00 4.88 1.00
52482 2021-11-20 08:01:57 Terrasse 7.90 4.77 1.00
52481 2021-11-20 07:33:41 Terrasse 7.90 4.77 1.00
52480 2021-11-20 07:05:27 Terrasse 7.90 4.77 1.00
52479 2021-11-20 06:37:12 Terrasse 8.00 4.88 1.00
52478 2021-11-20 06:08:56 Terrasse 8.00 4.88 1.00
52477 2021-11-20 05:40:41 Terrasse 8.00 4.88 1.00
52476 2021-11-20 05:12:24 Terrasse 8.00 4.88 1.00
52475 2021-11-20 04:44:08 Terrasse 8.00 4.88 1.00
52474 2021-11-20 04:15:50 Terrasse 8.00 4.88 1.00
52473 2021-11-20 03:47:35 Terrasse 7.90 4.77 1.00
52472 2021-11-20 03:19:19 Terrasse 8.00 4.88 1.00
52471 2021-11-20 02:51:03 Terrasse 8.00 4.88 1.00
52470 2021-11-20 02:22:46 Terrasse 8.00 4.88 1.00
52469 2021-11-20 01:54:30 Terrasse 8.00 4.88 1.00
52468 2021-11-20 01:26:12 Terrasse 7.90 4.77 1.00
52467 2021-11-20 00:57:55 Terrasse 7.90 4.77 1.00
52466 2021-11-20 00:29:38 Terrasse 7.90 4.77 1.00
52465 2021-11-20 00:01:22 Terrasse 8.00 4.88 1.00
52464 2021-11-19 23:33:04 Terrasse 7.90 4.77 1.00
52463 2021-11-19 23:04:48 Terrasse 7.90 4.77 1.00
52462 2021-11-19 22:36:32 Terrasse 7.90 4.77 1.00
52461 2021-11-19 22:08:16 Terrasse 7.90 4.77 1.00
52460 2021-11-19 21:40:00 Terrasse 7.90 4.77 1.00
52459 2021-11-19 21:11:43 Terrasse 7.90 4.77 1.00
52458 2021-11-19 20:43:29 Terrasse 7.90 4.77 1.00
52457 2021-11-19 20:15:12 Terrasse 7.90 4.77 1.00
52456 2021-11-19 19:46:56 Terrasse 7.90 4.77 1.00
52455 2021-11-19 19:18:40 Terrasse 8.00 4.88 1.00
52454 2021-11-19 18:50:23 Terrasse 8.00 4.88 1.00
52453 2021-11-19 18:22:08 Terrasse 8.00 4.88 1.00
52452 2021-11-19 17:53:51 Terrasse 7.90 4.77 1.00
52451 2021-11-19 17:25:34 Terrasse 8.00 4.88 1.00
52450 2021-11-19 16:57:17 Terrasse 7.90 4.77 1.00
52449 2021-11-19 16:29:03 Terrasse 7.90 4.77 1.00
52448 2021-11-19 16:00:46 Terrasse 7.90 4.77 1.00
52447 2021-11-19 15:32:29 Terrasse 7.90 4.77 1.00
52446 2021-11-19 15:04:13 Terrasse 7.80 4.66 1.00
52445 2021-11-19 14:35:57 Terrasse 7.80 4.66 1.00
52444 2021-11-19 14:07:41 Terrasse 7.80 4.66 1.00
52443 2021-11-19 13:39:27 Terrasse 7.70 4.55 1.00
52442 2021-11-19 13:11:10 Terrasse 7.70 4.55 1.00
52441 2021-11-19 12:42:51 Terrasse 7.50 4.33 1.00
52440 2021-11-19 12:14:36 Terrasse 7.40 4.22 1.00
52439 2021-11-19 11:46:20 Terrasse 7.20 4.00 1.00
52438 2021-11-19 11:18:02 Terrasse 7.10 3.89 1.00
52437 2021-11-19 10:49:45 Terrasse 7.00 3.78 1.00
52436 2021-11-19 10:21:28 Terrasse 7.10 3.89 1.00
52435 2021-11-19 09:53:13 Terrasse 6.70 3.45 1.00
52434 2021-11-19 09:24:56 Terrasse 6.60 3.34 1.00
52433 2021-11-19 08:56:38 Terrasse 6.50 3.23 1.00
52432 2021-11-19 08:28:21 Terrasse 6.40 3.12 1.00
52431 2021-11-19 08:00:05 Terrasse 6.40 3.12 1.00
52430 2021-11-19 07:31:47 Terrasse 6.40 3.12 1.00
52429 2021-11-19 07:03:31 Terrasse 6.30 3.01 1.00
52428 2021-11-19 06:35:14 Terrasse 6.30 3.01 1.00
52427 2021-11-19 06:06:57 Terrasse 6.30 3.01 1.00
52426 2021-11-19 05:38:41 Terrasse 6.20 2.90 1.00
52425 2021-11-19 05:10:24 Terrasse 6.20 2.90 1.00
52424 2021-11-19 04:42:09 Terrasse 6.20 2.90 1.00
52423 2021-11-19 04:13:52 Terrasse 6.20 2.90 1.00
52422 2021-11-19 03:45:36 Terrasse 6.20 2.90 1.00
52421 2021-11-19 03:17:20 Terrasse 6.30 3.01 1.00
52420 2021-11-19 02:49:03 Terrasse 6.20 2.90 1.00
52419 2021-11-19 02:20:48 Terrasse 6.30 3.01 1.00
52418 2021-11-19 01:52:32 Terrasse 6.30 3.01 1.00
52417 2021-11-19 01:24:17 Terrasse 6.40 3.12 1.00
52416 2021-11-19 00:56:00 Terrasse 6.50 3.23 1.00
52415 2021-11-19 00:27:45 Terrasse 6.60 3.34 1.00
52414 2021-11-19 00:01:31 Terrasse 6.60 3.34 1.00
52413 2021-11-18 23:27:40 Terrasse 6.60 3.34 1.00
52412 2021-11-18 22:59:22 Terrasse 6.50 3.23 1.00
52411 2021-11-18 22:31:05 Terrasse 6.50 3.23 1.00
52410 2021-11-18 22:02:47 Terrasse 6.50 3.23 1.00
52409 2021-11-18 21:34:30 Terrasse 6.60 3.34 1.00
52408 2021-11-18 21:06:13 Terrasse 6.50 3.23 1.00
52407 2021-11-18 20:37:57 Terrasse 6.40 3.12 1.00
52406 2021-11-18 20:10:06 Terrasse 6.50 3.23 1.00
52405 2021-11-18 19:43:15 Terrasse 6.60 3.34 1.00
52404 2021-11-18 18:38:59 Terrasse 6.90 6.25 99.90
52403 2021-11-18 13:46:39 Terrasse 9.70 9.33 99.90
52402 2021-11-18 13:14:02 Terrasse 9.70 9.33 99.90
52401 2021-11-18 12:44:22 Terrasse 8.70 5.65 1.00
52400 2021-11-18 12:16:07 Terrasse 8.70 8.23 99.90
52399 2021-11-18 11:47:56 Terrasse 9.10 8.45 91.30
52398 2021-11-18 11:19:21 Terrasse 8.00 4.88 1.00
52397 2021-11-18 10:51:01 Terrasse 7.20 4.00 1.00
52396 2021-11-18 10:22:42 Terrasse 6.70 3.45 1.00
52395 2021-11-18 09:54:24 Terrasse 6.10 2.79 1.00
52394 2021-11-18 09:28:31 Terrasse 5.80 2.46 1.00
52393 2021-11-18 08:48:02 Terrasse 5.10 1.69 1.00
52392 2021-11-18 08:19:45 Terrasse 5.00 1.58 1.00
52391 2021-11-18 07:51:29 Terrasse 5.10 1.69 1.00
52390 2021-11-18 07:23:14 Terrasse 5.30 1.91 1.00
52389 2021-11-18 06:55:00 Terrasse 5.50 2.13 1.00
52388 2021-11-18 06:27:35 Terrasse 5.40 2.02 1.00
52387 2021-11-18 05:58:56 Terrasse 5.60 2.24 1.00
52386 2021-11-18 05:32:58 Terrasse 5.80 2.46 1.00
52385 2021-11-18 04:56:23 Terrasse 5.90 2.57 1.00
52384 2021-11-18 04:28:26 Terrasse 6.00 2.68 1.00
52383 2021-11-18 04:00:36 Terrasse 6.10 2.79 1.00
52382 2021-11-18 03:32:17 Terrasse 6.20 2.90 1.00
52381 2021-11-18 03:04:11 Terrasse 6.30 3.01 1.00
52380 2021-11-18 02:35:59 Terrasse 6.40 3.12 1.00
52379 2021-11-18 02:08:13 Terrasse 6.50 3.23 1.00
52378 2021-11-18 01:09:44 Terrasse 6.50 3.23 1.00
52377 2021-11-18 00:36:55 Terrasse 6.50 3.23 1.00
52376 2021-11-18 00:01:41 Terrasse 6.50 3.23 1.00
52375 2021-11-17 23:33:27 Terrasse 6.40 3.12 1.00
52374 2021-11-17 23:05:12 Terrasse 6.40 3.12 1.00
52373 2021-11-17 22:36:57 Terrasse 6.40 3.12 1.00
52372 2021-11-17 22:08:43 Terrasse 6.50 3.23 1.00
52371 2021-11-17 21:40:29 Terrasse 6.50 3.23 1.00
52370 2021-11-17 21:12:13 Terrasse 6.50 3.23 1.00
52369 2021-11-17 20:43:59 Terrasse 6.40 3.12 1.00
52368 2021-11-17 20:15:44 Terrasse 6.40 3.12 1.00
52367 2021-11-17 19:47:30 Terrasse 6.30 3.01 1.00
52366 2021-11-17 19:19:16 Terrasse 6.30 3.01 1.00
52365 2021-11-17 18:51:00 Terrasse 6.30 3.01 1.00
52364 2021-11-17 18:22:57 Terrasse 6.30 3.01 1.00
52363 2021-11-17 17:54:38 Terrasse 6.30 3.01 1.00
52362 2021-11-17 17:26:24 Terrasse 6.30 3.01 1.00
52361 2021-11-17 16:58:08 Terrasse 6.30 3.01 1.00
52360 2021-11-17 16:29:55 Terrasse 6.40 3.12 1.00
52359 2021-11-17 16:01:41 Terrasse 6.40 3.12 1.00
52358 2021-11-17 15:33:28 Terrasse 6.50 3.23 1.00
52357 2021-11-17 15:05:15 Terrasse 6.60 3.34 1.00
52356 2021-11-17 14:36:59 Terrasse 6.50 3.23 1.00
52355 2021-11-17 14:08:45 Terrasse 6.50 5.81 99.90
52354 2021-11-17 13:40:32 Terrasse 6.60 5.92 99.90
52353 2021-11-17 13:12:19 Terrasse 6.60 5.92 99.90
52352 2021-11-17 12:44:03 Terrasse 6.40 3.12 1.00
52351 2021-11-17 12:15:49 Terrasse 6.30 3.01 1.00
52350 2021-11-17 11:47:34 Terrasse 6.20 2.90 1.00
52349 2021-11-17 11:19:18 Terrasse 5.80 2.46 1.00
52348 2021-11-17 10:51:03 Terrasse 5.70 2.35 1.00
52347 2021-11-17 10:22:47 Terrasse 5.50 2.13 1.00
52346 2021-11-17 09:54:31 Terrasse 5.50 2.13 1.00
52345 2021-11-17 09:26:16 Terrasse 5.20 1.80 1.00
52344 2021-11-17 08:58:01 Terrasse 5.10 1.69 1.00
52343 2021-11-17 08:29:48 Terrasse 5.10 1.69 1.00
52342 2021-11-17 08:01:33 Terrasse 5.10 1.69 1.00
52341 2021-11-17 07:33:21 Terrasse 5.20 1.80 1.00
52340 2021-11-17 06:33:25 Terrasse 5.20 1.80 1.00
52339 2021-11-17 06:05:12 Terrasse 5.20 1.80 1.00
52338 2021-11-17 05:36:57 Terrasse 5.20 1.80 1.00
52337 2021-11-17 05:08:44 Terrasse 5.30 1.91 1.00
52336 2021-11-17 04:40:29 Terrasse 5.40 2.02 1.00
52335 2021-11-17 04:12:16 Terrasse 5.40 2.02 1.00
52334 2021-11-17 03:44:03 Terrasse 5.50 2.13 1.00
52333 2021-11-17 03:15:49 Terrasse 5.50 2.13 1.00
52332 2021-11-17 02:47:37 Terrasse 5.50 2.13 1.00
52331 2021-11-17 02:19:23 Terrasse 5.60 2.24 1.00
52330 2021-11-17 01:51:09 Terrasse 5.60 2.24 1.00
52329 2021-11-17 01:22:56 Terrasse 5.60 2.24 1.00
52328 2021-11-17 00:54:42 Terrasse 5.70 2.35 1.00
52327 2021-11-17 00:26:27 Terrasse 5.70 2.35 1.00
52326 2021-11-16 23:58:13 Terrasse 5.70 2.35 1.00
52325 2021-11-16 23:30:06 Terrasse 5.80 2.46 1.00
52324 2021-11-16 23:01:56 Terrasse 5.80 2.46 1.00
52323 2021-11-16 22:33:40 Terrasse 5.90 2.57 1.00
52322 2021-11-16 22:05:26 Terrasse 5.90 2.57 1.00
52321 2021-11-16 21:37:11 Terrasse 6.00 2.68 1.00
52320 2021-11-16 21:08:57 Terrasse 6.00 2.68 1.00
52319 2021-11-16 20:40:44 Terrasse 6.10 2.79 1.00
52318 2021-11-16 20:12:29 Terrasse 6.10 2.79 1.00
52317 2021-11-16 19:44:21 Terrasse 6.20 2.90 1.00
52316 2021-11-16 19:16:04 Terrasse 6.20 2.90 1.00
52315 2021-11-16 18:47:56 Terrasse 6.30 3.01 1.00
52314 2021-11-16 18:19:40 Terrasse 6.30 3.01 1.00
52313 2021-11-16 17:51:26 Terrasse 6.30 3.01 1.00
52312 2021-11-16 17:23:11 Terrasse 6.30 3.01 1.00
52311 2021-11-16 16:54:57 Terrasse 6.40 3.12 1.00
52310 2021-11-16 16:26:43 Terrasse 6.40 3.12 1.00
52309 2021-11-16 15:58:29 Terrasse 6.50 3.23 1.00
52308 2021-11-16 15:30:16 Terrasse 6.60 3.34 1.00
52307 2021-11-16 15:02:02 Terrasse 6.60 3.34 1.00
52306 2021-11-16 14:33:48 Terrasse 6.70 3.45 1.00
52305 2021-11-16 14:05:40 Terrasse 6.70 3.45 1.00
52304 2021-11-16 13:37:30 Terrasse 6.70 3.45 1.00
52303 2021-11-16 13:09:13 Terrasse 6.70 3.45 1.00
52302 2021-11-16 12:40:58 Terrasse 6.70 3.45 1.00
52301 2021-11-16 12:12:43 Terrasse 6.70 3.45 1.00
52300 2021-11-16 11:44:29 Terrasse 6.70 3.45 1.00
52299 2021-11-16 11:16:13 Terrasse 6.70 3.45 1.00
52298 2021-11-16 10:47:59 Terrasse 6.70 3.45 1.00
52297 2021-11-16 10:19:44 Terrasse 6.60 3.34 1.00
52296 2021-11-16 09:51:29 Terrasse 6.60 3.34 1.00
52295 2021-11-16 09:23:15 Terrasse 6.50 3.23 1.00
52294 2021-11-16 08:55:02 Terrasse 6.50 3.23 1.00
52293 2021-11-16 08:26:47 Terrasse 6.50 3.23 1.00
52292 2021-11-16 07:58:33 Terrasse 6.40 3.12 1.00
52291 2021-11-16 07:30:19 Terrasse 6.40 3.12 1.00
52290 2021-11-16 07:02:06 Terrasse 6.40 3.12 1.00
52289 2021-11-16 06:33:52 Terrasse 6.40 3.12 1.00
52288 2021-11-16 06:05:38 Terrasse 6.40 3.12 1.00
52287 2021-11-16 05:37:25 Terrasse 6.40 3.12 1.00
52286 2021-11-16 05:09:10 Terrasse 6.50 3.23 1.00
52285 2021-11-16 04:40:55 Terrasse 6.60 3.34 1.00
52284 2021-11-16 04:12:41 Terrasse 6.60 3.34 1.00
52283 2021-11-16 03:44:28 Terrasse 6.60 3.34 1.00
52282 2021-11-16 03:16:30 Terrasse 6.70 3.45 1.00
52281 2021-11-16 02:48:11 Terrasse 6.70 3.45 1.00
52280 2021-11-16 02:19:56 Terrasse 6.70 3.45 1.00
52279 2021-11-16 01:51:42 Terrasse 6.80 3.56 1.00
52278 2021-11-16 01:23:28 Terrasse 6.80 3.56 1.00
52277 2021-11-16 00:55:13 Terrasse 6.90 3.67 1.00
52276 2021-11-16 00:26:59 Terrasse 6.90 3.67 1.00
52275 2021-11-15 23:58:45 Terrasse 7.00 3.78 1.00
52274 2021-11-15 23:30:31 Terrasse 7.00 3.78 1.00
52273 2021-11-15 23:02:16 Terrasse 7.00 3.78 1.00
52272 2021-11-15 22:34:03 Terrasse 7.10 3.89 1.00
52271 2021-11-15 22:05:47 Terrasse 7.10 3.89 1.00
52270 2021-11-15 21:37:32 Terrasse 7.10 3.89 1.00
52269 2021-11-15 21:09:17 Terrasse 7.10 3.89 1.00
52268 2021-11-15 20:41:03 Terrasse 7.10 3.89 1.00
52267 2021-11-15 20:12:48 Terrasse 7.10 3.89 1.00
52266 2021-11-15 19:44:34 Terrasse 7.10 3.89 1.00
52265 2021-11-15 19:16:20 Terrasse 7.20 4.00 1.00
52264 2021-11-15 18:48:07 Terrasse 7.20 4.00 1.00
52263 2021-11-15 18:19:53 Terrasse 7.20 4.00 1.00
52262 2021-11-15 17:51:40 Terrasse 7.20 4.00 1.00
52261 2021-11-15 17:23:26 Terrasse 7.30 4.11 1.00
52260 2021-11-15 16:55:13 Terrasse 7.30 4.11 1.00
52259 2021-11-15 16:27:00 Terrasse 7.30 4.11 1.00
52258 2021-11-15 15:58:46 Terrasse 7.40 4.22 1.00
52257 2021-11-15 15:30:31 Terrasse 7.50 4.33 1.00
52256 2021-11-15 15:02:18 Terrasse 7.50 4.33 1.00
52255 2021-11-15 14:34:05 Terrasse 7.60 4.44 1.00
52254 2021-11-15 14:05:51 Terrasse 7.60 4.44 1.00
52253 2021-11-15 13:37:37 Terrasse 7.70 4.55 1.00
52252 2021-11-15 13:09:23 Terrasse 7.70 4.55 1.00
52251 2021-11-15 12:41:07 Terrasse 7.40 4.22 1.00
52250 2021-11-15 12:12:53 Terrasse 7.40 4.22 1.00
52249 2021-11-15 11:44:38 Terrasse 7.30 4.11 1.00
52248 2021-11-15 11:16:24 Terrasse 7.30 4.11 1.00
52247 2021-11-15 10:48:11 Terrasse 7.30 4.11 1.00
52246 2021-11-15 10:19:57 Terrasse 7.30 4.11 1.00
52245 2021-11-15 09:51:41 Terrasse 7.30 4.11 1.00
52244 2021-11-15 09:23:27 Terrasse 7.30 4.11 1.00
52243 2021-11-15 08:55:11 Terrasse 7.30 4.11 1.00
52242 2021-11-15 08:26:57 Terrasse 7.30 4.11 1.00
52241 2021-11-15 07:58:43 Terrasse 7.30 4.11 1.00
52240 2021-11-15 07:30:28 Terrasse 7.30 4.11 1.00
52239 2021-11-15 07:02:15 Terrasse 7.30 4.11 1.00
52238 2021-11-15 06:33:59 Terrasse 7.40 4.22 1.00
52237 2021-11-15 06:05:45 Terrasse 7.40 4.22 1.00
52236 2021-11-15 05:37:31 Terrasse 7.40 4.22 1.00
52235 2021-11-15 05:09:17 Terrasse 7.40 4.22 1.00
52234 2021-11-15 04:41:02 Terrasse 7.40 4.22 1.00
52233 2021-11-15 04:12:48 Terrasse 7.40 4.22 1.00
52232 2021-11-15 03:44:33 Terrasse 7.40 4.22 1.00
52231 2021-11-15 03:16:19 Terrasse 7.40 4.22 1.00
52230 2021-11-15 02:48:04 Terrasse 7.40 4.22 1.00
52229 2021-11-15 02:19:50 Terrasse 7.40 4.22 1.00
52228 2021-11-15 01:51:35 Terrasse 7.40 4.22 1.00
52227 2021-11-15 01:23:22 Terrasse 7.30 4.11 1.00
52226 2021-11-15 00:55:07 Terrasse 7.40 4.22 1.00
52225 2021-11-15 00:26:53 Terrasse 7.40 4.22 1.00
52224 2021-11-14 23:58:40 Terrasse 7.40 4.22 1.00
52223 2021-11-14 23:30:25 Terrasse 7.50 4.33 1.00
52222 2021-11-14 23:02:11 Terrasse 7.50 4.33 1.00
52221 2021-11-14 22:33:56 Terrasse 7.50 4.33 1.00
52220 2021-11-14 22:05:40 Terrasse 7.60 4.44 1.00
52219 2021-11-14 21:37:26 Terrasse 7.60 4.44 1.00
52218 2021-11-14 21:09:11 Terrasse 7.50 4.33 1.00
52217 2021-11-14 20:40:56 Terrasse 7.50 4.33 1.00
52216 2021-11-14 20:12:42 Terrasse 7.60 4.44 1.00
52215 2021-11-14 19:44:29 Terrasse 7.70 4.55 1.00
52214 2021-11-14 19:16:15 Terrasse 7.80 4.66 1.00
52213 2021-11-14 18:48:00 Terrasse 7.90 4.77 1.00
52212 2021-11-14 18:19:46 Terrasse 8.00 4.88 1.00
52211 2021-11-14 17:51:32 Terrasse 8.10 4.99 1.00
52210 2021-11-14 17:23:18 Terrasse 8.20 5.10 1.00
52209 2021-11-14 16:55:06 Terrasse 8.40 5.32 1.00
52208 2021-11-14 16:26:53 Terrasse 8.80 5.76 1.00
52207 2021-11-14 15:58:40 Terrasse 9.10 6.09 1.00
52206 2021-11-14 15:30:26 Terrasse 9.30 6.31 1.00
52205 2021-11-14 15:02:09 Terrasse 8.80 5.76 1.00
52204 2021-11-14 14:33:54 Terrasse 8.80 5.76 1.00
52203 2021-11-14 14:05:39 Terrasse 8.70 5.65 1.00
52202 2021-11-14 13:37:23 Terrasse 8.50 5.43 1.00
52201 2021-11-14 13:09:07 Terrasse 8.40 5.32 1.00
52200 2021-11-14 12:40:52 Terrasse 8.50 5.43 1.00
52199 2021-11-14 12:12:37 Terrasse 8.40 5.32 1.00
52198 2021-11-14 11:44:19 Terrasse 8.20 5.10 1.00
52197 2021-11-14 11:16:05 Terrasse 8.00 4.88 1.00
52196 2021-11-14 10:47:47 Terrasse 7.70 4.55 1.00
52195 2021-11-14 10:19:30 Terrasse 7.40 4.22 1.00
52194 2021-11-14 09:51:13 Terrasse 7.20 4.00 1.00
52193 2021-11-14 09:22:57 Terrasse 7.00 3.78 1.00
52192 2021-11-14 08:54:41 Terrasse 6.90 3.67 1.00
52191 2021-11-14 08:26:24 Terrasse 6.80 3.56 1.00
52190 2021-11-14 07:58:10 Terrasse 6.70 3.45 1.00
52189 2021-11-14 07:29:55 Terrasse 6.70 3.45 1.00
52188 2021-11-14 07:01:40 Terrasse 6.70 3.45 1.00
52187 2021-11-14 06:33:24 Terrasse 6.60 3.34 1.00
52186 2021-11-14 06:05:08 Terrasse 6.70 3.45 1.00
52185 2021-11-14 05:36:55 Terrasse 6.60 3.34 1.00
52184 2021-11-14 05:08:40 Terrasse 6.60 3.34 1.00
52183 2021-11-14 04:40:25 Terrasse 6.60 3.34 1.00
52182 2021-11-14 04:12:10 Terrasse 6.50 3.23 1.00
52181 2021-11-14 03:43:56 Terrasse 6.50 3.23 1.00
52180 2021-11-14 03:15:42 Terrasse 6.40 3.12 1.00
52179 2021-11-14 02:47:28 Terrasse 6.40 3.12 1.00
52178 2021-11-14 02:19:13 Terrasse 6.30 3.01 1.00
52177 2021-11-14 01:50:59 Terrasse 6.30 3.01 1.00
52176 2021-11-14 01:22:45 Terrasse 6.20 2.90 1.00
52175 2021-11-14 00:54:31 Terrasse 6.20 2.90 1.00
52174 2021-11-14 00:26:16 Terrasse 6.20 2.90 1.00
52173 2021-11-13 23:58:03 Terrasse 6.10 2.79 1.00
52172 2021-11-13 23:29:47 Terrasse 6.10 2.79 1.00
52171 2021-11-13 23:01:32 Terrasse 6.10 2.79 1.00
52170 2021-11-13 22:33:17 Terrasse 6.00 2.68 1.00
52169 2021-11-13 22:05:03 Terrasse 5.90 2.57 1.00
52168 2021-11-13 21:36:49 Terrasse 5.90 2.57 1.00
52167 2021-11-13 21:08:33 Terrasse 5.80 2.46 1.00
52166 2021-11-13 20:40:18 Terrasse 5.70 2.35 1.00
52165 2021-11-13 20:12:03 Terrasse 5.70 2.35 1.00
52164 2021-11-13 19:43:50 Terrasse 5.70 2.35 1.00
52163 2021-11-13 19:15:35 Terrasse 5.90 2.57 1.00
52162 2021-11-13 18:47:20 Terrasse 5.40 2.02 1.00
52161 2021-11-13 18:19:04 Terrasse 5.20 1.80 1.00
52160 2021-11-13 17:50:48 Terrasse 5.10 1.69 1.00
52159 2021-11-13 17:22:34 Terrasse 5.10 1.69 1.00
52158 2021-11-13 16:54:19 Terrasse 5.00 1.58 1.00
52157 2021-11-13 16:26:04 Terrasse 5.00 1.58 1.00
52156 2021-11-13 15:57:49 Terrasse 4.90 1.47 1.00
52155 2021-11-13 15:29:35 Terrasse 4.90 1.47 1.00
52154 2021-11-13 15:01:20 Terrasse 4.70 1.25 1.00
52153 2021-11-13 14:33:04 Terrasse 4.50 1.03 1.00
52152 2021-11-13 14:04:48 Terrasse 4.30 0.81 1.00
52151 2021-11-13 13:36:33 Terrasse 4.20 0.70 1.00
52150 2021-11-13 13:08:18 Terrasse 4.00 0.48 1.00
52149 2021-11-13 12:40:03 Terrasse 4.00 0.48 1.00
52148 2021-11-13 12:11:51 Terrasse 3.80 0.26 1.00
52147 2021-11-13 11:43:38 Terrasse 3.70 0.15 1.00
52146 2021-11-13 11:15:23 Terrasse 3.50 -0.07 1.00
52145 2021-11-13 10:47:08 Terrasse 3.40 -0.18 1.00
52144 2021-11-13 10:18:53 Terrasse 3.10 -0.51 1.00
52143 2021-11-13 09:50:40 Terrasse 3.00 -0.62 1.00
52142 2021-11-13 09:22:25 Terrasse 2.90 -0.73 1.00
52141 2021-11-13 08:54:11 Terrasse 2.80 -0.84 1.00
52140 2021-11-13 08:25:59 Terrasse 2.70 -0.95 1.00
52139 2021-11-13 07:57:44 Terrasse 2.60 -1.06 1.00
52138 2021-11-13 07:29:30 Terrasse 2.50 -1.17 1.00
52137 2021-11-13 07:01:16 Terrasse 2.50 -1.17 1.00
52136 2021-11-13 06:33:02 Terrasse 2.40 -1.28 1.00
52135 2021-11-13 06:04:48 Terrasse 2.40 -1.28 1.00
52134 2021-11-13 05:36:35 Terrasse 2.40 -1.28 1.00
52133 2021-11-13 05:08:21 Terrasse 2.30 -1.39 1.00
52132 2021-11-13 04:40:08 Terrasse 2.30 -1.39 1.00
52131 2021-11-13 04:11:55 Terrasse 2.30 -1.39 1.00
52130 2021-11-13 03:43:41 Terrasse 2.20 -1.50 1.00
52129 2021-11-13 03:15:28 Terrasse 2.30 -1.39 1.00
52128 2021-11-13 02:47:14 Terrasse 2.30 -1.39 1.00
52127 2021-11-13 02:19:02 Terrasse 2.40 -1.28 1.00
52126 2021-11-13 01:50:49 Terrasse 2.40 -1.28 1.00
52125 2021-11-13 01:22:36 Terrasse 2.40 -1.28 1.00
52124 2021-11-13 00:54:22 Terrasse 2.40 -1.28 1.00
52123 2021-11-13 00:26:09 Terrasse 2.40 -1.28 1.00
52122 2021-11-12 23:57:55 Terrasse 2.40 -1.28 1.00
52121 2021-11-12 23:29:40 Terrasse 2.40 -1.28 1.00
52120 2021-11-12 23:01:27 Terrasse 2.50 -1.17 1.00
52119 2021-11-12 22:33:13 Terrasse 2.50 -1.17 1.00
52118 2021-11-12 22:04:59 Terrasse 2.60 -1.06 1.00
52117 2021-11-12 21:36:46 Terrasse 2.60 -1.06 1.00
52116 2021-11-12 21:08:32 Terrasse 2.60 -1.06 1.00
52115 2021-11-12 20:40:18 Terrasse 2.60 -1.06 1.00
52114 2021-11-12 20:12:05 Terrasse 2.60 -1.06 1.00
52113 2021-11-12 19:43:50 Terrasse 2.70 -0.95 1.00
52112 2021-11-12 19:15:42 Terrasse 2.70 -0.95 1.00
52111 2021-11-12 18:47:36 Terrasse 2.60 -1.06 1.00
52110 2021-11-12 18:19:18 Terrasse 2.60 -1.06 1.00
52109 2021-11-12 17:51:05 Terrasse 2.60 -1.06 1.00
52108 2021-11-12 17:22:55 Terrasse 2.70 -0.95 1.00
52107 2021-11-12 16:54:41 Terrasse 2.80 -0.84 1.00
52106 2021-11-12 16:26:34 Terrasse 2.90 -0.73 1.00
52105 2021-11-12 15:58:22 Terrasse 3.00 -0.62 1.00
52104 2021-11-12 15:30:14 Terrasse 3.20 -0.40 1.00
52103 2021-11-12 15:02:04 Terrasse 3.20 -0.40 1.00
52102 2021-11-12 14:33:51 Terrasse 3.50 -0.07 1.00
52101 2021-11-12 14:05:35 Terrasse 3.50 -0.07 1.00
52100 2021-11-12 13:37:21 Terrasse 3.40 -0.18 1.00
52099 2021-11-12 13:09:06 Terrasse 3.50 -0.07 1.00
52098 2021-11-12 12:40:53 Terrasse 3.50 -0.07 1.00
52097 2021-11-12 12:13:09 Terrasse 3.40 -0.18 1.00
52096 2021-11-12 11:45:25 Terrasse 3.50 -0.07 1.00
52095 2021-11-12 11:17:56 Terrasse 3.40 -0.18 1.00
52094 2021-11-12 10:50:36 Terrasse 3.20 -0.40 1.00
52093 2021-11-12 10:20:53 Terrasse 3.00 -0.62 1.00
52092 2021-11-12 09:49:47 Terrasse 2.80 -0.84 1.00
52091 2021-11-12 09:23:19 Terrasse 2.70 -0.95 1.00
52090 2021-11-12 08:50:41 Terrasse 2.60 -1.06 1.00
52089 2021-11-12 08:24:20 Terrasse 2.70 -0.95 1.00
52088 2021-11-12 07:54:05 Terrasse 2.60 -1.06 1.00
52087 2021-11-12 07:20:35 Terrasse 2.60 -1.06 1.00
52086 2021-11-12 06:48:03 Terrasse 2.70 -0.95 1.00
52085 2021-11-12 06:15:29 Terrasse 2.70 -0.95 1.00
52084 2021-11-12 05:41:42 Terrasse 2.80 -0.84 1.00
52083 2021-11-12 05:04:25 Terrasse 2.70 -0.95 1.00
52082 2021-11-12 04:37:18 Terrasse 2.90 -0.73 1.00
52081 2021-11-12 04:01:27 Terrasse 2.80 -0.84 1.00
52080 2021-11-12 03:24:37 Terrasse 2.60 -1.06 1.00
52079 2021-11-12 02:50:10 Terrasse 2.50 -1.17 1.00
52078 2021-11-12 02:15:38 Terrasse 2.30 -1.39 1.00
52077 2021-11-12 01:38:20 Terrasse 2.20 1.08 99.90
52076 2021-11-12 01:02:26 Terrasse 2.00 0.86 99.90
52075 2021-11-12 00:29:17 Terrasse 2.10 0.97 99.90
52074 2021-11-11 23:50:38 Terrasse 2.20 0.53 78.70
52073 2021-11-11 23:22:26 Terrasse 2.40 -0.94 13.90
52072 2021-11-11 22:54:12 Terrasse 2.50 1.34 97.20
52071 2021-11-11 22:26:02 Terrasse 2.70 1.63 99.90
52070 2021-11-11 21:57:49 Terrasse 2.80 1.74 99.90
52069 2021-11-11 21:29:36 Terrasse 2.90 1.85 99.90
52068 2021-11-11 21:01:24 Terrasse 3.10 2.07 99.90
52067 2021-11-11 20:33:14 Terrasse 3.50 -0.07 1.00
52066 2021-11-11 20:05:04 Terrasse 4.00 0.48 1.00
52065 2021-11-11 19:36:52 Terrasse 4.10 0.59 1.00
52064 2021-11-11 19:08:41 Terrasse 4.30 3.39 99.90
52063 2021-11-11 18:40:30 Terrasse 4.60 3.72 99.90
52062 2021-11-11 18:12:20 Terrasse 5.00 1.58 1.00
52061 2021-11-11 17:44:10 Terrasse 5.70 2.35 1.00
52060 2021-11-11 17:16:00 Terrasse 6.20 2.90 1.00
52059 2021-11-11 16:47:52 Terrasse 7.20 4.00 1.00
52058 2021-11-11 16:19:43 Terrasse 8.10 4.99 1.00
52057 2021-11-11 15:51:40 Terrasse 10.50 7.63 1.00
52056 2021-11-11 15:23:25 Terrasse 9.30 6.31 1.00
52055 2021-11-11 14:55:28 Terrasse 13.50 13.51 99.90
52054 2021-11-11 14:27:16 Terrasse 14.90 15.05 99.90
52053 2021-11-11 13:58:54 Terrasse 13.00 10.38 1.00
52052 2021-11-11 13:30:35 Terrasse 11.20 8.40 1.00
52051 2021-11-11 13:02:16 Terrasse 9.60 9.22 99.90
52050 2021-11-11 12:34:01 Terrasse 9.50 6.53 1.00
52049 2021-11-11 12:05:48 Terrasse 10.20 7.30 1.00
52048 2021-11-11 11:37:50 Terrasse 11.10 8.38 4.50
52047 2021-11-11 11:09:01 Terrasse 8.90 5.87 1.00
52046 2021-11-11 10:40:32 Terrasse 6.30 5.59 99.90
52045 2021-11-11 10:12:30 Terrasse 5.40 2.02 1.00
52044 2021-11-11 09:45:56 Terrasse 4.60 1.14 1.00
52043 2021-11-11 09:16:01 Terrasse 3.60 0.04 1.00
52042 2021-11-11 08:41:21 Terrasse 3.00 -0.62 1.00
52041 2021-11-11 08:04:55 Terrasse 3.00 1.96 99.90
52040 2021-11-11 07:30:43 Terrasse 3.30 2.29 99.90
52039 2021-11-11 06:54:54 Terrasse 3.50 2.51 99.90
52038 2021-11-11 06:18:02 Terrasse 3.40 2.40 99.90
52037 2021-11-11 05:42:34 Terrasse 3.30 2.29 99.90
52036 2021-11-11 05:09:30 Terrasse 3.20 2.18 99.90
52035 2021-11-11 04:37:00 Terrasse 3.30 2.29 99.90
52034 2021-11-11 04:04:12 Terrasse 3.30 2.29 99.90
52033 2021-11-11 03:30:38 Terrasse 3.60 2.62 99.90
52032 2021-11-11 02:58:38 Terrasse 3.50 2.51 99.90
52031 2021-11-11 02:24:04 Terrasse 3.60 2.62 99.90
52030 2021-11-11 01:56:55 Terrasse 3.80 2.84 99.90
52029 2021-11-11 01:27:35 Terrasse 3.90 2.95 99.90
52028 2021-11-11 00:55:01 Terrasse 3.90 2.95 99.90
52027 2021-11-11 00:25:14 Terrasse 4.10 3.17 99.90
52026 2021-11-10 23:52:00 Terrasse 4.10 3.17 99.90
52025 2021-11-10 23:23:46 Terrasse 4.10 3.17 99.90
52024 2021-11-10 22:55:34 Terrasse 4.30 3.39 99.90
52023 2021-11-10 22:27:20 Terrasse 4.30 3.39 99.90
52022 2021-11-10 21:59:08 Terrasse 4.50 3.61 99.90
52021 2021-11-10 21:30:57 Terrasse 4.70 3.83 99.90
52020 2021-11-10 21:02:45 Terrasse 4.80 3.94 99.90
52019 2021-11-10 20:34:33 Terrasse 5.10 4.27 99.90
52018 2021-11-10 20:06:21 Terrasse 5.20 4.38 99.90
52017 2021-11-10 19:38:08 Terrasse 5.40 4.60 99.90
52016 2021-11-10 19:09:57 Terrasse 5.50 4.71 99.90
52015 2021-11-10 18:41:45 Terrasse 5.80 3.50 40.90
52014 2021-11-10 18:13:32 Terrasse 6.00 3.78 42.90
52013 2021-11-10 17:45:19 Terrasse 6.20 2.90 1.00
52012 2021-11-10 17:17:07 Terrasse 6.60 3.34 1.00
52011 2021-11-10 16:48:56 Terrasse 7.20 4.00 1.00
52010 2021-11-10 16:20:44 Terrasse 7.70 7.13 99.90
52009 2021-11-10 15:52:37 Terrasse 8.80 5.76 1.00
52008 2021-11-10 15:24:28 Terrasse 9.60 9.22 99.90
52007 2021-11-10 14:56:12 Terrasse 9.80 6.86 1.00
52006 2021-11-10 14:27:56 Terrasse 9.20 6.20 1.00
52005 2021-11-10 13:59:40 Terrasse 8.60 5.54 1.00
52004 2021-11-10 13:31:26 Terrasse 8.50 8.01 99.90
52003 2021-11-10 13:03:13 Terrasse 8.80 5.76 1.00
52002 2021-11-10 12:35:01 Terrasse 9.20 6.20 1.00
52001 2021-11-10 12:06:51 Terrasse 9.90 6.97 1.00
52000 2021-11-10 11:38:53 Terrasse 11.20 8.40 1.00
51999 2021-11-10 11:10:19 Terrasse 9.50 6.53 1.00
51998 2021-11-10 10:41:54 Terrasse 7.50 6.91 99.90
51997 2021-11-10 10:13:35 Terrasse 6.80 3.56 1.00
51996 2021-11-10 09:45:18 Terrasse 6.20 2.94 2.30
51995 2021-11-10 09:17:00 Terrasse 5.60 4.82 99.90
51994 2021-11-10 08:48:44 Terrasse 5.00 4.16 99.90
51993 2021-11-10 08:20:29 Terrasse 4.70 3.83 99.90
51992 2021-11-10 07:52:25 Terrasse 4.60 3.72 99.90
51991 2021-11-10 07:24:08 Terrasse 4.50 3.61 99.90
51990 2021-11-10 06:55:56 Terrasse 4.60 3.72 99.90
51989 2021-11-10 06:27:45 Terrasse 5.00 4.16 99.90
51988 2021-11-10 05:59:32 Terrasse 5.10 4.27 99.90
51987 2021-11-10 05:31:19 Terrasse 5.10 4.27 99.90
51986 2021-11-10 05:03:05 Terrasse 5.20 4.38 99.90
51985 2021-11-10 04:34:52 Terrasse 5.30 4.30 92.60
51984 2021-11-10 04:06:42 Terrasse 5.60 4.82 99.90
51983 2021-11-10 03:38:28 Terrasse 5.80 5.04 99.90
51982 2021-11-10 03:10:15 Terrasse 5.80 4.59 82.70
51981 2021-11-10 02:42:01 Terrasse 5.90 2.57 1.00
51980 2021-11-10 02:13:48 Terrasse 6.00 2.68 1.00
51979 2021-11-10 01:45:34 Terrasse 6.00 2.68 1.00
51978 2021-11-10 01:17:19 Terrasse 6.00 2.68 1.00
51977 2021-11-10 00:49:05 Terrasse 6.10 2.79 1.00
51976 2021-11-10 00:20:52 Terrasse 6.20 2.90 1.00
51975 2021-11-09 23:52:39 Terrasse 6.40 3.12 1.00
51974 2021-11-09 23:24:27 Terrasse 6.60 3.34 1.00
51973 2021-11-09 22:56:15 Terrasse 6.70 3.45 1.00
51972 2021-11-09 22:28:02 Terrasse 6.90 3.67 1.00
51971 2021-11-09 21:59:49 Terrasse 7.00 3.78 1.00
51970 2021-11-09 21:31:36 Terrasse 7.10 3.89 1.00
51969 2021-11-09 21:03:24 Terrasse 7.10 3.89 1.00
51968 2021-11-09 20:35:11 Terrasse 7.30 4.11 1.00
51967 2021-11-09 20:06:58 Terrasse 7.50 4.33 1.00
51966 2021-11-09 19:38:46 Terrasse 7.60 7.02 99.90
51965 2021-11-09 19:10:33 Terrasse 7.80 4.66 1.00
51964 2021-11-09 18:42:21 Terrasse 8.20 7.68 99.90
51963 2021-11-09 18:14:09 Terrasse 8.60 8.12 99.90
51962 2021-11-09 17:45:58 Terrasse 9.20 8.78 99.90
51961 2021-11-09 17:17:45 Terrasse 9.70 6.75 1.00
51960 2021-11-09 16:49:36 Terrasse 10.60 7.74 1.00
51959 2021-11-09 16:21:30 Terrasse 12.00 9.28 1.00
51958 2021-11-09 15:53:27 Terrasse 14.80 12.36 1.00
51957 2021-11-09 15:25:21 Terrasse 15.80 13.46 1.00
51956 2021-11-09 14:57:14 Terrasse 19.10 17.09 1.00
51955 2021-11-09 14:28:51 Terrasse 17.90 15.77 1.00
51954 2021-11-09 14:00:23 Terrasse 15.70 14.04 27.40
51953 2021-11-09 13:32:09 Terrasse 13.60 11.04 1.00
51952 2021-11-09 13:03:51 Terrasse 13.00 10.38 1.00
51951 2021-11-09 12:35:34 Terrasse 12.80 10.16 1.00
51950 2021-11-09 12:07:19 Terrasse 13.00 10.38 1.00
51949 2021-11-09 11:39:17 Terrasse 12.90 10.27 1.00
51948 2021-11-09 11:10:37 Terrasse 11.20 10.98 99.90
51947 2021-11-09 10:42:09 Terrasse 8.60 8.12 99.90
51946 2021-11-09 10:13:51 Terrasse 7.90 7.35 99.90
51945 2021-11-09 09:45:31 Terrasse 7.00 3.78 1.00
51944 2021-11-09 09:17:12 Terrasse 6.20 2.90 1.00
51943 2021-11-09 08:48:54 Terrasse 5.60 2.24 1.00
51942 2021-11-09 08:20:38 Terrasse 5.10 1.69 1.00
51941 2021-11-09 07:52:24 Terrasse 5.00 1.58 1.00
51940 2021-11-09 07:24:12 Terrasse 4.90 4.05 99.90
51939 2021-11-09 06:55:59 Terrasse 5.00 4.16 99.90
51938 2021-11-09 06:27:47 Terrasse 5.30 4.49 99.90
51937 2021-11-09 05:59:34 Terrasse 5.50 4.71 99.90
51936 2021-11-09 05:31:20 Terrasse 5.60 4.82 99.90
51935 2021-11-09 05:03:07 Terrasse 5.60 4.82 99.90
51934 2021-11-09 04:34:55 Terrasse 5.90 5.15 99.90
51933 2021-11-09 04:06:43 Terrasse 6.10 5.37 99.90
51932 2021-11-09 03:38:30 Terrasse 6.30 5.59 99.90
51931 2021-11-09 03:10:18 Terrasse 6.60 5.92 99.90
51930 2021-11-09 02:42:05 Terrasse 6.90 6.25 99.90
51929 2021-11-09 02:13:52 Terrasse 7.20 6.58 99.90
51928 2021-11-09 01:45:39 Terrasse 7.60 7.02 99.90
51927 2021-11-09 01:17:25 Terrasse 7.70 7.13 99.90
51926 2021-11-09 00:49:10 Terrasse 7.70 4.55 1.00
51925 2021-11-09 00:20:55 Terrasse 7.70 4.55 1.00
51924 2021-11-08 23:52:40 Terrasse 7.70 4.55 1.00
51923 2021-11-08 23:24:25 Terrasse 7.80 4.66 1.00
51922 2021-11-08 22:56:11 Terrasse 7.80 4.66 1.00
51921 2021-11-08 22:27:56 Terrasse 7.90 4.77 1.00
51920 2021-11-08 21:59:41 Terrasse 7.90 4.77 1.00
51919 2021-11-08 21:31:26 Terrasse 7.90 4.77 1.00
51918 2021-11-08 21:03:12 Terrasse 7.90 4.77 1.00
51917 2021-11-08 20:34:57 Terrasse 7.90 4.77 1.00
51916 2021-11-08 20:06:42 Terrasse 7.90 4.77 1.00
51915 2021-11-08 19:38:26 Terrasse 7.90 4.77 1.00
51914 2021-11-08 19:10:12 Terrasse 8.00 4.88 1.00
51913 2021-11-08 18:41:58 Terrasse 8.00 4.88 1.00
51912 2021-11-08 18:13:46 Terrasse 8.10 4.99 1.00
51911 2021-11-08 17:45:32 Terrasse 8.20 5.10 1.00
51910 2021-11-08 17:17:19 Terrasse 8.40 5.32 1.00
51909 2021-11-08 16:49:07 Terrasse 8.70 5.65 1.00
51908 2021-11-08 16:20:53 Terrasse 8.90 5.87 1.00
51907 2021-11-08 15:52:39 Terrasse 9.10 8.67 99.90
51906 2021-11-08 15:24:26 Terrasse 9.40 6.42 1.00
51905 2021-11-08 14:56:15 Terrasse 9.80 6.86 1.00
51904 2021-11-08 14:27:56 Terrasse 9.60 9.22 99.90
51903 2021-11-08 13:59:39 Terrasse 9.20 8.78 99.90
51902 2021-11-08 13:31:25 Terrasse 9.10 8.67 99.90
51901 2021-11-08 13:03:11 Terrasse 9.10 8.67 99.90
51900 2021-11-08 12:34:56 Terrasse 9.20 8.78 99.90
51899 2021-11-08 12:06:51 Terrasse 10.00 7.08 1.00
51898 2021-11-08 11:38:52 Terrasse 11.70 11.53 99.90
51897 2021-11-08 11:10:06 Terrasse 8.60 5.54 1.00
51896 2021-11-08 10:41:49 Terrasse 8.00 4.88 1.00
51895 2021-11-08 10:13:30 Terrasse 7.60 4.44 1.00
51894 2021-11-08 09:45:14 Terrasse 7.30 4.11 1.00
51893 2021-11-08 09:16:58 Terrasse 7.10 3.89 1.00
51892 2021-11-08 08:48:42 Terrasse 6.70 3.45 1.00
51891 2021-11-08 08:20:27 Terrasse 6.50 3.23 1.00
51890 2021-11-08 07:52:11 Terrasse 6.40 3.12 1.00
51889 2021-11-08 07:23:57 Terrasse 6.20 2.90 1.00
51888 2021-11-08 06:55:42 Terrasse 6.20 2.90 1.00
51887 2021-11-08 06:27:27 Terrasse 6.20 2.90 1.00
51886 2021-11-08 05:59:11 Terrasse 6.20 2.90 1.00
51885 2021-11-08 05:30:58 Terrasse 6.20 2.90 1.00
51884 2021-11-08 05:02:45 Terrasse 6.40 3.12 1.00
51883 2021-11-08 04:34:32 Terrasse 6.40 3.12 1.00
51882 2021-11-08 04:06:17 Terrasse 6.50 3.23 1.00
51881 2021-11-08 03:38:02 Terrasse 6.50 3.23 1.00
51880 2021-11-08 03:09:48 Terrasse 6.40 3.12 1.00
51879 2021-11-08 02:41:33 Terrasse 6.50 3.23 1.00
51878 2021-11-08 02:13:19 Terrasse 6.50 3.23 1.00
51877 2021-11-08 01:45:05 Terrasse 6.40 3.12 1.00
51876 2021-11-08 01:16:51 Terrasse 6.50 3.23 1.00
51875 2021-11-08 00:48:36 Terrasse 6.40 3.12 1.00
51874 2021-11-08 00:20:22 Terrasse 6.40 3.12 1.00
51873 2021-11-07 23:52:08 Terrasse 6.40 3.12 1.00
51872 2021-11-07 23:23:54 Terrasse 6.60 3.34 1.00
51871 2021-11-07 22:55:40 Terrasse 6.60 3.34 1.00
51870 2021-11-07 22:27:25 Terrasse 6.50 3.23 1.00
51869 2021-11-07 21:59:11 Terrasse 6.70 3.45 1.00
51868 2021-11-07 21:30:58 Terrasse 6.70 3.45 1.00
51867 2021-11-07 21:02:43 Terrasse 6.70 3.45 1.00
51866 2021-11-07 20:34:29 Terrasse 6.90 3.67 1.00
51865 2021-11-07 20:06:16 Terrasse 7.00 3.78 1.00
51864 2021-11-07 19:38:01 Terrasse 7.10 3.89 1.00
51863 2021-11-07 19:09:46 Terrasse 7.10 3.89 1.00
51862 2021-11-07 18:41:32 Terrasse 7.10 3.89 1.00
51861 2021-11-07 18:13:18 Terrasse 7.20 4.00 1.00
51860 2021-11-07 17:45:03 Terrasse 7.20 4.00 1.00
51859 2021-11-07 17:16:49 Terrasse 7.30 4.11 1.00
51858 2021-11-07 16:48:34 Terrasse 7.30 4.11 1.00
51857 2021-11-07 16:20:19 Terrasse 7.20 4.00 1.00
51856 2021-11-07 15:52:06 Terrasse 7.20 4.00 1.00
51855 2021-11-07 15:23:52 Terrasse 7.10 3.89 1.00
51854 2021-11-07 14:55:38 Terrasse 7.00 3.78 1.00
51853 2021-11-07 14:27:23 Terrasse 6.90 3.67 1.00
51852 2021-11-07 13:59:09 Terrasse 6.80 3.56 1.00
51851 2021-11-07 13:30:54 Terrasse 6.80 3.56 1.00
51850 2021-11-07 13:02:39 Terrasse 6.60 3.34 1.00
51849 2021-11-07 12:34:24 Terrasse 6.50 3.23 1.00
51848 2021-11-07 12:06:10 Terrasse 6.40 3.12 1.00
51847 2021-11-07 11:37:55 Terrasse 6.30 3.01 1.00
51846 2021-11-07 11:09:41 Terrasse 6.20 2.90 1.00
51845 2021-11-07 10:41:26 Terrasse 6.10 2.79 1.00
51844 2021-11-07 10:13:11 Terrasse 5.90 2.57 1.00
51843 2021-11-07 09:45:09 Terrasse 5.90 2.57 1.00
51842 2021-11-07 09:16:51 Terrasse 5.90 2.57 1.00
51841 2021-11-07 08:48:36 Terrasse 5.80 2.46 1.00
51840 2021-11-07 08:20:23 Terrasse 5.80 2.46 1.00
51839 2021-11-07 07:52:08 Terrasse 5.70 2.35 1.00
51838 2021-11-07 07:23:55 Terrasse 5.70 2.35 1.00
51837 2021-11-07 06:55:40 Terrasse 5.70 2.35 1.00
51836 2021-11-07 06:27:26 Terrasse 5.70 2.35 1.00
51835 2021-11-07 05:59:16 Terrasse 5.70 2.35 1.00
51834 2021-11-07 05:31:01 Terrasse 5.70 2.35 1.00
51833 2021-11-07 05:02:47 Terrasse 5.60 2.24 1.00
51832 2021-11-07 04:34:33 Terrasse 5.70 2.35 1.00
51831 2021-11-07 04:06:21 Terrasse 5.70 2.35 1.00
51830 2021-11-07 03:38:08 Terrasse 5.90 2.57 1.00
51829 2021-11-07 03:09:54 Terrasse 6.00 2.68 1.00
51828 2021-11-07 02:41:41 Terrasse 6.10 2.79 1.00
51827 2021-11-07 02:13:28 Terrasse 6.20 2.90 1.00
51826 2021-11-07 01:45:14 Terrasse 6.30 3.01 1.00
51825 2021-11-07 01:17:01 Terrasse 6.30 3.01 1.00
51824 2021-11-07 00:48:47 Terrasse 6.30 3.01 1.00
51823 2021-11-07 00:20:32 Terrasse 6.40 3.12 1.00
51822 2021-11-06 23:52:19 Terrasse 6.50 3.23 1.00
51821 2021-11-06 23:24:04 Terrasse 6.60 3.34 1.00
51820 2021-11-06 22:55:50 Terrasse 6.80 3.56 1.00
51819 2021-11-06 22:27:36 Terrasse 6.80 3.56 1.00
51818 2021-11-06 21:59:21 Terrasse 6.90 3.67 1.00
51817 2021-11-06 21:31:08 Terrasse 6.90 3.67 1.00
51816 2021-11-06 21:02:54 Terrasse 6.80 3.56 1.00
51815 2021-11-06 20:34:42 Terrasse 7.20 4.00 1.00
51814 2021-11-06 20:06:29 Terrasse 7.40 4.22 1.00
51813 2021-11-06 19:38:15 Terrasse 7.50 4.33 1.00
51812 2021-11-06 19:10:01 Terrasse 7.70 4.55 1.00
51811 2021-11-06 18:41:47 Terrasse 7.80 4.66 1.00
51810 2021-11-06 18:13:33 Terrasse 8.00 4.88 1.00
51809 2021-11-06 17:45:20 Terrasse 8.20 5.10 1.00
51808 2021-11-06 17:17:09 Terrasse 8.60 8.12 99.90
51807 2021-11-06 16:48:56 Terrasse 8.90 8.45 99.90
51806 2021-11-06 16:20:46 Terrasse 9.60 9.22 99.90
51805 2021-11-06 15:52:47 Terrasse 12.10 9.39 1.00
51804 2021-11-06 15:24:21 Terrasse 11.60 11.42 99.90
51803 2021-11-06 14:56:03 Terrasse 10.60 7.74 1.00
51802 2021-11-06 14:27:47 Terrasse 9.80 9.44 99.90
51801 2021-11-06 13:59:29 Terrasse 9.40 9.00 99.90
51800 2021-11-06 13:31:16 Terrasse 9.60 9.22 99.90
51799 2021-11-06 13:03:04 Terrasse 9.70 9.33 99.90
51798 2021-11-06 12:34:52 Terrasse 10.30 7.41 1.00
51797 2021-11-06 12:06:41 Terrasse 11.20 8.40 1.00
51796 2021-11-06 11:38:14 Terrasse 10.10 8.31 43.80
51795 2021-11-06 11:09:42 Terrasse 8.70 5.65 1.00
51794 2021-11-06 10:41:26 Terrasse 8.40 5.32 1.00
51793 2021-11-06 10:13:11 Terrasse 8.10 4.99 1.00
51792 2021-11-06 09:44:50 Terrasse 7.40 4.22 1.00
51791 2021-11-06 09:16:30 Terrasse 6.50 3.23 1.00
51790 2021-11-06 08:48:14 Terrasse 6.00 2.68 1.00
51789 2021-11-06 08:20:00 Terrasse 5.90 2.57 1.00
51788 2021-11-06 07:51:45 Terrasse 5.80 2.46 1.00
51787 2021-11-06 07:23:30 Terrasse 5.70 2.35 1.00
51786 2021-11-06 06:55:18 Terrasse 5.90 2.57 1.00
51785 2021-11-06 06:27:05 Terrasse 5.90 2.57 1.00
51784 2021-11-06 05:58:53 Terrasse 6.40 3.12 1.00
51783 2021-11-06 05:30:40 Terrasse 6.60 3.34 1.00
51782 2021-11-06 05:02:26 Terrasse 6.60 3.34 1.00
51781 2021-11-06 04:34:14 Terrasse 7.00 3.78 1.00
51780 2021-11-06 04:06:02 Terrasse 7.50 4.33 1.00
51779 2021-11-06 03:37:48 Terrasse 7.60 4.44 1.00
51778 2021-11-06 03:09:33 Terrasse 7.60 4.44 1.00
51777 2021-11-06 02:41:20 Terrasse 7.60 4.44 1.00
51776 2021-11-06 02:13:04 Terrasse 7.50 4.33 1.00
51775 2021-11-06 01:44:50 Terrasse 7.50 4.33 1.00
51774 2021-11-06 01:16:36 Terrasse 7.70 4.55 1.00
51773 2021-11-06 00:48:21 Terrasse 7.60 4.44 1.00
51772 2021-11-06 00:20:05 Terrasse 7.60 4.44 1.00
51771 2021-11-05 23:51:50 Terrasse 7.50 4.33 1.00
51770 2021-11-05 23:23:34 Terrasse 7.40 4.22 1.00
51769 2021-11-05 22:55:19 Terrasse 7.30 4.11 1.00
51768 2021-11-05 22:27:04 Terrasse 7.20 4.00 1.00
51767 2021-11-05 21:58:47 Terrasse 7.00 3.78 1.00
51766 2021-11-05 21:30:31 Terrasse 6.70 3.45 1.00
51765 2021-11-05 21:02:16 Terrasse 6.70 3.45 1.00
51764 2021-11-05 20:34:01 Terrasse 6.60 3.34 1.00
51763 2021-11-05 20:05:47 Terrasse 6.60 3.34 1.00
51762 2021-11-05 19:39:02 Terrasse 6.60 3.34 1.00
51761 2021-11-05 19:09:06 Terrasse 6.90 3.67 1.00
51760 2021-11-05 18:40:53 Terrasse 7.00 3.78 1.00
51759 2021-11-05 18:12:40 Terrasse 7.20 4.00 1.00
51758 2021-11-05 17:44:28 Terrasse 7.50 4.33 1.00
51757 2021-11-05 17:16:16 Terrasse 8.10 4.99 1.00
51756 2021-11-05 16:48:06 Terrasse 8.80 8.34 99.90
51755 2021-11-05 16:19:54 Terrasse 9.30 8.89 99.90
51754 2021-11-05 15:51:39 Terrasse 9.40 9.00 99.90
51753 2021-11-05 15:23:24 Terrasse 9.30 8.89 99.90
51752 2021-11-05 14:55:11 Terrasse 9.50 9.11 99.90
51751 2021-11-05 14:26:59 Terrasse 9.80 7.89 40.30
51750 2021-11-05 13:58:45 Terrasse 10.10 7.87 27.00
51749 2021-11-05 13:30:34 Terrasse 10.40 7.52 1.00
51748 2021-11-05 13:02:19 Terrasse 10.60 7.74 1.00
51747 2021-11-05 12:33:57 Terrasse 9.70 6.91 7.10
51746 2021-11-05 12:05:47 Terrasse 10.00 7.08 1.00
51745 2021-11-05 11:05:38 Terrasse 10.20 7.45 6.50
51744 2021-11-05 10:36:39 Terrasse 7.90 4.77 1.00
51743 2021-11-05 10:08:22 Terrasse 7.40 4.22 1.00
51742 2021-11-05 09:40:07 Terrasse 7.40 4.22 1.00
51741 2021-11-05 09:11:51 Terrasse 7.20 4.00 1.00
51740 2021-11-05 08:43:34 Terrasse 6.90 3.67 1.00
51739 2021-11-05 08:15:20 Terrasse 6.70 3.45 1.00
51738 2021-11-05 07:47:05 Terrasse 6.60 3.34 1.00
51737 2021-11-05 07:18:50 Terrasse 6.50 3.23 1.00
51736 2021-11-05 06:50:36 Terrasse 6.60 3.34 1.00
51735 2021-11-05 06:22:22 Terrasse 6.60 3.34 1.00
51734 2021-11-05 05:54:07 Terrasse 6.60 3.34 1.00
51733 2021-11-05 05:25:52 Terrasse 6.60 3.34 1.00
51732 2021-11-05 04:57:39 Terrasse 6.60 3.34 1.00
51731 2021-11-05 04:29:25 Terrasse 6.70 3.45 1.00
51730 2021-11-05 04:01:09 Terrasse 6.70 3.45 1.00
51729 2021-11-05 03:32:54 Terrasse 6.70 3.45 1.00
51728 2021-11-05 03:04:40 Terrasse 6.70 3.45 1.00
51727 2021-11-05 02:36:26 Terrasse 6.70 3.45 1.00
51726 2021-11-05 02:08:11 Terrasse 6.70 3.45 1.00
51725 2021-11-05 01:39:57 Terrasse 6.60 3.34 1.00
51724 2021-11-05 01:11:44 Terrasse 6.70 3.45 1.00
51723 2021-11-05 00:43:30 Terrasse 6.70 3.45 1.00
51722 2021-11-05 00:15:15 Terrasse 6.70 3.45 1.00
51721 2021-11-04 23:47:02 Terrasse 6.70 3.45 1.00
51720 2021-11-04 23:18:48 Terrasse 6.70 3.45 1.00
51719 2021-11-04 22:50:34 Terrasse 6.60 3.34 1.00
51718 2021-11-04 22:22:20 Terrasse 6.70 3.45 1.00
51717 2021-11-04 21:54:06 Terrasse 6.70 3.45 1.00
51716 2021-11-04 21:25:53 Terrasse 6.80 3.56 1.00
51715 2021-11-04 20:57:38 Terrasse 6.80 3.56 1.00
51714 2021-11-04 20:29:25 Terrasse 6.80 3.56 1.00
51713 2021-11-04 20:01:11 Terrasse 6.80 3.56 1.00
51712 2021-11-04 19:32:58 Terrasse 7.00 3.78 1.00
51711 2021-11-04 19:04:43 Terrasse 7.00 3.78 1.00
51710 2021-11-04 18:36:29 Terrasse 6.90 3.67 1.00
51709 2021-11-04 18:08:15 Terrasse 7.00 3.78 1.00
51708 2021-11-04 17:40:01 Terrasse 7.10 3.89 1.00
51707 2021-11-04 17:11:46 Terrasse 7.20 4.00 1.00
51706 2021-11-04 16:43:34 Terrasse 7.40 4.22 1.00
51705 2021-11-04 16:15:22 Terrasse 7.50 4.33 1.00
51704 2021-11-04 15:47:07 Terrasse 7.60 4.44 1.00
51703 2021-11-04 15:18:53 Terrasse 7.70 4.55 1.00
51702 2021-11-04 14:50:37 Terrasse 7.70 4.55 1.00
51701 2021-11-04 14:22:21 Terrasse 7.60 4.44 1.00
51700 2021-11-04 13:54:08 Terrasse 7.60 4.44 1.00
51699 2021-11-04 13:25:53 Terrasse 7.50 4.33 1.00
51698 2021-11-04 12:57:37 Terrasse 7.20 4.00 1.00
51697 2021-11-04 12:29:21 Terrasse 7.10 3.89 1.00
51696 2021-11-04 12:01:09 Terrasse 7.10 3.89 1.00
51695 2021-11-04 11:32:54 Terrasse 7.00 3.78 1.00
51694 2021-11-04 11:04:40 Terrasse 7.00 3.78 1.00
51693 2021-11-04 10:36:26 Terrasse 7.00 3.78 1.00
51692 2021-11-04 10:08:12 Terrasse 7.00 3.78 1.00
51691 2021-11-04 09:39:58 Terrasse 7.00 3.78 1.00
51690 2021-11-04 09:11:44 Terrasse 7.10 3.89 1.00
51689 2021-11-04 08:43:30 Terrasse 7.20 4.00 1.00
51688 2021-11-04 08:15:14 Terrasse 7.10 3.89 1.00
51687 2021-11-04 07:47:00 Terrasse 7.20 4.00 1.00
51686 2021-11-04 07:18:47 Terrasse 7.30 4.11 1.00
51685 2021-11-04 06:50:33 Terrasse 7.30 4.11 1.00
51684 2021-11-04 06:22:19 Terrasse 7.30 4.11 1.00
51683 2021-11-04 05:54:05 Terrasse 7.40 4.22 1.00
51682 2021-11-04 05:25:51 Terrasse 7.40 4.22 1.00
51681 2021-11-04 04:57:38 Terrasse 7.50 4.33 1.00
51680 2021-11-04 04:29:24 Terrasse 7.50 4.33 1.00
51679 2021-11-04 04:01:12 Terrasse 7.60 4.44 1.00
51678 2021-11-04 03:32:57 Terrasse 7.60 4.44 1.00
51677 2021-11-04 03:04:41 Terrasse 7.70 4.55 1.00
51676 2021-11-04 02:36:27 Terrasse 7.70 4.55 1.00
51675 2021-11-04 02:08:13 Terrasse 7.70 4.55 1.00
51674 2021-11-04 01:40:01 Terrasse 7.90 4.77 1.00
51673 2021-11-04 01:11:47 Terrasse 8.00 4.88 1.00
51672 2021-11-04 00:43:31 Terrasse 8.00 4.88 1.00
51671 2021-11-04 00:15:17 Terrasse 8.00 4.88 1.00
51670 2021-11-03 23:47:03 Terrasse 8.00 4.88 1.00
51669 2021-11-03 23:18:50 Terrasse 8.10 4.99 1.00
51668 2021-11-03 22:50:36 Terrasse 8.10 4.99 1.00
51667 2021-11-03 22:22:21 Terrasse 8.10 4.99 1.00
51666 2021-11-03 21:54:06 Terrasse 8.10 4.99 1.00
51665 2021-11-03 21:25:53 Terrasse 8.10 4.99 1.00
51664 2021-11-03 20:57:38 Terrasse 8.10 4.99 1.00
51663 2021-11-03 20:29:25 Terrasse 8.10 4.99 1.00
51662 2021-11-03 20:01:11 Terrasse 8.10 4.99 1.00
51661 2021-11-03 19:32:56 Terrasse 8.10 4.99 1.00
51660 2021-11-03 19:04:43 Terrasse 8.10 4.99 1.00
51659 2021-11-03 18:36:28 Terrasse 8.10 4.99 1.00
51658 2021-11-03 18:08:13 Terrasse 8.00 4.88 1.00
51657 2021-11-03 17:39:59 Terrasse 8.00 4.88 1.00
51656 2021-11-03 17:11:46 Terrasse 8.10 4.99 1.00
51655 2021-11-03 16:43:31 Terrasse 8.10 4.99 1.00
51654 2021-11-03 16:15:17 Terrasse 8.10 4.99 1.00
51653 2021-11-03 15:47:04 Terrasse 8.20 5.10 1.00
51652 2021-11-03 15:18:49 Terrasse 8.20 5.10 1.00
51651 2021-11-03 14:50:34 Terrasse 8.20 5.10 1.00
51650 2021-11-03 14:22:20 Terrasse 8.10 4.99 1.00
51649 2021-11-03 13:54:05 Terrasse 8.10 4.99 1.00
51648 2021-11-03 13:25:51 Terrasse 8.20 5.10 1.00
51647 2021-11-03 12:57:36 Terrasse 8.00 4.88 1.00
51646 2021-11-03 12:29:19 Terrasse 7.80 4.66 1.00
51645 2021-11-03 12:01:04 Terrasse 7.70 4.55 1.00
51644 2021-11-03 11:32:49 Terrasse 7.60 4.44 1.00
51643 2021-11-03 11:04:33 Terrasse 7.50 4.33 1.00
51642 2021-11-03 10:36:20 Terrasse 7.50 4.33 1.00
51641 2021-11-03 10:08:04 Terrasse 7.50 4.33 1.00
51640 2021-11-03 09:39:51 Terrasse 7.50 4.33 1.00
51639 2021-11-03 09:11:37 Terrasse 7.40 4.22 1.00
51638 2021-11-03 08:43:22 Terrasse 7.30 4.11 1.00
51637 2021-11-03 08:15:08 Terrasse 7.30 4.11 1.00
51636 2021-11-03 07:46:52 Terrasse 7.30 4.11 1.00
51635 2021-11-03 07:18:38 Terrasse 7.30 4.11 1.00
51634 2021-11-03 06:50:24 Terrasse 7.30 4.11 1.00
51633 2021-11-03 06:22:11 Terrasse 7.40 4.22 1.00
51632 2021-11-03 05:53:57 Terrasse 7.40 4.22 1.00
51631 2021-11-03 05:25:42 Terrasse 7.40 4.22 1.00
51630 2021-11-03 04:57:28 Terrasse 7.40 4.22 1.00
51629 2021-11-03 04:29:14 Terrasse 7.40 4.22 1.00
51628 2021-11-03 04:01:01 Terrasse 7.40 4.22 1.00
51627 2021-11-03 03:32:47 Terrasse 7.40 4.22 1.00
51626 2021-11-03 03:04:34 Terrasse 7.40 4.22 1.00
51625 2021-11-03 02:36:19 Terrasse 7.50 4.33 1.00
51624 2021-11-03 02:08:03 Terrasse 7.40 4.22 1.00
51623 2021-11-03 01:39:49 Terrasse 7.40 4.22 1.00
51622 2021-11-03 01:11:35 Terrasse 7.40 4.22 1.00
51621 2021-11-03 00:43:21 Terrasse 7.50 4.33 1.00
51620 2021-11-03 00:15:05 Terrasse 7.40 4.22 1.00
51619 2021-11-02 23:46:51 Terrasse 7.50 4.33 1.00
51618 2021-11-02 23:18:38 Terrasse 7.40 4.22 1.00
51617 2021-11-02 22:50:25 Terrasse 7.50 4.33 1.00
51616 2021-11-02 22:22:13 Terrasse 7.50 4.33 1.00
51615 2021-11-02 21:54:00 Terrasse 7.50 4.33 1.00
51614 2021-11-02 21:25:48 Terrasse 7.60 4.44 1.00
51613 2021-11-02 20:57:34 Terrasse 7.50 4.33 1.00
51612 2021-11-02 20:29:21 Terrasse 7.70 4.55 1.00
51611 2021-11-02 20:01:08 Terrasse 7.80 4.66 1.00
51610 2021-11-02 19:32:55 Terrasse 7.90 4.77 1.00
51609 2021-11-02 19:04:41 Terrasse 7.90 4.77 1.00
51608 2021-11-02 18:36:26 Terrasse 8.00 4.88 1.00
51607 2021-11-02 18:08:14 Terrasse 8.00 4.88 1.00
51606 2021-11-02 17:40:00 Terrasse 8.10 4.99 1.00
51605 2021-11-02 17:11:47 Terrasse 8.20 5.10 1.00
51604 2021-11-02 16:43:34 Terrasse 8.30 5.21 1.00
51603 2021-11-02 16:15:19 Terrasse 8.30 5.21 1.00
51602 2021-11-02 15:47:06 Terrasse 8.40 5.32 1.00
51601 2021-11-02 15:18:52 Terrasse 8.60 5.54 1.00
51600 2021-11-02 14:50:39 Terrasse 8.70 5.65 1.00
51599 2021-11-02 14:22:28 Terrasse 8.80 5.76 1.00
51598 2021-11-02 13:54:14 Terrasse 8.90 5.87 1.00
51597 2021-11-02 13:26:00 Terrasse 9.10 6.09 1.00
51596 2021-11-02 12:57:48 Terrasse 9.30 6.31 1.00
51595 2021-11-02 12:29:35 Terrasse 9.60 6.64 1.00
51594 2021-11-02 12:01:22 Terrasse 9.90 6.97 1.00
51593 2021-11-02 11:33:17 Terrasse 10.60 10.32 99.90
51592 2021-11-02 11:04:52 Terrasse 10.00 7.08 1.00
51591 2021-11-02 10:36:31 Terrasse 8.90 5.87 1.00
51590 2021-11-02 10:08:15 Terrasse 8.70 5.65 1.00
51589 2021-11-02 09:40:02 Terrasse 8.70 5.65 1.00
51588 2021-11-02 09:11:47 Terrasse 8.50 5.43 1.00
51587 2021-11-02 08:43:31 Terrasse 8.20 5.10 1.00
51586 2021-11-02 08:15:16 Terrasse 8.10 4.99 1.00
51585 2021-11-02 07:47:01 Terrasse 8.00 4.88 1.00
51584 2021-11-02 07:18:48 Terrasse 8.00 4.88 1.00
51583 2021-11-02 06:50:34 Terrasse 8.10 4.99 1.00
51582 2021-11-02 06:22:20 Terrasse 8.10 4.99 1.00
51581 2021-11-02 05:54:06 Terrasse 8.20 5.10 1.00
51580 2021-11-02 05:25:52 Terrasse 8.30 5.21 1.00
51579 2021-11-02 04:57:39 Terrasse 8.30 5.21 1.00
51578 2021-11-02 04:29:25 Terrasse 8.40 5.32 1.00
51577 2021-11-02 04:01:11 Terrasse 8.40 5.32 1.00
51576 2021-11-02 03:32:57 Terrasse 8.50 5.43 1.00
51575 2021-11-02 03:04:44 Terrasse 8.50 5.43 1.00
51574 2021-11-02 0